[[[{"header":{"parameterUnit":"kt","parameterCategory":2,"dx":1,"dy":1,"la1":29.587661999999998,"la2":31.0,"lo1":-88.76705300000003,"lo2":-86.6583820000003,"nx":115,"ny":88,"refTime":"2022-09-24T18:00:00:Z","depth":0,"parameterNumber":1,"parameterNumberName":"U-component_of_WINDS"},"data":[15.3153,15.3153,15.3153,15.3153,15.3153,15.3153,15.3153,15.3153,15.3153,15.3153,15.3153,15.3153,15.3153,15.3153,15.3153,15.3153,15.3153,15.3153,15.3153,15.3153,15.3153,15.3153,15.3153,15.3153,15.3153,15.3153,15.3153,15.3153,15.3153,15.3153,15.3153,15.3153,15.3153,15.3153,15.3153,15.3153,15.3153,15.3153,15.3153,15.3153,15.3153,15.3153,15.3153,15.3153,15.3153,15.3153,15.3153,15.3153,15.3153,15.3153,15.3153,15.3153,15.3153,15.3153,15.3153,15.3153,15.3153,15.3153,15.3153,15.3153,15.3153,15.3153,15.3153,15.3153,15.3153,15.3153,15.3153,15.3153,15.3153,15.3153,15.3153,15.3153,15.3153,15.3153,15.3153,15.3153,15.3153,15.3153,15.3153,15.3153,15.3153,15.3153,15.3153,15.3153,15.3153,15.3153,15.3153,15.3153,15.3153,15.3153,15.3153,15.3153,15.3153,15.3153,15.3153,15.3153,15.3153,15.3153,15.3153,15.3153,15.3153,15.3153,15.3246,15.3246,15.3851,15.4433,15.4956,15.4782,15.5515,15.5457,15.7261,15.8017,15.6817,15.6468,15.7108,15.3153,15.3153,15.3153,15.3153,15.3153,15.3153,15.3153,15.3153,15.3153,15.3153,15.3153,15.3153,15.3153,15.3153,15.3153,15.3153,15.3153,15.3153,15.3153,15.3153,15.3153,15.3153,15.3153,15.3153,15.3153,15.3153,15.3153,15.3153,15.3153,15.3153,15.3153,15.3153,15.3153,15.3153,15.3153,15.3153,15.3153,15.3153,15.3153,15.3153,15.3153,15.3153,15.3153,15.3153,15.3153,15.3153,15.3153,15.3153,15.3153,15.3153,15.3153,15.3153,15.3153,15.3153,15.3153,15.3153,15.3153,15.3153,15.3153,15.3153,15.3153,15.3153,15.3153,15.3153,15.3153,15.3153,15.3153,15.3153,15.3153,15.3153,15.3153,15.3153,15.3153,15.3153,15.3153,15.3153,15.3153,15.3153,15.3153,15.3153,15.3153,15.3153,15.3153,15.3153,15.3153,15.3153,15.3153,15.3153,15.3153,15.3153,15.3153,15.3153,15.3153,15.3153,15.3153,15.3153,15.3153,15.3153,15.3153,15.3153,15.3153,15.3153,15.3188,15.3246,15.3246,15.356,15.4084,15.4898,15.4258,15.3712,15.5014,15.5829,15.4956,15.4898,15.577,15.3153,15.3153,15.3153,15.3153,15.3153,15.3153,15.3153,15.3153,15.3153,15.3153,15.3153,15.3153,15.3153,15.3153,15.3153,15.3153,15.3153,15.3153,15.3153,15.3153,15.3153,15.3153,15.3153,15.3153,15.3153,15.3153,15.3153,15.3153,15.3153,15.3153,15.3153,15.3153,15.3153,15.3153,15.3153,15.3153,15.3153,15.3153,15.3153,15.3153,15.3153,15.3153,15.3153,15.3153,15.3153,15.3153,15.3153,15.3153,15.3153,15.3153,15.3153,15.3153,15.3153,15.3153,15.3153,15.3153,15.3153,15.3153,15.3153,15.3153,15.3153,15.3153,15.3153,15.3153,15.3153,15.3153,15.3153,15.3153,15.3153,15.3153,15.3153,15.3153,15.3153,15.3153,15.3153,15.3153,15.3153,15.3153,15.3153,15.3153,15.3153,15.3153,15.3153,15.3153,15.3153,15.3153,15.3153,15.3153,15.3153,15.3153,15.3153,15.3153,15.3153,15.3153,15.3153,15.3153,15.3153,15.3153,15.3153,15.3153,15.3153,15.3153,15.3153,15.3188,15.3188,15.313,15.356,15.4514,15.4107,15.3211,15.3502,15.3851,15.3327,15.3037,15.3967,15.3153,15.3153,15.3153,15.3153,15.3153,15.3153,15.3153,15.3153,15.3153,15.3153,15.3153,15.3153,15.3153,15.3153,15.3153,15.3153,15.3153,15.3153,15.3153,15.3153,15.3153,15.3153,15.3153,15.3153,15.3153,15.3153,15.3153,15.3153,15.3153,15.3153,15.3153,15.3153,15.3153,15.3153,15.3153,15.3153,15.313,15.313,15.2571,15.1931,15.2339,15.2629,15.2978,15.3153,15.3153,15.3153,15.3153,15.3153,15.3153,15.3153,15.3153,15.3153,15.3153,15.3153,15.3153,15.3153,15.3153,15.3153,15.3153,15.3153,15.3153,15.3153,15.3153,15.3153,15.3153,15.3153,15.3153,15.3153,15.3153,15.3153,15.3153,15.3153,15.3153,15.3153,15.3153,15.3153,15.3153,15.3153,15.3153,15.3153,15.3153,15.3153,15.3153,15.3153,15.3153,15.3153,15.3153,15.3153,15.3153,15.3153,15.3153,15.3037,15.3095,15.3037,15.3153,15.3153,15.3153,15.3153,15.2978,15.3037,15.3153,15.3153,15.3153,15.313,15.2897,15.2955,15.3211,15.3758,15.3641,15.3269,15.3095,15.2629,15.2106,15.135,15.2164,15.3153,15.3153,15.3153,15.3153,15.3153,15.3153,15.3153,15.3153,15.3153,15.3153,15.3153,15.3153,15.3153,15.3153,15.3153,15.3153,15.3153,15.3153,15.3153,15.3153,15.3153,15.3153,15.3153,15.3153,15.3153,15.3153,15.3153,15.3153,15.3153,15.2862,15.2804,15.3153,15.2862,15.2629,15.2513,15.2513,15.2397,15.2222,15.1408,15.0908,15.1408,15.1699,15.1931,15.292,15.3153,15.3153,15.3153,15.3153,15.3153,15.3153,15.3153,15.3153,15.3153,15.3153,15.3153,15.3153,15.3153,15.3153,15.3153,15.3153,15.3153,15.3153,15.3153,15.3153,15.3153,15.3153,15.3153,15.3153,15.3153,15.3153,15.3153,15.3153,15.3153,15.3153,15.3153,15.3153,15.3153,15.3153,15.3153,15.3153,15.3153,15.3153,15.3153,15.3153,15.3153,15.3153,15.3153,15.3153,15.3153,15.3153,15.3095,15.292,15.2746,15.2571,15.2513,15.2164,15.2571,15.2804,15.2746,15.2629,15.2106,15.2455,15.3037,15.2397,15.1699,15.2048,15.199,15.1233,15.0943,15.1524,15.1873,15.1408,15.0652,14.9837,15.0245,15.3153,15.3153,15.3153,15.3153,15.3153,15.3153,15.3153,15.3153,15.3153,15.3153,15.3153,15.3153,15.3153,15.3153,15.3153,15.3153,15.3153,15.3153,15.3153,15.3153,15.3153,15.3095,15.3153,15.3153,15.3037,15.3153,15.3153,15.292,15.2955,15.2513,15.1466,15.1117,15.0884,15.0826,15.0884,15.0908,15.085,15.0617,15.0617,15.085,15.1466,15.2141,15.2513,15.313,15.3153,15.3153,15.3153,15.3153,15.3153,15.3153,15.3153,15.3153,15.313,15.313,15.313,15.3153,15.3153,15.3153,15.3153,15.3153,15.3153,15.3153,15.3153,15.3095,15.3037,15.2978,15.2978,15.2978,15.3037,15.3037,15.3095,15.3153,15.3095,15.3095,15.3095,15.3095,15.3153,15.3153,15.3153,15.3153,15.3153,15.3153,15.3095,15.3153,15.3153,15.2978,15.292,15.2804,15.2688,15.2571,15.2397,15.2106,15.1931,15.1815,15.0966,15.0501,15.0617,15.0792,15.1083,15.1117,15.0826,15.0792,15.1024,15.0792,15.0501,15.0443,15.0594,14.9488,14.8849,14.9978,15.0675,15.021,14.9512,14.8849,14.8873,15.3153,15.3153,15.3153,15.3153,15.3153,15.3153,15.3153,15.3153,15.3153,15.3153,15.3153,15.3153,15.3153,15.3153,15.3153,15.3153,15.3153,15.3153,15.3095,15.3153,15.3153,15.292,15.2862,15.2862,15.2548,15.2339,15.2222,15.2257,15.1815,15.1233,15.0036,14.9454,14.9687,14.9571,14.928,14.864,14.8349,14.8291,14.8732,14.9198,14.9954,15.0535,15.1175,15.1582,15.1699,15.1664,15.1699,15.1757,15.1757,15.1873,15.199,15.2397,15.2455,15.2629,15.2978,15.3037,15.3095,15.3095,15.3153,15.3153,15.3153,15.3153,15.228,15.2339,15.2513,15.2513,15.2455,15.2339,15.2339,15.1699,15.1466,15.1582,15.1641,15.1931,15.228,15.2571,15.3153,15.3153,15.3153,15.3153,15.3153,15.3037,15.2397,15.2339,15.228,15.2455,15.2455,15.2106,15.1873,15.1582,15.1292,15.0792,15.0617,15.0559,14.9769,14.9013,14.8897,14.878,14.8989,14.9047,14.9047,14.9105,14.9071,14.9304,14.9745,14.9629,14.9163,14.8349,14.7535,14.8524,14.9163,14.8873,14.864,14.8466,14.8466,15.3153,15.3153,15.3153,15.3095,15.313,15.292,15.292,15.3072,15.3095,15.3095,15.3095,15.3095,15.3153,15.3153,15.313,15.3013,15.292,15.2839,15.2746,15.2746,15.2455,15.2048,15.1931,15.2106,15.1466,15.0675,15.0501,15.085,14.9629,14.9396,14.9396,14.9163,14.8756,14.864,14.8092,14.7278,14.6406,14.658,14.7079,14.7743,14.8441,14.8558,14.943,14.9861,15.0152,15.0094,15.0094,15.0036,14.9919,14.9769,14.9711,15.0327,15.085,15.1292,15.2106,15.2688,15.2862,15.2746,15.2629,15.2513,15.2629,15.2164,15.085,15.0617,15.085,15.1292,15.1292,15.1292,15.1233,15.0501,15.0036,15.021,15.0385,15.0734,15.1233,15.1757,15.2455,15.2629,15.2629,15.2629,15.2513,15.228,15.1524,15.1292,15.1141,15.0943,15.0245,15.0012,14.9547,14.9372,14.9256,14.8815,14.8582,14.878,14.8664,14.8,14.7593,14.6895,14.7045,14.7511,14.7569,14.7651,14.7768,14.8117,14.8815,14.8873,14.8151,14.7394,14.6638,14.6638,14.7278,14.7162,14.7162,14.7278,14.7462,15.1175,15.1873,15.1931,15.2339,15.2862,15.135,15.0617,15.0792,15.1582,15.1931,15.2106,15.2804,15.313,15.2839,15.2339,15.1873,15.1815,15.1175,15.071,15.0617,15.0675,15.0443,15.0268,15.0268,14.9978,14.9861,14.9769,14.9653,14.878,14.8349,14.8059,14.7768,14.7278,14.7104,14.6755,14.6381,14.5566,14.5799,14.6265,14.6871,14.7394,14.8092,14.8698,14.8989,14.9163,14.9163,14.928,14.9338,14.9338,14.9396,14.9396,14.9536,14.9803,14.9978,15.0176,15.0443,15.0675,15.071,15.0734,15.0734,15.0652,15.0652,14.9978,14.9536,14.9803,14.9861,14.9861,14.9861,14.9978,14.9629,14.9396,14.9512,14.9629,14.9629,14.9919,14.9861,15.0385,15.0385,15.0385,15.0443,15.0385,15.0327,15.0036,15.0036,14.9629,14.8756,14.7942,14.7336,14.6696,14.673,14.6614,14.5882,14.5475,14.5558,14.5616,14.6023,14.594,14.5126,14.5566,14.6206,14.6148,14.5533,14.6173,14.6755,14.6696,14.6638,14.658,14.6672,14.6182,14.6007,14.6082,14.5907,14.5683,14.6016,14.6498,15.0443,15.1199,15.0734,15.1117,15.1582,14.9978,14.9338,14.9454,15.0152,15.0594,15.0792,15.1373,15.1873,15.1641,15.0908,15.0559,15.0443,14.9454,14.9338,14.9396,14.9512,14.9105,14.8989,14.9047,14.8582,14.7884,14.7826,14.7651,14.7036,14.5732,14.5616,14.6115,14.5417,14.4985,14.4985,14.545,14.5566,14.5799,14.6323,14.6929,14.6929,14.7453,14.7826,14.7826,14.786,14.7802,14.7802,14.7743,14.7743,14.7743,14.7743,14.8059,14.864,14.8698,14.8931,14.9338,14.9396,14.9338,14.9222,14.8291,14.8151,14.8034,14.7918,14.8,14.8524,14.8349,14.8059,14.7976,14.7419,14.6721,14.6954,14.6837,14.7361,14.7419,14.7651,14.7651,14.8059,14.8059,14.8291,14.8407,14.8756,14.8815,14.8873,14.8873,14.7569,14.6464,14.5882,14.5184,14.4486,14.437,14.4228,14.3381,14.2974,14.2741,14.2974,14.4253,14.4486,14.3614,14.3821,14.4577,14.4028,14.3181,14.3763,14.4602,14.4428,14.4253,14.4195,14.4195,14.4669,14.5498,14.5693,14.5682,14.6176,14.6494,14.6487,15.1083,15.1024,14.9861,14.9304,14.9222,14.9129,14.9047,14.8873,14.9047,14.9163,14.928,14.9571,14.9629,14.9571,14.9512,14.928,14.9222,14.8989,14.8815,14.8674,14.85,14.8267,14.8117,14.7884,14.7303,14.4868,14.5217,14.5184,14.2883,14.3232,14.3348,14.373,14.3904,14.3705,14.3821,14.4926,14.5566,14.5566,14.5625,14.5799,14.5857,14.6032,14.6206,14.6206,14.6265,14.6323,14.6381,14.6381,14.6381,14.6381,14.6265,14.6672,14.7336,14.7453,14.786,14.864,14.8815,14.8931,14.8989,14.6871,14.6206,14.6148,14.6464,14.658,14.7045,14.6497,14.5799,14.5882,14.4802,14.3555,14.2683,14.2276,14.3232,14.3755,14.4162,14.4544,14.53,14.5708,14.6347,14.6696,14.722,14.7743,14.7743,14.7336,14.5708,14.4661,14.3963,14.3206,14.2476,14.2218,14.2159,14.1694,14.1752,14.1461,14.1403,14.2567,14.3148,14.2043,14.1927,14.2774,14.2599,14.289,14.2832,14.2334,14.2857,14.3614,14.2916,14.1985,14.3437,14.4862,14.514,14.5961,14.6981,14.7544,14.7414,14.9827,14.9803,14.9454,14.8291,14.6788,14.6672,14.6638,14.6696,14.6755,14.7104,14.8117,14.8989,14.9338,14.9047,14.8524,14.8092,14.786,14.7336,14.6871,14.6871,14.6929,14.6497,14.6347,14.6347,14.6289,14.5625,14.5425,14.5251,14.3763,14.3381,14.3206,14.3032,14.2857,14.309,14.3614,14.4868,14.5566,14.5566,14.5566,14.5566,14.5566,14.5566,14.5566,14.5566,14.5566,14.5566,14.5566,14.5566,14.5566,14.5566,14.5625,14.5799,14.6032,14.6173,14.6347,14.6522,14.6638,14.6672,14.6614,14.5915,14.5683,14.5566,14.5566,14.5799,14.5741,14.5043,14.4403,14.4137,14.309,14.2243,14.2101,14.1429,14.172,14.172,14.2043,14.2392,14.309,14.3996,14.4486,14.5242,14.5741,14.6323,14.6323,14.6265,14.5043,14.4428,14.3614,14.2683,14.1836,14.1371,14.1054,14.0996,14.1112,14.0589,13.9949,14.1578,14.2916,14.1985,14.2218,14.2425,14.2774,14.4261,14.4519,14.3265,14.2741,14.3032,14.2806,14.2264,14.3022,14.4238,14.5234,14.6167,14.7161,14.7979,14.8012,14.864,14.864,14.8582,14.7453,14.5566,14.5566,14.5566,14.5566,14.5566,14.609,14.6813,14.7477,14.786,14.7685,14.6987,14.6755,14.6638,14.5857,14.5741,14.5566,14.5566,14.5566,14.5566,14.5625,14.5217,14.4694,14.417,14.3996,14.353,14.1494,14.181,14.2534,14.2127,14.2592,14.3614,14.4868,14.545,14.5566,14.5566,14.5566,14.5566,14.5566,14.5566,14.5566,14.5566,14.5566,14.5566,14.5566,14.5566,14.5566,14.5566,14.5625,14.5741,14.5683,14.5741,14.5799,14.5857,14.5799,14.5741,14.5683,14.5566,14.5566,14.5566,14.5625,14.5625,14.4461,14.3614,14.2683,14.1752,14.0589,14.0414,14.0266,14.0557,14.0382,14.0531,14.088,14.152,14.2392,14.3148,14.4253,14.4752,14.5276,14.5309,14.5251,14.481,14.4312,14.3265,14.2334,14.1778,14.1345,14.1287,14.1229,14.1869,14.1636,14.1752,14.2101,14.2476,14.2799,14.309,14.2741,14.2508,14.4112,14.4694,14.3937,14.3148,14.3028,14.275,14.24,14.3046,14.4429,14.5461,14.6295,14.7257,14.8135,14.8598,14.7569,14.7361,14.7394,14.6696,14.5566,14.5566,14.5566,14.5566,14.5566,14.5625,14.5799,14.5741,14.5915,14.5741,14.5857,14.5799,14.5683,14.5566,14.5566,14.5566,14.545,14.5276,14.5217,14.5043,14.4752,14.3788,14.3614,14.225,14.0447,14.0097,13.9949,14.1313,14.1604,14.2476,14.3614,14.4868,14.5508,14.5566,14.5566,14.5566,14.5566,14.5334,14.545,14.545,14.5392,14.5334,14.5392,14.5043,14.481,14.481,14.4752,14.4752,14.4694,14.4926,14.5101,14.5217,14.5334,14.5392,14.5159,14.5159,14.5392,14.5566,14.5566,14.5566,14.5508,14.4403,14.3265,14.2301,14.1403,14.0007,13.8902,13.8204,13.9161,13.96,14.024,14.0589,14.1229,14.1927,14.2857,14.3439,14.417,14.4985,14.5217,14.5192,14.4752,14.4926,14.4021,14.3672,14.2916,14.2276,14.2043,14.1985,14.2683,14.2799,14.3032,14.3206,14.309,14.3265,14.3788,14.3439,14.2974,14.2857,14.3763,14.3265,14.3472,14.3022,14.2671,14.3479,14.4296,14.5009,14.5541,14.6168,14.6949,14.737,14.8038,14.771,14.609,14.609,14.5915,14.5566,14.5566,14.5566,14.5566,14.5566,14.5566,14.5566,14.5566,14.5566,14.5566,14.5566,14.5566,14.5566,14.5566,14.5566,14.5217,14.4752,14.4345,14.4461,14.4345,14.4112,14.3672,14.373,14.3239,14.1668,14.0007,13.8902,14.0214,14.1461,14.2508,14.3705,14.4868,14.5566,14.5566,14.5566,14.5566,14.545,14.4752,14.4926,14.4752,14.3996,14.309,14.3788,14.3439,14.2857,14.2857,14.2916,14.3032,14.3148,14.3705,14.4112,14.4286,14.4835,14.4926,14.4403,14.4228,14.4661,14.5217,14.5566,14.5217,14.5159,14.4403,14.3265,14.2741,14.1578,14.0505,13.9833,14.0065,13.9716,13.9716,14.0356,14.088,14.152,14.2741,14.3705,14.417,14.4577,14.5101,14.5217,14.5101,14.5159,14.545,14.5392,14.5043,14.4461,14.3821,14.3414,14.2916,14.3032,14.245,14.2683,14.3032,14.3439,14.373,14.4519,14.4669,14.4618,14.4444,14.4259,14.4011,14.3996,14.3762,14.3607,14.4697,14.5724,14.5632,14.5682,14.6168,14.6291,14.6322,14.6652,14.6871,14.5566,14.5566,14.5566,14.5566,14.5566,14.5566,14.5566,14.5566,14.5566,14.5566,14.5566,14.5566,14.5566,14.5566,14.5566,14.5566,14.5566,14.5566,14.5334,14.4985,14.4577,14.4403,14.4519,14.4519,14.4461,14.4079,14.3439,14.2076,14.024,13.9743,14.088,14.1985,14.3148,14.4636,14.5276,14.5508,14.5566,14.5566,14.5566,14.5392,14.4985,14.4868,14.545,14.4253,14.373,14.3614,14.2799,14.236,14.172,14.1752,14.1752,14.1894,14.2334,14.2799,14.2857,14.3555,14.3497,14.2974,14.2857,14.3148,14.3672,14.3788,14.4054,14.3788,14.309,14.2625,14.2134,14.1287,14.024,13.9367,14.0124,14.0124,14.0679,14.1436,14.1985,14.2857,14.3821,14.4403,14.4752,14.5101,14.5276,14.545,14.5276,14.5276,14.5334,14.5217,14.4985,14.4694,14.4345,14.3996,14.3614,14.2916,14.236,14.2741,14.2974,14.3555,14.4021,14.481,14.5026,14.5475,14.5948,14.6077,14.5843,14.5349,14.4952,14.4677,14.5083,14.5296,14.5529,14.5757,14.5906,14.6054,14.5937,14.5518,14.5566,14.5566,14.5566,14.5508,14.5334,14.5276,14.5217,14.5043,14.4926,14.5159,14.481,14.5159,14.5217,14.5334,14.5392,14.5566,14.5566,14.5566,14.5566,14.545,14.4868,14.4461,14.4926,14.5076,14.4054,14.3705,14.2508,14.1054,14.0388,14.0938,14.1255,14.1778,14.2767,14.4195,14.5159,14.5508,14.5566,14.5566,14.5566,14.5566,14.5508,14.5309,14.5276,14.5392,14.4868,14.4286,14.3614,14.3148,14.2683,14.1752,14.1578,14.1461,14.1487,14.1429,14.1429,14.1429,14.1313,14.1345,14.1429,14.1487,14.1694,14.2127,14.2069,14.181,14.2101,14.1952,14.1604,14.0124,14.0737,14.0563,14.0007,14.0124,14.0272,14.1319,14.2599,14.3588,14.3963,14.4752,14.5101,14.5334,14.4079,14.4519,14.481,14.5043,14.5251,14.5159,14.5043,14.4868,14.4636,14.417,14.3821,14.3323,14.2683,14.2974,14.3323,14.3381,14.3788,14.4137,14.4436,14.456,14.4543,14.4507,14.5649,14.6211,14.686,14.6445,14.5159,14.4552,14.4805,14.473,14.435,14.4771,14.5338,14.5279,14.48,14.5566,14.5566,14.5566,14.4985,14.417,14.4054,14.3497,14.2592,14.2625,14.2625,14.2625,14.3497,14.4021,14.4286,14.4926,14.5508,14.5566,14.545,14.5334,14.4985,14.3672,14.2625,14.2218,14.1578,14.1403,14.1927,14.1112,14.1054,14.0007,14.0298,14.088,14.1894,14.309,14.4345,14.5367,14.5566,14.5566,14.5566,14.5566,14.5566,14.5276,14.4694,14.4519,14.5392,14.3555,14.309,14.3497,14.2883,14.2218,14.1636,14.0938,14.0272,14.0214,14.0214,14.0214,14.0039,13.9103,13.9367,13.9833,14.0298,14.0705,14.1371,14.1636,14.1604,14.1545,14.1313,14.1778,14.2948,14.3239,14.3006,14.1636,14.3297,14.3414,14.3239,14.3763,14.5101,14.4868,14.4868,14.5043,14.4403,14.3265,14.2916,14.2974,14.309,14.3414,14.3381,14.3439,14.3414,14.3472,14.3265,14.3555,14.309,14.2916,14.3381,14.309,14.2916,14.3006,14.3428,14.3709,14.3996,14.3704,14.3535,14.3268,14.3698,14.4765,14.5415,14.4873,14.4048,14.3479,14.3001,14.2795,14.2676,14.2676,14.2676,14.2646,14.5566,14.5566,14.5566,14.5251,14.4577,14.3963,14.3265,14.2625,14.2011,14.1752,14.1894,14.236,14.2683,14.2916,14.3497,14.3672,14.3672,14.373,14.3763,14.3555,14.245,14.1752,14.1694,14.1229,14.0763,14.0589,14.0007,13.96,13.9807,14.0356,14.152,14.2625,14.3904,14.4868,14.545,14.5566,14.5566,14.5566,14.5566,14.5566,14.545,14.5043,14.4926,14.5217,14.4403,14.3614,14.3672,14.2857,14.2392,14.172,14.1054,14.0763,14.0763,14.0822,14.0731,14.0705,14.0298,14.0182,14.0531,14.0039,14.0097,14.0705,14.0065,13.9891,13.9801,13.9917,13.9917,14.0647,14.1578,14.1552,14.1229,14.1785,14.2308,14.2134,14.2799,14.3439,14.3614,14.3614,14.3555,14.3265,14.2334,14.1752,14.1461,14.1552,14.1636,14.1752,14.181,14.1927,14.2043,14.2567,14.3439,14.2974,14.2625,14.2392,14.1345,14.1319,14.1384,14.2264,14.2873,14.3292,14.3399,14.3964,14.3562,14.2437,14.2203,14.3106,14.2761,14.2765,14.1868,14.118,14.0881,14.0522,14.0222,13.9983,13.9893,14.5566,14.5566,14.5566,14.545,14.5043,14.3846,14.3206,14.309,14.152,14.1171,14.1287,14.1403,14.1403,14.152,14.1578,14.1752,14.2101,14.2159,14.2043,14.1952,14.1461,14.1229,14.1054,14.0557,14.0789,14.0647,13.9716,13.9309,14.024,14.1345,14.2508,14.3614,14.481,14.545,14.56,14.5699,14.5832,14.5866,14.6065,14.5998,14.5899,14.5716,14.5741,14.545,14.5334,14.481,14.4228,14.3937,14.3497,14.2508,14.2159,14.2218,14.2392,14.2185,14.2043,14.1927,14.1604,14.1229,14.1403,14.0647,14.0124,13.9574,13.9135,13.8495,13.8088,13.7998,13.8611,13.8669,13.8786,13.8669,13.8495,14.024,14.024,14.0505,14.1403,14.1985,14.1836,14.1487,14.1022,14.1054,14.1054,14.0763,14.0776,14.0782,14.1085,14.1388,14.1581,14.1799,14.1368,14.1817,14.2503,14.2348,14.2257,14.1332,14.0374,14.0735,14.081,14.2018,14.1921,14.2393,14.2713,14.3788,14.3869,14.2409,14.1855,14.2012,14.1716,14.1299,14.1,14.118,13.9863,13.8547,13.9085,13.9564,13.8996,14.5566,14.5566,14.5566,14.4926,14.3788,14.2683,14.2218,14.172,13.9452,13.96,13.9891,14.0007,14.0414,14.0388,14.1229,14.1694,14.1636,14.1604,14.1287,14.1171,14.0414,14.0124,13.9833,13.9309,13.9161,13.9949,13.9458,14.0013,14.1203,14.2625,14.3363,14.3887,14.5018,14.5674,14.5766,14.6065,14.6395,14.6461,14.6889,14.7014,14.6527,14.6428,14.6164,14.5866,14.5733,14.5433,14.5251,14.5101,14.5101,14.4985,14.3996,14.4054,14.4403,14.4112,14.3381,14.3323,14.2508,14.2218,14.2159,14.1636,14.0938,13.9807,13.9458,13.896,13.8146,13.7913,13.8262,13.8786,13.9135,13.9484,14.0906,14.0789,14.0938,14.1229,14.1403,14.1752,14.1313,13.9626,13.8902,13.8701,13.9236,13.9537,13.9691,14.0295,14.0688,14.1086,14.1529,14.1628,14.0834,14.0634,14.0821,14.0752,14.1852,14.1512,14.181,14.214,14.1515,14.1741,14.0804,14.094,14.0924,14.1865,14.2385,14.1531,14.1656,14.1807,14.1718,14.106,14.0941,14.1419,14.0402,13.8487,13.8367,13.8936,13.9025,14.5566,14.5566,14.5566,14.5217,14.4519,14.3323,14.2741,14.2301,14.0647,14.024,14.0705,14.0822,14.0763,14.0822,14.0705,14.0705,14.0531,14.0007,13.9716,13.9542,13.9135,13.8728,13.8495,13.8172,13.803,13.8701,13.9399,14.0205,14.1409,14.2743,14.4007,14.4744,14.562,14.6205,14.6725,14.7079,14.7152,14.7217,14.7479,14.7603,14.7217,14.7119,14.6922,14.6725,14.6329,14.5899,14.5633,14.5566,14.5566,14.5276,14.4403,14.4228,14.5101,14.437,14.4112,14.4461,14.4054,14.3821,14.3497,14.3148,14.2392,14.1901,14.0447,13.9632,13.8992,13.8146,13.8262,13.8553,13.8786,13.8902,13.9542,13.9716,13.9626,13.9626,13.9568,13.9658,13.9484,13.8611,13.7891,13.8264,13.8359,13.8515,13.8887,13.9848,14.0388,14.089,14.1328,14.1272,14.0482,14.0592,14.0369,14.0622,14.1696,14.2506,14.304,14.3022,14.2418,14.1839,14.1017,14.0642,14.062,14.0895,14.1109,14.1413,14.1717,14.1898,14.1479,14.0941,14.0582,14.0043,13.9205,13.8188,13.741,13.6991,13.711,14.5566,14.5566,14.5566,14.5566,14.5392,14.4228,14.3788,14.3937,14.2392,14.172,14.2011,14.1778,14.1662,14.1604,14.0763,13.9981,13.9748,13.905,13.803,13.7882,13.7824,13.7824,13.7824,13.7824,13.803,13.8553,13.9399,14.0449,14.1709,14.336,14.4581,14.5876,14.6609,14.7086,14.7636,14.7766,14.787,14.7811,14.8065,14.813,14.7968,14.7811,14.7675,14.7276,14.6849,14.6197,14.5733,14.5566,14.5276,14.4694,14.3821,14.3439,14.4112,14.3614,14.3497,14.4079,14.4403,14.4519,14.4486,14.3555,14.3148,14.2683,14.1319,14.0156,14.0097,13.9077,13.8379,13.8204,13.7971,13.794,13.8146,13.7882,13.8056,13.8172,13.8088,13.8061,13.8013,13.8044,13.8421,13.8859,13.9078,13.9292,13.9847,14.0266,14.0778,14.0691,14.0812,14.0814,14.093,14.1192,14.1207,14.1247,14.2237,14.3024,14.3619,14.3946,14.3523,14.3063,14.1879,14.12,14.1413,14.1656,14.1565,14.1686,14.1778,14.1419,14.106,14.0462,13.9504,13.8188,13.7081,13.711,13.6691,13.5076,13.4776,14.5566,14.5566,14.5566,14.5566,14.5392,14.4286,14.4345,14.4752,14.2974,14.2476,14.309,14.2276,14.2159,14.1752,14.1694,14.088,13.9807,13.9516,13.8786,13.8088,13.7824,13.7824,13.7824,13.7824,13.8352,13.9262,13.9574,14.1277,14.2993,14.4106,14.5578,14.6784,14.7288,14.761,14.7968,14.8357,14.8583,14.862,14.9002,14.9002,14.868,14.8551,14.813,14.7348,14.6922,14.6494,14.6031,14.54,14.4585,14.2276,14.1952,14.2134,14.2159,14.2127,14.2127,14.2301,14.2508,14.245,14.2218,14.2334,14.2043,14.2043,14.1694,14.152,14.0938,13.9891,13.9225,13.9283,13.8437,13.803,13.794,13.7855,13.7855,13.7855,13.7828,13.808,13.8488,13.8734,13.8984,13.9664,13.9878,13.9819,14.0362,14.1324,14.2469,14.1547,14.194,14.1881,14.1787,14.1666,14.1538,14.1733,14.2484,14.3417,14.3951,14.4454,14.4028,14.3591,14.2132,14.1626,14.1868,14.1898,14.1898,14.1599,14.106,14.0701,14.0522,13.9684,13.8517,13.744,13.6662,13.6662,13.6483,13.4716,13.4357,14.5566,14.5566,14.5566,14.5566,14.5508,14.4985,14.5134,14.5276,14.4403,14.4253,14.4577,14.417,14.3963,14.3879,14.309,14.2101,14.088,14.0097,13.9018,13.7971,13.7824,13.7824,13.7797,13.7855,13.8309,13.9207,13.9971,14.1127,14.2563,14.4436,14.5592,14.671,14.7683,14.8427,14.8777,14.9162,14.9291,14.9323,14.9483,14.9579,14.9291,14.9259,14.8841,14.8518,14.7968,14.774,14.7139,14.5832,14.4236,14.26,14.1543,14.1292,14.1552,14.1054,14.0906,14.172,14.1752,14.1694,14.1752,14.1752,14.1752,14.1636,14.0938,14.0705,14.0414,13.9426,13.9077,13.9516,13.8553,13.832,13.8611,13.8204,13.7913,13.7887,13.8143,13.8457,13.8707,13.9171,13.9757,14.0282,14.0558,14.062,14.1107,14.1739,14.219,14.2371,14.2703,14.2522,14.243,14.1953,14.1652,14.1739,14.2308,14.2666,14.3112,14.3141,14.2791,14.2733,14.1837,14.1777,14.1898,14.1898,14.1898,14.1659,14.0641,13.9983,14.0103,13.9803,13.8757,13.7979,13.6602,13.6004,13.5315,13.3998,13.4657,14.4577,14.4577,14.4544,14.4577,14.4577,14.4577,14.4519,14.4577,14.4461,14.4228,14.4461,14.4577,14.4253,14.4461,14.3439,14.245,14.1112,14.0156,13.905,13.794,13.7824,13.7824,13.7797,13.7954,13.8484,13.9191,14.002,14.0849,14.1666,14.4104,14.5729,14.6353,14.8149,14.9227,14.9579,14.9611,14.9642,14.9642,14.9642,14.9642,14.9583,14.9343,14.9132,14.8913,14.7953,14.7423,14.7107,14.541,14.381,14.2709,14.138,14.0847,14.1266,14.0269,13.9823,14.0362,14.0557,14.0615,14.0647,14.0589,14.0848,14.0996,14.0388,13.9923,14.0156,13.9077,13.8902,13.9225,13.8611,13.8204,13.8818,13.832,13.7913,13.7918,13.817,13.8609,13.9078,13.9633,14.0282,14.0988,14.12,14.1383,14.1656,14.1927,14.1957,14.1957,14.1988,14.1957,14.2016,14.1777,14.1717,14.1838,14.1928,14.2078,14.2138,14.2018,14.1958,14.2018,14.2018,14.2018,14.1898,14.1898,14.1898,14.1838,14.0941,14.0582,14.0462,14.0163,13.9923,13.9475,13.8697,13.8487,13.6871,13.5674,13.6572,14.1952,14.1894,14.1985,14.2101,14.2159,14.2127,14.2218,14.2101,14.2101,14.2218,14.2159,14.2301,14.2218,14.2011,14.2159,14.1287,14.0065,13.9748,13.9077,13.8146,13.7824,13.7824,13.7887,13.8269,13.8922,13.9664,14.0027,14.0992,14.2445,14.4107,14.5758,14.7159,14.8443,14.9583,14.9284,14.9615,14.9495,14.9315,14.9435,14.9435,14.9375,14.8418,14.7599,14.7001,14.5982,14.5163,14.4724,14.4024,14.3351,14.2727,14.1045,14.0423,14.0595,13.9617,13.8655,13.832,13.8088,13.8088,13.8056,13.8262,13.8669,13.9716,13.9748,14.0272,14.0705,13.9833,13.9341,13.9632,13.8553,13.7913,13.8088,13.7913,13.7887,13.7797,13.817,13.8766,13.9664,14.0033,14.0589,14.1504,14.1838,14.1868,14.1838,14.1898,14.1898,14.1898,14.1898,14.1898,14.1898,14.1898,14.1898,14.1898,14.1898,14.2078,14.2437,14.2317,14.2078,14.2138,14.2257,14.2078,14.1898,14.1898,14.1898,14.1778,14.136,14.13,14.112,14.0641,14.0342,14.0582,14.106,14.1539,14.0881,13.9803,13.9803,14.1752,14.1752,14.1752,14.1752,14.1752,14.1752,14.1752,14.1752,14.1752,14.1752,14.1694,14.1694,14.1752,14.1752,14.1752,14.0938,13.9865,13.9748,13.9108,13.7971,13.7824,13.7824,13.7887,13.8107,13.8766,13.9788,14.0374,14.1223,14.228,14.3564,14.4553,14.5547,14.7401,14.8059,14.7341,14.794,14.7999,14.7281,14.7313,14.7222,14.7102,14.6774,14.641,14.6163,14.5682,14.5287,14.4921,14.3401,14.2453,14.2099,14.1223,14.0685,14.0626,13.9652,13.8578,13.7722,13.6575,13.6025,13.6575,13.6871,13.7247,13.8262,13.8553,13.8786,13.9018,13.896,13.8992,13.9458,13.8553,13.8146,13.8701,13.8379,13.8044,13.8332,13.8797,13.9602,14.0374,14.0926,14.1413,14.1656,14.1898,14.1898,14.1898,14.1898,14.1898,14.1898,14.1898,14.1898,14.1898,14.1898,14.1898,14.1898,14.1898,14.2138,14.2556,14.2437,14.2228,14.2257,14.2317,14.2078,14.1898,14.1898,14.2078,14.1958,14.2138,14.2018,14.3035,14.2257,14.1719,14.1778,14.2227,14.2257,14.2018,14.1719,14.2138,14.0499,14.0499,14.0499,14.0499,14.0531,14.0499,14.0499,14.044,14.0499,14.044,14.0499,14.0499,14.0499,14.0473,14.0531,14.0007,13.9225,13.9167,13.8669,13.794,13.7824,13.7824,13.7828,13.8017,13.8766,13.9912,14.0834,14.1474,14.2047,14.3244,14.3873,14.4201,14.6056,14.6564,14.5965,14.6623,14.6774,14.5877,14.5817,14.5817,14.5757,14.5398,14.5159,14.5159,14.48,14.4321,14.3993,14.2257,14.112,14.0611,14.0639,14.0683,14.0645,14.0042,13.9261,13.8403,13.682,13.635,13.6833,13.6685,13.674,13.7045,13.6866,13.6692,13.666,13.6983,13.7506,13.7654,13.7971,13.7855,13.8442,13.8187,13.8183,13.8211,13.889,13.9504,14.0379,14.1139,14.1626,14.1838,14.1898,14.1898,14.1898,14.1898,14.1898,14.1898,14.1898,14.1898,14.1898,14.1898,14.1898,14.1898,14.1898,14.2018,14.2197,14.2138,14.2018,14.2078,14.2078,14.1898,14.1898,14.1958,14.2257,14.2437,14.2736,14.3275,14.456,14.48,14.4441,14.4321,14.3723,14.3095,14.2497,14.2856,14.3603,13.7855,13.7855,13.7855,13.7855,13.7824,13.7855,13.7855,13.803,13.7971,13.8146,13.8347,13.8056,13.8262,13.8088,13.8289,13.803,13.7971,13.7913,13.7797,13.7797,13.7739,13.7681,13.7855,13.8359,13.9015,13.9909,14.12,14.1807,14.1958,14.3035,14.3694,14.3993,14.5099,14.5638,14.5638,14.5638,14.5757,14.5458,14.5398,14.5518,14.5638,14.4441,14.3873,14.3753,14.2556,14.136,14.0222,14.0043,13.9385,13.8398,13.9206,14.0222,14.0837,14.0832,14.0558,13.9881,13.9642,13.9274,13.857,13.7629,13.6796,13.6716,13.5245,13.4957,13.5159,13.5652,13.5765,13.5327,13.6285,13.7215,13.6611,13.758,13.8132,13.737,13.7692,13.8589,13.966,14.0532,14.1112,14.1448,14.1479,14.1778,14.1838,14.1479,14.13,14.136,14.1539,14.1599,14.1599,14.1778,14.1898,14.1898,14.1898,14.1898,14.1898,14.1898,14.1838,14.1898,14.1898,14.1898,14.1898,14.1419,14.1659,14.2197,14.2377,14.2556,14.3723,14.4321,14.4501,14.474,14.5159,14.456,14.3753,14.3215,14.4261,13.5296,13.5296,13.5296,13.5354,13.5296,13.5296,13.5819,13.6607,13.6634,13.7041,13.7707,13.7824,13.7824,13.7824,13.7824,13.7824,13.7707,13.7014,13.7041,13.7739,13.6983,13.7041,13.7802,13.8076,13.8515,13.9233,14.0159,14.1048,14.1837,14.2317,14.2556,14.2616,14.3783,14.4053,14.3454,14.4022,14.3993,14.3244,14.3124,14.3155,14.3124,14.2736,14.2556,14.2197,14.0342,13.8876,13.8517,13.8457,13.8278,13.7919,13.8218,13.9445,14.1267,14.12,14.0681,13.9858,13.838,13.758,13.8074,13.7926,13.7951,13.8559,13.7409,13.6432,13.6094,13.5593,13.4939,13.4488,13.5005,13.5238,13.5197,13.6354,13.7321,13.7057,13.7478,13.8044,13.8461,13.867,13.8938,13.9236,13.9295,13.9235,13.9145,13.9175,13.9235,13.9116,14.0043,14.0552,14.0701,14.124,14.1898,14.1898,14.1719,14.1659,14.1539,14.1,14.0821,14.1479,14.1719,14.1838,14.1778,14.0941,14.0761,14.1449,14.1719,14.1838,14.2257,14.2916,14.3215,14.3334,14.3813,14.3962,14.3424,14.3215,14.3035,13.4132,13.4132,13.4132,13.4132,13.4132,13.4132,13.4629,13.5327,13.5385,13.5819,13.6401,13.6517,13.675,13.7188,13.6692,13.6486,13.6401,13.5734,13.5761,13.6343,13.5703,13.5885,13.6681,13.6771,13.7237,13.8038,13.8587,13.9646,14.103,14.118,14.1419,14.1958,14.2736,14.2796,14.2197,14.2736,14.2736,14.1958,14.1449,14.118,14.118,14.0701,14.0432,14.0342,13.8697,13.762,13.7141,13.7081,13.6902,13.6423,13.6452,13.7649,14.0043,14.0012,14.0007,14.0415,13.9138,13.8455,13.8894,13.8627,13.8654,13.9119,13.7965,13.6896,13.6653,13.5854,13.4998,13.4431,13.4426,13.4193,13.4085,13.4631,13.5666,13.6111,13.6731,13.7262,13.768,13.7799,13.7799,13.7799,13.7799,13.7799,13.7979,13.7799,13.7799,13.7919,13.8577,13.9145,13.9325,13.9803,14.0252,14.0402,14.0432,14.0432,14.0462,13.9983,14.0163,14.0941,14.1659,14.1838,14.1898,14.124,14.0881,14.1599,14.1539,14.1719,14.2706,14.3244,14.3334,14.3275,14.2556,14.2437,14.136,14.2377,14.2138,13.3958,13.39,13.39,13.3783,13.39,13.3842,13.3869,13.4016,13.4016,13.4132,13.4307,13.4249,13.4772,13.5765,13.4629,13.4074,13.4191,13.4132,13.4191,13.4307,13.4132,13.4322,13.4871,13.4901,13.5596,13.6823,13.7061,13.8014,13.9684,13.9834,14.0522,14.1599,14.1599,14.1659,14.1539,14.1539,14.1659,14.13,14.0342,13.9893,13.9684,13.8398,13.7708,13.7942,13.7794,13.7251,13.6233,13.5996,13.537,13.4058,13.4118,13.5226,13.756,13.7889,13.9206,14.1449,14.1778,14.1506,14.0871,13.9887,13.8992,13.8358,13.7471,13.6315,13.6345,13.5989,13.5221,13.41,13.4836,13.469,13.2947,13.3264,13.388,13.4802,13.5446,13.6274,13.738,13.7201,13.762,13.744,13.7261,13.7201,13.744,13.768,13.738,13.738,13.762,13.7739,13.7799,13.7919,13.8158,13.8158,13.8098,13.7979,13.8188,13.9145,13.9893,14.0641,14.1539,14.1898,14.1898,14.1838,14.1719,14.1659,14.106,14.1329,14.2885,14.3184,14.2556,14.1958,14.106,14.0761,13.9863,14.124,14.118,13.1282,13.1282,13.1312,13.1312,13.1282,13.1312,13.1836,13.2681,13.2709,13.3232,13.4074,13.4132,13.3814,13.3232,13.2914,13.329,13.39,13.3174,13.3232,13.3958,13.3116,13.3478,13.4812,13.4901,13.5326,13.6078,13.6557,13.7092,13.7627,13.8132,13.8577,13.8876,13.8936,13.8936,13.8936,13.8966,13.8936,13.8936,13.8577,13.8398,13.8157,13.6153,13.5785,13.7212,13.7407,13.7224,13.6858,13.6886,13.5986,13.4052,13.3938,13.5135,13.762,13.7799,13.9056,14.1539,14.1898,14.1807,14.1656,14.1267,14.1028,14.0757,13.9654,13.8342,13.6943,13.5816,13.4542,13.327,13.3796,13.4377,13.3512,13.3595,13.3801,13.4099,13.4334,13.4597,13.5044,13.4987,13.5222,13.5016,13.5749,13.5016,13.5104,13.531,13.5432,13.5492,13.6002,13.6452,13.6483,13.7261,13.7799,13.7799,13.7829,13.8277,13.9205,13.9773,14.0432,14.106,14.1479,14.1898,14.1898,14.1,14.0522,14.112,13.9624,13.9475,14.0492,13.9175,13.8008,13.7799,13.711,13.6452,13.7829,13.756,13.7739,13.1806,13.1806,13.1254,13.0731,13.0235,13.0235,13.0672,13.137,13.137,13.1836,13.262,13.3667,13.3376,13.2215,13.2185,13.2243,13.2446,13.172,13.1836,13.2387,13.1778,13.2109,13.3262,13.3439,13.3859,13.4661,13.5608,13.5933,13.5899,13.7086,13.7799,13.7799,13.7799,13.7799,13.7799,13.7799,13.7799,13.7799,13.7321,13.7646,13.8566,13.7434,13.7288,13.8412,13.8572,13.8198,13.7431,13.7759,13.7462,13.6331,13.6614,13.8068,14.0524,13.9765,13.9917,14.1312,14.0788,14.0639,14.1554,14.1552,14.1854,14.2428,14.0397,13.9176,13.8938,13.6733,13.5485,13.5413,13.5427,13.5529,13.5929,13.4779,13.4574,13.5643,13.4719,13.4605,13.5816,13.6162,13.6432,13.688,13.7273,13.7783,13.8073,13.7111,13.6009,13.5727,13.7098,13.7793,13.6868,13.7321,13.7799,13.7917,13.8702,13.9269,13.9023,13.9504,14.0163,14.0941,14.1539,14.1898,14.1838,14.112,14.0761,14.0821,14.0402,13.9803,13.8786,13.7948,13.729,13.6902,13.5973,13.5554,13.5525,13.6124,13.5944,13.3881,13.3734,13.2511,13.1402,13.0413,13.0411,13.0498,13.0556,13.0584,13.0526,13.0847,13.2941,13.329,13.2448,13.236,13.1836,13.0905,13.0614,13.0672,13.0614,13.044,13.0768,13.1419,13.1419,13.1918,13.3141,13.4297,13.4587,13.4212,13.6303,13.738,13.744,13.744,13.738,13.744,13.738,13.7497,13.7762,13.6793,13.7696,14.0345,14.0541,14.0682,14.1014,14.104,14.0142,13.8871,13.9427,13.9962,13.9797,14.0721,14.2255,14.365,14.22,14.0992,14.0703,13.8965,13.8673,14.0561,14.1008,14.1649,14.2663,14.0035,13.9316,14.1355,13.8227,13.7196,13.8891,13.812,13.7559,13.8695,13.6353,13.5915,13.8374,13.6586,13.5832,13.8755,13.9619,14.0056,14.1238,14.1752,14.3185,14.2792,14.098,13.9069,13.8092,13.9602,14.0305,13.8805,13.8787,13.9283,13.9675,14.0705,14.122,14.024,14.0004,14.0876,14.0908,14.148,14.1778,14.1898,14.1838,14.1898,14.1539,14.1539,14.1,14.0282,13.9714,13.9025,13.744,13.6902,13.7141,13.738,13.7081,13.6243,13.2625,13.2566,13.1741,13.1241,13.1094,13.1522,13.175,13.1866,13.2825,13.2709,13.1924,13.2332,13.3,13.364,13.3667,13.3523,13.326,13.326,13.2709,13.1808,13.175,13.1824,13.1948,13.1947,13.2558,13.3624,13.4037,13.4066,13.397,13.4537,13.4776,13.4836,13.4836,13.4836,13.4836,13.4776,13.5629,13.7357,13.8736,13.9837,14.0489,14.0541,14.1896,14.4462,14.4766,14.5102,14.5808,14.6139,14.4867,14.218,14.2236,14.1783,14.0544,13.994,13.9316,13.864,13.8092,13.8063,13.8586,14.0103,14.1271,14.155,14.0825,14.0936,14.1826,13.8553,13.6907,13.8255,13.7551,13.7154,13.829,13.7696,13.8122,13.988,13.9475,13.9592,14.1513,14.1922,14.1872,14.1587,14.3209,14.3425,14.1403,14.1229,14.1363,14.0625,14.1346,14.186,14.1065,14.2317,14.4218,14.5754,14.6842,14.6502,14.6537,14.5062,14.4005,14.4166,14.3002,14.2229,14.205,14.1959,14.1929,14.202,14.196,14.154,14.0252,13.9204,13.8035,13.6835,13.5761,13.5016,13.5076,13.5076,13.4537,13.3893,13.3745,13.2594,13.2122,13.2063,13.1496,13.1312,13.1549,13.4685,13.5756,13.5283,13.3969,13.3662,13.4021,13.3779,13.3658,13.3719,13.4835,13.4507,13.324,13.4539,13.4247,13.2743,13.2655,13.2917,13.3512,13.4106,13.4279,13.4084,13.5615,13.6061,13.5538,13.6475,13.6934,13.6934,13.6934,13.7559,13.8732,14.0297,14.1545,14.2611,14.3263,14.4511,14.647,14.7908,14.8231,14.7328,14.7858,14.6981,14.4276,14.4836,14.4797,14.3878,14.288,14.1773,14.0643,13.9605,13.9467,14.0507,14.1747,14.2573,14.3111,14.1203,14.091,14.3381,14.0013,13.8502,14.0081,13.8727,13.8339,13.9648,13.8378,13.8391,14.0717,13.949,13.9577,14.1682,14.2723,14.3242,14.3558,14.5563,14.6458,14.4973,14.4427,14.4149,14.543,14.4052,14.364,14.3845,14.618,14.788,14.7157,14.7857,14.8044,14.6961,14.5795,14.5186,14.5047,14.3897,14.3248,14.3105,14.3162,14.319,14.3105,14.3162,14.2643,14.1381,13.9677,13.8084,13.6735,13.5147,13.4115,13.3938,13.3938,13.4729,13.5282,13.5192,13.3713,13.3272,13.345,13.1742,13.1243,13.2007,13.5705,13.7876,13.8497,13.6201,13.5163,13.5102,13.4661,13.4454,13.4602,13.6114,13.6219,13.5092,13.7061,13.664,13.4336,13.4158,13.4156,13.4352,13.514,13.5135,13.4744,13.7078,13.8071,13.752,13.9129,14.0304,14.083,14.0856,14.1255,14.2087,14.2592,14.384,14.5915,14.7102,14.7562,14.7322,14.9995,14.9905,14.633,14.7782,14.7668,14.5715,14.6699,14.7469,14.7698,14.5419,14.4029,14.3096,14.1098,14.0768,14.2587,14.2785,14.3397,14.4509,14.1006,14.0097,14.3621,14.0879,13.9627,14.1287,13.9686,13.9373,14.0473,13.829,13.7983,14.066,13.8919,13.8462,14.1794,14.3269,14.4348,14.5141,14.7636,14.9322,14.8677,14.6999,14.6601,14.8921,14.6823,14.5472,14.6924,14.9435,14.9142,14.6587,14.6882,14.7047,14.6276,14.5041,14.4635,14.4762,14.4274,14.3417,14.3391,14.3391,14.3417,14.3819,14.3749,14.3444,14.2269,14.0703,13.9454,13.8045,13.6652,13.5343,13.5371,13.4803,13.544,13.2674,13.2677,13.2905,13.4004,13.5664,13.4923,13.6186,13.8551,13.4347,0.0,0.0,13.658,13.8368,14.0952,14.0897,14.0869,14.073,13.8929,13.8395,13.8767,13.6201,13.6641,13.9626,13.8854,13.9345,14.0838,13.9386,13.7923,13.6673,13.5417,13.5608,13.7159,13.7614,13.9317,14.2178,14.2282,14.4723,14.9322,14.8627,14.8852,15.0389,15.0676,14.969,14.7233,15.0018,15.0116,14.7114,14.9514,14.8663,14.3772,14.3706,14.2519,13.972,13.8024,13.7822,13.9174,13.7873,13.7168,13.7545,13.7633,13.8469,14.0523,13.9857,13.9468,13.9647,13.6956,13.5405,13.5835,13.5469,13.5843,13.7218,13.7781,13.8934,14.0622,14.14,14.2242,14.4003,14.4708,14.4354,14.4335,14.6031,14.6561,14.4082,14.4473,14.5483,14.6105,14.6368,14.7217,14.8536,14.8311,14.791,14.7767,14.7139,14.7532,14.7743,14.6023,14.4471,14.5075,14.2962,14.1073,14.0931,14.0931,14.0931,14.1348,14.2041,14.2125,14.1192,14.1271,14.1421,14.0194,13.9603,13.9367,13.9179,13.7515,13.6363,13.0982,13.1014,13.102,13.1622,0.0,13.3142,13.6571,14.1572,13.848,13.6649,13.5944,13.6162,13.6778,13.7779,13.8519,13.961,14.0918,14.0811,14.0914,14.1223,14.0853,14.0345,13.9612,13.9095,13.9285,13.9895,13.9584,13.9577,14.0002,14.0793,14.1746,14.2891,14.3231,14.4298,14.6029,14.6119,14.7542,15.0521,14.9074,14.8285,14.8285,14.8943,14.8614,14.7299,15.0061,0.0,0.0,0.0,0.0,0.0,0.0,0.0,0.0,13.7416,0.0,13.7287,13.4614,13.3369,13.4035,13.41,13.5525,13.8799,13.9085,13.7994,13.5421,13.5397,13.4805,13.3358,13.3884,13.4607,13.5331,13.5988,13.669,13.7369,13.8093,13.8772,13.9583,14.0898,14.1589,14.1421,14.3372,14.4349,14.2431,14.331,14.3834,14.3945,14.4625,14.5455,14.675,14.5918,14.5217,14.5941,14.5415,14.5283,14.5783,14.4267,14.3574,14.3982,14.2759,14.1697,14.1536,14.156,14.1536,14.1601,14.2075,14.2445,14.1689,14.1242,14.0802,14.0116,13.9149,13.8972,14.1214,14.0611,13.9645,13.0862,13.0835,13.0557,13.07,13.1043,13.0726,13.4027,13.954,14.0333,13.8628,13.5317,13.5583,13.543,13.5105,13.6174,13.7899,14.0096,14.1572,14.2291,14.2484,14.4242,14.3143,13.9834,13.9564,13.9486,13.9575,14.0285,14.1435,14.2906,14.5552,14.7055,14.7482,14.8085,14.8828,14.9445,0.0,0.0,0.0,14.8088,14.7167,14.6378,14.7365,14.7628,14.6838,14.9624,0.0,14.8022,14.8351,14.7036,14.3659,14.3419,0.0,0.0,0.0,0.0,0.0,0.0,0.0,0.0,0.0,0.0,0.0,13.5901,13.4323,13.1188,13.3247,13.3445,13.0419,13.2109,13.3292,13.2766,13.3358,13.3884,13.3884,13.4126,13.4279,13.441,13.6361,13.7808,13.7808,13.9802,14.1183,14.0985,14.1534,14.1732,14.1929,14.2324,14.2652,14.2936,14.2038,14.1688,14.1666,14.1995,14.206,14.2038,14.149,14.0874,14.1534,14.1469,14.1094,14.0829,14.0896,14.1051,14.0984,14.1754,14.1949,14.1926,14.1137,14.0402,14.0231,13.8854,13.8253,14.0663,14.1161,14.1337,13.3752,13.3852,13.4912,13.6412,13.7728,13.125,12.806,12.7524,13.1148,13.2012,13.113,13.5363,13.884,14.1647,14.1854,14.2096,14.2219,14.0168,14.0217,14.1939,13.9073,14.0439,14.5192,14.4373,14.5377,14.7791,14.6015,14.4663,14.3683,14.2215,14.2545,14.436,14.4526,14.6243,14.9332,14.9469,14.8788,14.7496,14.8614,14.9666,15.0742,15.0939,14.9206,14.5632,14.8219,14.7299,14.2213,14.4274,14.309,13.7917,13.7588,13.7457,13.7194,13.4279,13.2569,0.0,12.9696,0.0,0.0,0.0,0.0,0.0,0.0,0.0,0.0,12.7834,12.7151,12.2968,12.7374,12.9392,12.6914,13.005,13.2306,13.2306,13.349,13.4279,13.4279,13.4607,13.487,13.487,13.5178,13.5418,13.566,13.6536,13.7851,13.8991,14.0065,13.9605,13.6712,13.6865,13.7522,13.7259,13.8356,13.9123,13.8991,13.7172,13.612,13.6996,13.658,13.5462,13.5725,13.566,13.5528,13.5791,13.7632,13.9057,13.9123,14.0917,14.2158,14.1849,14.1488,14.0027,13.6933,13.5944,13.5857,12.748,12.7628,12.8153,13.1588,13.642,13.2978,13.101,13.0331,13.2119,13.275,13.2508,13.3529,13.491,13.644,13.759,13.8575,13.9298,13.8839,13.9576,14.1238,14.0378,14.0828,14.2551,14.2132,14.2648,14.3928,14.3713,14.4311,14.5579,14.5564,14.6431,14.8109,14.7393,14.6214,14.4843,14.7891,14.914,14.8482,14.914,14.9337,14.9074,14.8351,14.7036,14.5106,14.5523,14.456,14.206,14.3179,14.2235,13.9013,13.8093,13.7304,13.6404,12.9893,12.7065,0.0,0.0,0.0,0.0,0.0,0.0,0.0,0.0,0.0,0.0,0.0,12.2198,12.356,12.742,12.8032,12.3626,12.6322,12.8097,12.7288,12.7177,12.8032,13.0399,13.0662,13.1274,13.2832,13.3753,13.4279,13.4344,13.487,13.5528,13.6186,13.6777,13.6186,13.3753,13.43,13.5286,13.5265,13.5791,13.623,13.6251,13.5133,13.452,13.5068,13.476,13.4279,13.4279,13.4279,13.4279,13.4344,13.5331,13.623,13.6251,13.7391,13.8093,13.8093,13.8093,13.7172,13.487,13.4279,13.4476,12.4418,12.4196,12.1614,12.4294,13.0322,13.0854,13.1218,13.1588,13.2052,13.224,13.2136,13.0911,12.9958,12.9462,13.1001,13.2898,13.4957,13.6033,13.7479,13.9211,14.0351,14.0115,13.8908,13.9185,13.9508,13.992,14.0979,14.31,14.6069,14.697,14.7759,14.8417,14.743,14.4646,14.0591,14.4668,14.7233,14.7891,14.7891,14.7322,14.6138,14.5063,14.4514,14.4537,14.3442,14.2718,14.2367,14.206,14.1205,13.9737,13.7348,13.5528,13.4366,12.5816,0.0,0.0,0.0,0.0,0.0,0.0,0.0,0.0,0.0,11.6327,11.3415,0.0,11.8168,0.0,12.5644,12.5664,12.1738,12.2988,0.0,0.0,12.1146,12.1541,12.4763,12.6079,12.7657,13.0202,13.178,13.2832,13.3206,13.3555,13.3424,13.2372,13.2503,13.2306,13.1254,13.2306,13.3337,13.3687,13.3818,13.3753,13.3797,13.3753,13.3621,13.3292,13.3226,13.3271,13.3206,13.3206,13.3206,13.3226,13.3469,13.3753,13.3818,13.4147,13.406,13.2963,13.3029,13.3292,13.3271,13.3226,13.3337,13.1182,13.0298,12.0243,11.7178,11.9052,12.0821,12.2343,12.3692,12.5509,12.6256,12.6368,12.7476,12.6496,12.4094,12.4185,0.0,13.0378,13.0444,13.2088,13.4805,13.4936,13.5574,13.6759,13.8028,13.9341,14.061,14.0763,14.1641,14.3113,14.2038,14.0854,13.9649,13.9517,13.9254,13.8794,13.9254,14.0789,14.3376,14.3442,14.3376,14.3244,14.3113,14.3047,14.3047,14.2938,14.2258,14.092,13.9671,13.8268,13.6733,13.1537,12.8532,12.8249,0.0,0.0,0.0,0.0,0.0,0.0,0.0,0.0,0.0,0.0,0.0,0.0,0.0,0.0,11.5501,11.8281,0.0,12.1212,12.0357,0.0,0.0,0.0,11.7294,11.7642,12.1305,12.4395,12.5927,0.0,0.0,13.005,13.132,13.0728,12.6782,12.7394,12.8183,12.8052,12.9281,13.0728,13.1846,13.2109,13.2174,13.1846,13.1977,13.1517,13.0444,13.0247,13.0247,13.0181,13.0247,13.0161,13.0247,13.1233,13.2109,13.2109,13.3008,13.3029,12.9038,12.9347,13.0161,13.0247,13.0313,13.0707,12.2601,12.1256,11.7755,11.7166,11.8493,11.8405,12.0149,12.3163,12.3005,12.2988,12.3034,12.3579,12.2198,11.9483,11.9417,0.0,0.0,0.0,12.6256,12.9149,13.0859,13.2877,13.5068,13.5791,13.6296,13.6822,13.6909,13.8027,14.0263,13.9715,13.5199,12.7288,0.0,0.0,13.0925,13.5967,13.9189,14.0328,14.1995,14.285,14.285,14.285,14.206,14.0394,13.943,13.8312,13.6909,13.6296,13.4542,13.1274,12.8118,12.5289,0.0,0.0,0.0,0.0,0.0,0.0,0.0,0.0,0.0,0.0,0.0,10.6117,10.329,0.0,0.0,0.0,10.8962,10.9207,11.0737,11.4204,0.0,0.0,0.0,0.0,0.0,0.0,0.0,12.2442,12.3448,12.4369,12.5842,12.7242,12.7157,12.4593,12.5533,12.6125,12.527,0.0,12.744,12.8032,12.8097,12.8097,12.8097,12.8097,12.7966,12.7374,12.7242,12.7222,12.7308,12.7222,12.7288,12.7354,12.7703,12.8097,12.8097,12.8623,12.836,12.6782,12.6914,12.7222,12.7288,12.7946,12.8689,11.4505,0.0,0.0,0.0,0.0,11.4222,11.5782,11.9004,11.8018,11.7576,11.7595,11.7576,0.0,0.0,0.0,0.0,0.0,0.0,12.1193,12.4434,12.7288,12.9787,13.1846,13.224,13.2635,13.3029,13.3008,13.3863,13.5331,13.3797,12.8143,11.876,0.0,0.0,0.0,0.0,13.6098,13.7413,14.0197,14.1666,14.1644,14.1271,14.0087,13.8005,13.658,13.5331,13.4344,13.27,13.0333,12.7197,12.2968,0.0,0.0,0.0,0.0,0.0,0.0,0.0,0.0,0.0,0.0,0.0,0.0,0.0,0.0,0.0,0.0,0.0,0.0,0.0,10.3306,10.7893,10.9273,0.0,0.0,0.0,0.0,0.0,0.0,0.0,0.0,0.0,12.0319,12.1916,12.3034,0.0,0.0,12.4593,12.3606,12.4658,12.5599,12.5599,12.5599,0.0,12.5599,12.5599,12.5599,12.5599,12.5599,12.5599,12.5599,12.5599,12.5599,12.5599,12.5599,12.527,12.4546,12.4349,12.4527,12.4856,12.4941,12.5072,12.5533,12.6342,12.7045,0.0,0.0,0.0,0.0,0.0,0.0,0.0,0.0,10.8862,10.8927,0.0,10.8927,0.0,0.0,0.0,0.0,11.0737,11.3547,0.0,0.0,12.4218,12.573,12.5862,12.7263,12.8644,12.9918,12.9787,12.9129,12.7657,12.2442,0.0,0.0,0.0,0.0,0.0,0.0,13.0156,13.4323,13.7238,13.8728,13.8728,13.7435,13.6667,13.647,13.5133,13.4279,13.4081,12.8821,12.5796,12.5467,11.4975,0.0,0.0,0.0,0.0,0.0,0.0,0.0,0.0,0.0,0.0,0.0,0.0,0.0,0.0,0.0,0.0,0.0,0.0,0.0,0.0,10.1925,0.0,0.0,0.0,0.0,0.0,0.0,0.0,0.0,0.0,11.5885,11.3337,11.5424,11.8102,12.0949,0.0,0.0,0.0,0.0,12.5553,12.5533,12.5533,12.5533,12.5533,12.5533,12.5467,12.5533,0.0,0.0,12.5533,12.5533,12.5401,12.5533,12.5401,12.4678,12.1869,12.1212,12.1653,12.2949,12.3127,12.3869,12.5138,12.5072,12.5401,0.0,0.0,0.0,0.0,0.0,0.0,0.0,0.0,0.0,10.7761,10.6923,10.6857,0.0,0.0,0.0,0.0,0.0,0.0,0.0,0.0,11.6327,11.7952,11.72,12.0535,12.0864,0.0,11.953,11.7755,0.0,0.0,0.0,0.0,0.0,0.0,0.0,0.0,12.6105,12.8669,13.3337,13.5791,13.577,13.5309,13.5068,13.5002,13.3555,13.1036,12.7354,12.4349,12.1456,0.0,0.0,0.0,0.0,0.0,0.0,0.0,0.0,0.0,0.0,0.0,0.0,0.0,0.0,0.0,0.0,0.0,0.0,0.0,0.0,0.0,0.0,0.0,10.0331,0.0,0.0,0.0,0.0,0.0,0.0,0.0,0.0,0.0,10.8708,11.2813,11.6414,11.8139,12.0469,12.2048,12.2048,0.0,0.0,0.0,0.0,0.0,0.0,0.0,12.139,12.1371,12.0535,11.9878,11.9896,12.0732,12.139,12.139,0.0,0.0,11.6476,11.5621,11.5771,11.6195,11.7097,11.7868,11.8412,11.999,12.139,0.0,0.0,0.0,0.0,0.0,0.0,0.0,0.0,0.0,10.3356,10.2517,0.0,0.0,0.0,0.0,0.0,0.0,0.0,0.0,0.0,0.0,0.0,11.0575,11.3894,0.0,0.0,0.0,0.0,0.0,0.0,0.0,0.0,0.0,0.0,0.0,0.0,12.3672,12.573,13.1385,13.4279,13.4279,13.3818,13.3292,13.2832,13.1406,12.8097,12.2883,0.0,0.0,0.0,0.0,0.0,0.0,0.0,0.0,0.0,0.0,0.0,0.0,0.0,0.0,0.0,0.0,0.0,0.0,0.0,0.0,0.0,0.0,0.0,0.0,0.0,9.7848,0.0,0.0,0.0,0.0,0.0,0.0,0.0,0.0,0.0,0.0,0.0,11.2891,11.5917,11.8006,11.9727,12.1099,12.1343,12.1343,0.0,0.0,0.0,0.0,0.0,0.0,0.0,0.0,0.0,0.0,0.0,0.0,0.0,0.0,11.7153,11.3272,11.2548,11.2548,11.2548,0.0,0.0,0.0,0.0,0.0,0.0,0.0,0.0,0.0,0.0,0.0,0.0,0.0,0.0,0.0,9.535,0.0,0.0,9.3201,0.0,0.0,0.0,0.0,0.0,0.0,0.0,0.0,0.0,0.0,0.0,0.0,0.0,0.0,0.0,0.0,0.0,0.0,0.0,0.0,0.0,0.0,12.2527,12.5401,13.0991,13.4016,13.395,13.2635,13.1188,12.9852,12.8426,12.5684,12.1409,0.0,0.0,0.0,0.0,0.0,0.0,0.0,0.0,0.0,0.0,0.0,0.0,0.0,0.0,0.0,0.0,0.0,0.0,0.0,0.0,0.0,0.0,0.0,0.0,0.0,0.0,9.201,9.5051,9.7688,0.0,0.0,0.0,0.0,0.0,0.0,0.0,0.0,0.0,11.4128,11.5197,11.6805,12.0611,12.1165,12.1165,12.1278,12.1231,12.1231,12.1278,12.1212,12.0206,0.0,0.0,0.0,0.0,0.0,0.0,0.0,0.0,0.0,0.0,0.0,0.0,0.0,0.0,0.0,0.0,0.0,0.0,0.0,0.0,0.0,0.0,0.0,0.0,0.0,0.0,0.0,0.0,0.0,0.0,0.0,0.0,0.0,0.0,0.0,0.0,0.0,0.0,0.0,0.0,0.0,0.0,0.0,0.0,0.0,0.0,0.0,0.0,0.0,0.0,0.0,0.0,0.0,0.0,11.8168,12.1061,12.573,12.8163,12.8229,12.7703,12.7308,12.6894,12.6453,12.4698,0.0,0.0,0.0,0.0,0.0,0.0,0.0,0.0,0.0,0.0,0.0,0.0,0.0,0.0,0.0,0.0,0.0,0.0,0.0,0.0,0.0,0.0,0.0,0.0,0.0,0.0,0.0,0.0,9.9843,9.9998,9.8206,0.0,0.0,0.0,0.0,0.0,0.0,0.0,0.0,0.0,0.0,11.7226,11.8388,11.8586,11.9218,12.1034,11.9755,11.9218,12.1006,12.0423,11.9549,11.8628,0.0,0.0,0.0,0.0,0.0,0.0,0.0,0.0,0.0,0.0,0.0,0.0,0.0,0.0,0.0,0.0,0.0,0.0,0.0,0.0,0.0,0.0,0.0,0.0,0.0,0.0,0.0,0.0,0.0,0.0,0.0,0.0,0.0,0.0,0.0,0.0,0.0,0.0,0.0,0.0,0.0,0.0,0.0,0.0,0.0,0.0,0.0,0.0,0.0,0.0,0.0,0.0,0.0,11.6392,11.8281,12.31,12.5599,12.5599,12.5599,12.5316,12.479,12.4724,12.2639,0.0,0.0,0.0,0.0,0.0,0.0,0.0,0.0,0.0,0.0,0.0,0.0,0.0,0.0,0.0,0.0,0.0,0.0,0.0,0.0,0.0,0.0,0.0,0.0,0.0,0.0,0.0,0.0,9.789,9.8327,9.657,0.0,0.0,0.0,0.0,0.0,0.0,0.0,0.0,0.0,0.0,11.4005,11.5599,11.6242,0.0,0.0,11.838,11.8142,12.0132,12.0206,11.9257,11.715,11.6066,0.0,0.0,0.0,0.0,0.0,0.0,0.0,0.0,0.0,0.0,0.0,0.0,0.0,0.0,0.0,0.0,0.0,0.0,0.0,0.0,0.0,0.0,0.0,0.0,0.0,0.0,0.0,0.0,0.0,0.0,0.0,0.0,0.0,0.0,0.0,0.0,0.0,0.0,0.0,0.0,0.0,0.0,0.0,0.0,0.0,0.0,0.0,0.0,0.0,0.0,0.0,0.0,0.0,11.6984,12.2376,12.527,12.527,12.527,12.4593,12.3324,12.3258,11.9924,0.0,0.0,0.0,0.0,0.0,0.0,0.0,0.0,0.0,0.0,0.0,0.0,0.0,0.0,0.0,0.0,0.0,0.0,0.0,0.0,0.0,0.0,0.0,0.0,0.0,0.0,0.0,0.0,0.0,0.0,0.0,0.0,0.0,0.0,0.0,0.0,0.0,0.0,0.0,0.0,0.0,10.8732,11.2595,11.4097,11.5329,0.0,11.6835,11.734,11.8524,11.9934,11.9191,11.3978,0.0,0.0,0.0,0.0,0.0,0.0,0.0,0.0,0.0,0.0,0.0,0.0,0.0,0.0,0.0,0.0,0.0,0.0,0.0,0.0,0.0,0.0,0.0,0.0,0.0,0.0,0.0,0.0,0.0,0.0,0.0,0.0,0.0,0.0,0.0,0.0,0.0,0.0,0.0,0.0,0.0,0.0,0.0,0.0,0.0,0.0,0.0,0.0,0.0,0.0,0.0,0.0,0.0,0.0,11.6853,12.0488,12.2396,12.2376,12.233,12.2198,12.185,12.185,0.0,0.0,0.0,0.0,0.0,0.0,0.0,0.0,0.0,0.0,0.0,0.0,0.0,0.0,0.0,0.0,0.0,0.0,0.0,0.0,0.0,0.0,0.0,0.0,0.0,0.0,0.0,9.0564,0.0,0.0,0.0,0.0,0.0,0.0,0.0,0.0,0.0,0.0,0.0,0.0,0.0,0.0,10.981,11.2661,11.1776,11.1943,0.0,0.0,11.2129,11.4542,11.5965,11.5977,0.0,0.0,0.0,0.0,0.0,0.0,0.0,0.0,0.0,0.0,0.0,0.0,0.0,0.0,0.0,0.0,0.0,0.0,0.0,0.0,0.0,0.0,0.0,0.0,0.0,0.0,0.0,0.0,0.0,0.0,0.0,0.0,0.0,0.0,0.0,0.0,0.0,0.0,0.0,0.0,0.0,0.0,0.0,0.0,0.0,0.0,0.0,0.0,0.0,0.0,0.0,0.0,0.0,0.0,11.372,11.615,11.8919,12.0357,12.0423,12.0338,12.0094,11.937,11.937,11.6663,0.0,0.0,0.0,0.0,0.0,0.0,0.0,0.0,0.0,0.0,0.0,0.0,0.0,0.0,0.0,0.0,0.0,0.0,0.0,0.0,0.0,0.0,0.0,0.0,0.0,0.0,0.0,0.0,0.0,0.0,0.0,0.0,0.0,0.0,0.0,0.0,0.0,0.0,0.0,0.0,0.0,0.0,10.8716,10.8665,0.0,0.0,0.0,10.9993,11.2043,0.0,0.0,0.0,0.0,0.0,0.0,0.0,0.0,0.0,0.0,0.0,0.0,0.0,0.0,0.0,0.0,0.0,0.0,0.0,0.0,0.0,0.0,0.0,0.0,0.0,0.0,0.0,0.0,0.0,0.0,0.0,0.0,0.0,0.0,0.0,0.0,0.0,0.0,0.0,0.0,0.0,0.0,0.0,0.0,0.0,0.0,0.0,0.0,0.0,0.0,0.0,0.0,0.0,0.0,0.0,0.0,0.0,11.5197,11.779,11.9154,11.9135,11.8938,11.8234,11.6853,11.6655,11.4085,0.0,0.0,0.0,0.0,0.0,0.0,0.0,0.0,0.0,0.0,0.0,0.0,0.0,0.0,0.0,0.0,0.0,0.0,0.0,0.0,0.0,0.0,0.0,0.0,0.0,0.0,0.0,0.0,0.0,0.0,0.0,0.0,0.0,0.0,0.0,0.0,0.0,0.0,0.0,0.0,0.0,10.4457,10.3508,10.5406,10.6793,0.0,0.0,10.8931,11.002,11.2383,0.0,0.0,0.0,0.0,0.0,0.0,0.0,0.0,0.0,0.0,0.0,0.0,0.0,0.0,0.0,0.0,0.0,0.0,0.0,0.0,0.0,0.0,0.0,0.0,0.0,0.0,0.0,0.0,0.0,0.0,0.0,0.0,0.0,0.0,0.0,0.0,0.0,0.0,0.0,0.0,0.0,0.0,0.0,0.0,0.0,0.0,0.0,0.0,0.0,0.0,0.0,0.0,0.0,0.0,0.0,0.0,11.4821,11.766,11.9154,11.9154,11.7905,11.7181,11.6787,11.5735,11.2973,0.0,0.0,0.0,0.0,0.0,0.0,0.0,0.0,0.0,0.0,0.0,0.0,0.0,0.0,0.0,0.0,0.0,0.0,0.0,0.0,0.0,0.0,0.0,0.0,0.0,0.0,0.0,0.0,0.0,0.0,0.0,0.0,0.0,0.0,0.0,0.0,0.0,0.0,0.0,0.0,0.0,10.2186,10.4148,10.2984,0.0,0.0,0.0,0.0,10.6215,10.6948,0.0,0.0,0.0,0.0,0.0,0.0,0.0,0.0,0.0,0.0,0.0,0.0,0.0,0.0,0.0,0.0,0.0,0.0,0.0,0.0,0.0,0.0,0.0,0.0,0.0,0.0,0.0,0.0,0.0,0.0,0.0,0.0,0.0,0.0,0.0,0.0,0.0,0.0,0.0,0.0,0.0,0.0,0.0,0.0,0.0,0.0,0.0,0.0,0.0,0.0,0.0,0.0,0.0,0.0,0.0,0.0,11.2892,11.4988,11.6016,11.5932,11.5143,11.4438,11.3762,11.2363,10.974,0.0,0.0,0.0,0.0,0.0,0.0,0.0,0.0,0.0,0.0,0.0,0.0,0.0,0.0,0.0,0.0,0.0,0.0,0.0,0.0,0.0,0.0,0.0,0.0,0.0,0.0,0.0,0.0,0.0,0.0,0.0,0.0,0.0,0.0,0.0,0.0,0.0,0.0,0.0,0.0,10.0272,10.1221,10.199,0.0,0.0,0.0,0.0,0.0,0.0,10.4195,10.5057,0.0,0.0,0.0,0.0,0.0,0.0,0.0,0.0,0.0,0.0,0.0,0.0,0.0,0.0,0.0,0.0,0.0,0.0,0.0,0.0,0.0,0.0,0.0,0.0,0.0,0.0,0.0,0.0,0.0,0.0,0.0,0.0,0.0,0.0,0.0,0.0,0.0,0.0,0.0,0.0,0.0,0.0,0.0,0.0,0.0,0.0,0.0,0.0,0.0,0.0,0.0,0.0,0.0,0.0,0.0,11.063,11.167,11.2201,11.2201,11.2004,11.1263,11.008,10.8664,10.6285,10.2879,0.0,0.0,0.0,0.0,0.0,0.0,0.0,0.0,0.0,0.0,0.0,0.0,0.0,0.0,0.0,0.0,0.0,0.0,0.0,0.0,0.0,0.0,0.0,0.0,0.0,0.0,0.0,0.0,0.0,0.0,0.0,0.0,0.0,0.0,0.0,0.0,0.0,0.0,0.0,9.9435,10.0611,0.0,0.0,0.0,0.0,0.0,0.0,0.0,0.0,10.3739,0.0,0.0,0.0,0.0,0.0,0.0,0.0,0.0,0.0,0.0,0.0,0.0,0.0,0.0,0.0,0.0,0.0,0.0,0.0,0.0,0.0,0.0,0.0,0.0,0.0,0.0,0.0,0.0,0.0,0.0,0.0,0.0,0.0,0.0,0.0,0.0,0.0,0.0,0.0,0.0,0.0,0.0,0.0,0.0,0.0,0.0,0.0,0.0,0.0,0.0,0.0,0.0,0.0,0.0,0.0,0.0,11.0187,11.0755,11.0737,10.9536,10.8879,10.8616,10.7252,10.5263,10.2726,0.0,0.0,0.0,0.0,0.0,0.0,0.0,0.0,0.0,0.0,0.0,0.0,0.0,0.0,0.0,0.0,0.0,0.0,0.0,0.0,0.0,0.0,0.0,0.0,0.0,0.0,0.0,0.0,0.0,0.0,0.0,0.0,0.0,0.0,0.0,0.0,0.0,0.0,9.7012,9.8391,0.0,0.0,0.0,0.0,0.0,0.0,0.0,0.0,10.1564,0.0,0.0,0.0,0.0,0.0,0.0,0.0,0.0,0.0,0.0,0.0,0.0,0.0,0.0,0.0,0.0,0.0,0.0,0.0,0.0,0.0,0.0,0.0,0.0,0.0,0.0,0.0,0.0,0.0,0.0,0.0,0.0,0.0,0.0,0.0,0.0,0.0,0.0,0.0,0.0,0.0,0.0,0.0,0.0,0.0,0.0,0.0,0.0,0.0,0.0,0.0,0.0,0.0,0.0,0.0,0.0,0.0,0.0,10.831,10.8124,10.7498,10.712,10.7055,10.5181,10.3278,0.0,0.0,0.0,0.0,0.0,0.0,0.0,0.0,0.0,0.0,0.0,0.0,0.0,0.0,0.0,0.0,0.0,0.0,0.0,0.0,0.0,0.0,0.0,0.0,0.0,0.0,0.0,0.0,0.0,0.0,0.0,0.0,0.0,0.0,0.0,0.0,0.0,0.0,0.0,0.0,0.0,0.0,0.0,0.0,0.0,0.0,0.0,0.0,0.0,0.0,0.0,0.0,0.0,0.0,0.0,0.0,0.0,0.0,0.0,0.0,0.0,0.0,0.0,0.0,0.0,0.0,0.0,0.0,0.0,0.0,0.0,0.0,0.0,0.0,0.0,0.0,0.0,0.0,0.0,0.0,0.0,0.0,0.0,0.0,0.0,0.0,0.0,0.0,0.0,0.0,0.0,0.0,0.0,0.0,0.0,0.0,0.0,0.0,0.0,0.0,0.0,0.0,0.0,0.0,0.0,0.0,0.0,0.0,10.6236,10.569,10.569,10.569,10.5625,10.3168,10.137,0.0,0.0,0.0,0.0,0.0,0.0,0.0,0.0,0.0,0.0,0.0,0.0,0.0,0.0,0.0,0.0,0.0,0.0,0.0,0.0,0.0,0.0,0.0,0.0,0.0,0.0,0.0,0.0,0.0,0.0,0.0,0.0,0.0,0.0,0.0,0.0,0.0,0.0,0.0,0.0,0.0,0.0,0.0,0.0,0.0,0.0,0.0,0.0,9.829,0.0,0.0,0.0,0.0,0.0,0.0,0.0,0.0,0.0,0.0,0.0,0.0,0.0,0.0,0.0,0.0,0.0,0.0,0.0,0.0,0.0,0.0,0.0,0.0,0.0,0.0,0.0,0.0,0.0,0.0,0.0,0.0,0.0,0.0,0.0,0.0,0.0,0.0,0.0,0.0,0.0,0.0,0.0,0.0,0.0,0.0,0.0,0.0,0.0,0.0,0.0,0.0,0.0,0.0,0.0,0.0,0.0,0.0,0.0,10.5873,10.4309,10.4227,10.4211,10.4161,10.1683,10.0358,0.0,0.0,0.0,0.0,0.0,0.0,0.0,0.0,0.0,0.0,0.0,0.0,0.0,0.0,0.0,0.0,0.0,0.0,0.0,0.0,0.0,0.0,0.0,0.0,0.0,0.0,0.0,0.0,0.0,0.0,0.0,0.0,0.0,0.0,0.0,0.0,0.0,0.0,0.0,0.0,0.0,0.0,0.0,0.0,0.0,0.0,0.0,0.0,0.0,0.0,0.0,0.0,0.0,0.0,0.0,0.0,0.0,0.0,0.0,0.0,0.0,0.0,0.0,0.0,0.0,0.0,0.0,0.0,0.0,0.0,0.0,0.0,0.0,0.0,0.0,0.0,0.0,0.0,0.0,0.0,0.0,0.0,0.0,0.0,0.0,0.0,0.0,0.0,0.0,0.0,0.0,0.0,0.0,0.0,0.0,0.0,0.0,0.0,0.0,0.0,0.0,0.0,0.0,0.0,0.0,0.0,0.0,0.0,10.4364,10.4191,10.3206,10.273,10.2972,10.0479,9.9185,0.0,0.0,0.0,0.0,0.0,0.0,0.0,0.0,0.0,0.0,0.0,0.0,0.0,0.0,0.0,0.0,0.0,0.0,0.0,0.0,0.0,0.0,0.0,0.0,0.0,0.0,0.0,0.0,0.0,0.0,0.0,0.0,0.0,0.0,0.0,0.0,0.0,0.0,0.0,0.0,0.0,0.0,0.0,0.0,0.0,0.0,0.0,0.0,0.0,0.0,0.0,0.0,0.0,0.0,0.0,0.0,0.0,0.0,0.0,0.0,0.0,0.0,0.0,0.0,0.0,0.0,0.0,0.0,0.0,0.0,0.0,0.0,0.0,0.0,0.0,0.0,0.0,0.0,0.0,0.0,0.0,0.0,0.0,0.0,0.0,0.0,0.0,0.0,0.0,0.0,0.0,0.0,0.0,0.0,0.0,0.0,0.0,0.0,0.0,0.0,0.0,0.0,0.0,0.0,0.0,0.0,0.0,0.0,0.0,10.3803,10.1688,10.0703,10.1082,9.8971,9.7838,0.0,0.0,0.0,0.0,0.0,0.0,0.0,0.0,0.0,0.0,0.0,0.0,0.0,0.0,0.0,0.0,0.0,0.0,0.0,0.0,0.0,0.0,0.0,0.0,0.0,0.0,0.0,0.0,0.0,0.0,0.0,0.0,0.0,0.0,0.0,0.0,0.0,0.0,0.0,0.0,0.0,0.0,0.0,0.0,0.0,0.0,0.0,0.0,0.0,0.0,0.0,0.0,0.0,0.0,0.0,0.0,0.0,0.0,0.0,0.0,0.0,0.0,0.0,0.0,0.0,0.0,0.0,0.0,0.0,0.0,0.0,0.0,0.0,0.0,0.0,0.0,0.0,0.0,0.0,0.0,0.0,0.0,0.0,0.0,0.0,0.0,0.0,0.0,0.0,0.0,0.0,0.0,0.0,0.0,0.0,0.0,0.0,0.0,0.0,0.0,0.0,0.0,0.0,0.0,0.0,0.0,0.0,0.0,0.0,10.2758,9.9373,9.7835,9.8221,9.7027,9.6456,0.0,0.0,0.0,0.0,0.0,0.0,0.0,0.0,0.0,0.0,0.0,0.0,0.0,0.0,0.0,0.0,0.0,0.0,0.0,0.0,0.0,0.0,0.0,0.0,0.0,0.0,0.0,0.0,0.0,0.0,0.0,0.0,0.0,0.0,0.0,0.0,0.0,0.0,0.0,0.0,0.0,0.0,0.0,0.0,0.0,0.0,0.0,0.0,0.0,0.0,0.0,0.0,0.0,0.0,0.0,0.0,0.0,0.0,0.0,0.0,0.0,0.0,0.0,0.0,0.0,0.0,0.0,0.0,0.0,0.0,0.0,0.0,0.0,0.0,0.0,0.0,0.0,0.0,0.0,0.0,0.0,0.0,0.0,0.0,0.0,0.0,0.0,0.0,0.0,0.0,0.0,0.0,0.0,0.0,0.0,0.0,0.0,0.0,0.0,0.0,0.0,0.0,0.0,0.0,0.0,0.0,0.0,0.0,0.0,10.0473,9.7993,9.7159,9.8191,9.7092,9.6424,9.638,0.0,0.0,0.0,0.0,0.0,0.0,0.0,0.0,0.0,0.0,0.0,0.0,0.0,0.0,0.0,0.0,0.0,0.0,0.0,0.0,0.0,0.0,0.0,0.0,0.0,0.0,0.0,0.0,0.0,0.0,0.0,0.0,0.0,0.0,0.0,0.0,0.0,0.0,0.0,0.0,0.0,0.0,0.0,0.0,0.0,0.0,0.0,0.0,0.0,0.0,0.0,0.0,0.0,0.0,0.0,0.0,0.0,0.0,0.0,0.0,0.0,0.0,0.0,0.0,0.0,0.0,0.0,0.0,0.0,0.0,0.0,0.0,0.0,0.0,0.0,0.0,0.0,0.0,0.0,0.0,0.0,0.0,0.0,0.0,0.0,0.0,0.0,0.0,0.0,0.0,0.0,0.0,0.0,0.0,0.0,0.0,0.0,0.0,0.0,0.0,0.0,0.0,0.0,0.0,0.0,0.0,0.0,0.0,9.7779,9.6319,9.6036,9.7121,9.7258,9.7049,0.0,0.0,0.0,0.0,0.0,0.0,0.0,0.0,0.0,0.0,0.0,0.0,0.0,0.0,0.0,0.0,0.0,0.0,0.0,0.0,0.0,0.0,0.0,0.0,0.0,0.0,0.0,0.0,0.0,0.0,0.0,0.0,0.0,0.0,0.0,0.0,0.0,0.0,0.0,0.0,0.0,0.0,0.0,0.0,0.0,0.0,0.0,0.0,0.0,0.0,0.0,0.0,0.0,0.0,0.0,0.0,0.0,0.0,0.0,0.0,0.0,0.0,0.0,0.0,0.0,0.0,0.0,0.0,0.0,0.0,0.0,0.0,0.0,0.0,0.0,0.0,0.0,0.0,0.0,0.0,0.0,0.0,0.0,0.0,0.0,0.0,0.0,0.0,0.0,0.0,0.0,0.0,0.0,0.0,0.0,0.0,0.0,0.0,0.0,0.0,0.0,0.0,0.0,0.0,0.0,0.0,0.0,0.0,9.6374,9.4703,9.4355,9.4474,9.4609,9.7306,9.8319,0.0,0.0,0.0,0.0,0.0,0.0,0.0,0.0,0.0,0.0,0.0,0.0,0.0,0.0,0.0,0.0,0.0,0.0,0.0,0.0,0.0,0.0,0.0,0.0,0.0,0.0,0.0,0.0,0.0,0.0,0.0,0.0,0.0,0.0,0.0,0.0,0.0,0.0,0.0,0.0,0.0,0.0,0.0,0.0,0.0,0.0,0.0,0.0,0.0,0.0,0.0,0.0,0.0,0.0,0.0,0.0,0.0,0.0,0.0,0.0,0.0,0.0,0.0,0.0,0.0,0.0,0.0,0.0,0.0,0.0,0.0,0.0,0.0,0.0,0.0,0.0,0.0,0.0,0.0,0.0,0.0,0.0,0.0,0.0,0.0,0.0,0.0,0.0,0.0,0.0,0.0,0.0,0.0,0.0,0.0,0.0,0.0,0.0,0.0,0.0,0.0,0.0,0.0,0.0,0.0,0.0,0.0,0.0,0.0,9.6321,0.0,9.599,0.0,9.7144,9.6867,0.0,0.0,0.0,0.0,0.0,0.0,0.0,0.0,0.0,0.0,0.0,0.0,0.0,0.0,0.0,0.0,0.0,0.0,0.0,0.0,0.0,0.0,0.0,0.0,0.0,0.0,0.0,0.0,0.0,0.0,0.0,0.0,0.0,0.0,0.0,0.0,0.0,0.0,0.0,0.0,0.0,0.0,0.0,0.0,0.0,0.0,0.0,0.0,0.0,0.0,0.0,0.0,0.0,0.0,0.0,0.0,0.0,0.0,0.0,0.0,0.0,0.0,0.0,0.0,0.0,0.0,0.0,0.0,0.0,0.0,0.0,0.0,0.0,0.0,0.0,0.0,0.0,0.0,0.0,0.0,0.0,0.0,0.0,0.0,0.0,0.0,0.0,0.0,0.0,0.0,0.0,0.0,0.0,0.0,0.0,0.0,0.0,0.0,0.0,0.0,0.0,0.0,0.0,0.0,0.0,0.0,0.0,0.0,0.0,9.5657,9.5107,9.588,9.7932,9.7621,9.7287,0.0,0.0,0.0,0.0,0.0,0.0,0.0,0.0,0.0,0.0,0.0,0.0,0.0,0.0,0.0,0.0,0.0,0.0,0.0,0.0,0.0,0.0,0.0,0.0,0.0,0.0,0.0,0.0,0.0,0.0,0.0,0.0,0.0,0.0,0.0,0.0,0.0,0.0,0.0,0.0,0.0,0.0,0.0,0.0,0.0,0.0,0.0,0.0,0.0,0.0,0.0,0.0,0.0,0.0,0.0,0.0,0.0,0.0,0.0,0.0,0.0,0.0,0.0,0.0,0.0,0.0,0.0,0.0,0.0,0.0,0.0,0.0,0.0,0.0,0.0,0.0,0.0,0.0,0.0,0.0,0.0,0.0,0.0,0.0,0.0,0.0,0.0,0.0,0.0,0.0,0.0,0.0,0.0,0.0,0.0,0.0,0.0,0.0,0.0,0.0,0.0,0.0,0.0,0.0,0.0,0.0,0.0,0.0,0.0,0.0,9.4356,9.4423,9.315,9.8243,9.9248,0.0,0.0,0.0,0.0,0.0,0.0,0.0,0.0,0.0,0.0,0.0,0.0,0.0,0.0,0.0,0.0,0.0,0.0,0.0,0.0,0.0,0.0,0.0,0.0,0.0,0.0,0.0,0.0,0.0,0.0,0.0,0.0,0.0,0.0,0.0,0.0,0.0,0.0,0.0,0.0,0.0,0.0,0.0,0.0,0.0,0.0,0.0,0.0,0.0,0.0,0.0,0.0,0.0,0.0,0.0,0.0,0.0,0.0,0.0,0.0,0.0,0.0,0.0,0.0,0.0,0.0,0.0,0.0,0.0,0.0,0.0,0.0,0.0,0.0,0.0,0.0,0.0,0.0,0.0,0.0,0.0,0.0,0.0,0.0,0.0,0.0,0.0,0.0,0.0,0.0,0.0,0.0,0.0,0.0,0.0,0.0,0.0,0.0,0.0,0.0,0.0,0.0,0.0,0.0,0.0,0.0,0.0,0.0,0.0,0.0,9.7386,0.0,9.4571,9.583,9.7185,9.8056,0.0,0.0,0.0,0.0,0.0,0.0,0.0,0.0,0.0,0.0,0.0,0.0,0.0,0.0,0.0,0.0,0.0,0.0,0.0,0.0,0.0,0.0,0.0,0.0,0.0,0.0,0.0,0.0,0.0,0.0,0.0,0.0,0.0,0.0,0.0,0.0,0.0,0.0,0.0,0.0,0.0,0.0,0.0,0.0,0.0,0.0,0.0,0.0,0.0,0.0,0.0,0.0,0.0,0.0,0.0,0.0,0.0,0.0,0.0,0.0,0.0,0.0,0.0,0.0,0.0,0.0,0.0,0.0,0.0,0.0,0.0,0.0,0.0,0.0,0.0,0.0,0.0,0.0,0.0,0.0,0.0,0.0,0.0,0.0,0.0,0.0,0.0,0.0,0.0,0.0,0.0,0.0,0.0,0.0,0.0,0.0,0.0,0.0,0.0,0.0,0.0,0.0,0.0,0.0,0.0,0.0,0.0,0.0,0.0,0.0,0.0,9.4892,9.4892,9.5442,0.0,0.0,0.0,0.0,0.0,0.0,0.0,0.0,0.0,0.0,0.0,0.0,0.0,0.0,0.0,0.0,0.0,0.0,0.0,0.0,0.0,0.0,0.0,0.0,0.0,0.0,0.0,0.0,0.0,0.0,0.0,0.0,0.0,0.0,0.0,0.0,0.0,0.0,0.0,0.0,0.0,0.0,0.0,0.0,0.0,0.0,0.0,0.0,0.0,0.0,0.0,0.0,0.0,0.0,0.0,0.0,0.0,0.0,0.0,0.0,0.0,0.0,0.0,0.0,0.0,0.0,0.0,0.0,0.0,0.0,0.0,0.0,0.0,0.0,0.0,0.0,0.0,0.0,0.0,0.0,0.0,0.0,0.0,0.0,0.0,0.0,0.0,0.0,0.0,0.0,0.0,0.0,0.0,0.0,0.0,0.0,0.0,0.0,0.0,0.0,0.0,0.0,0.0,0.0,0.0,0.0,0.0,0.0,0.0,0.0,0.0,9.638,9.5093,9.4825,0.0,9.3284,0.0,0.0,0.0,0.0,0.0,0.0,0.0,0.0,0.0,0.0,0.0,0.0,0.0,0.0,0.0,0.0,0.0,0.0,0.0,0.0,0.0,0.0,0.0,0.0,0.0,0.0,0.0,0.0,0.0,0.0,0.0,0.0,0.0,0.0,0.0,0.0,0.0,0.0,0.0,0.0,0.0,0.0,0.0,0.0,0.0,0.0,0.0,0.0,0.0,0.0,0.0,0.0,0.0,0.0,0.0,0.0,0.0,0.0,0.0,0.0,0.0,0.0,0.0,0.0,0.0,0.0,0.0,0.0,0.0,0.0,0.0,0.0,0.0,0.0,0.0,0.0,0.0,0.0,0.0,0.0,0.0,0.0,0.0,0.0,0.0,0.0,0.0,0.0,0.0,0.0,0.0,0.0,0.0,0.0,0.0,0.0,0.0,0.0,0.0,0.0,0.0,0.0,0.0,0.0,0.0,0.0,0.0,0.0,0.0,0.0,0.0,0.0,9.4437,9.4169,9.6059,0.0,0.0,0.0,0.0,0.0,0.0,0.0,0.0,0.0,0.0,0.0,0.0,0.0,0.0,0.0,0.0,0.0,0.0,0.0,0.0,0.0,0.0,0.0,0.0,0.0,0.0,0.0,0.0,0.0,0.0,0.0,0.0,0.0,0.0,0.0,0.0,0.0,0.0,0.0,0.0,0.0,0.0,0.0,0.0,0.0,0.0,0.0,0.0,0.0,0.0,0.0,0.0,0.0,0.0,0.0,0.0,0.0,0.0,0.0,0.0,0.0,0.0,0.0,0.0,0.0,0.0,0.0,0.0,0.0,0.0,0.0,0.0,0.0,0.0,0.0,0.0,0.0,0.0,0.0,0.0,0.0,0.0,0.0,0.0,0.0,0.0,0.0,0.0,0.0,0.0,0.0,0.0,0.0,0.0,0.0,0.0,0.0,0.0,0.0,0.0,0.0,0.0,0.0,0.0,0.0,0.0,0.0,0.0,0.0,0.0,9.5825,9.7774,9.4521,9.436,9.7626,0.0,0.0,0.0,0.0,0.0,0.0,0.0,0.0,0.0,0.0,0.0,0.0,0.0,0.0,0.0,0.0,0.0,0.0,0.0,0.0,0.0,0.0,0.0,0.0,0.0,0.0,0.0,0.0,0.0,0.0,0.0,0.0,0.0,0.0,0.0,0.0,0.0,0.0,0.0,0.0,0.0,0.0,0.0,0.0,0.0,0.0,0.0,0.0,0.0,0.0,0.0,0.0,0.0,0.0,0.0,0.0,0.0,0.0,0.0,0.0,0.0,0.0,0.0,0.0,0.0,0.0,0.0,0.0,0.0,0.0,0.0,0.0,0.0,0.0,0.0,0.0,0.0,0.0,0.0,0.0,0.0,0.0,0.0,0.0,0.0,0.0,0.0,0.0,0.0,0.0,0.0,0.0,0.0,0.0,0.0,0.0,0.0,0.0,0.0,0.0,0.0,0.0,0.0,0.0,0.0,0.0,0.0,0.0,0.0,0.0,0.0,0.0,0.0,0.0,9.7982,0.0,0.0,0.0,0.0,0.0,0.0,0.0,0.0,0.0,0.0,0.0,0.0,0.0,0.0,0.0,0.0,0.0,0.0,0.0,0.0,0.0,0.0,0.0,0.0,0.0,0.0,0.0,0.0,0.0,0.0,0.0,0.0,0.0,0.0,0.0,0.0,0.0,0.0,0.0,0.0,0.0,0.0,0.0,0.0,0.0,0.0,0.0,0.0,0.0,0.0,0.0,0.0,0.0,0.0,0.0,0.0,0.0,0.0,0.0,0.0,0.0,0.0,0.0,0.0,0.0,0.0,0.0,0.0,0.0,0.0,0.0,0.0,0.0,0.0,0.0,0.0,0.0,0.0,0.0,0.0,0.0,0.0,0.0,0.0,0.0,0.0,0.0,0.0,0.0,0.0,0.0,0.0,0.0,0.0,0.0,0.0,0.0,0.0,0.0,0.0,0.0,0.0,0.0,0.0,0.0,0.0,0.0,0.0,0.0,0.0,0.0,0.0,0.0,0.0,0.0,0.0,0.0,0.0,0.0,0.0,0.0,0.0,0.0,0.0,0.0,0.0,0.0,0.0,0.0,0.0,0.0,0.0,0.0,0.0,0.0,0.0,0.0,0.0,0.0,0.0,0.0,0.0,0.0,0.0,0.0,0.0,0.0,0.0,0.0,0.0,0.0,0.0,0.0,0.0,0.0,0.0,0.0,0.0,0.0,0.0,0.0,0.0,0.0,0.0,0.0,0.0,0.0,0.0,0.0,0.0,0.0,0.0,0.0,0.0,0.0,0.0,0.0,0.0,0.0,0.0,0.0,0.0,0.0,0.0,0.0,0.0,0.0,0.0,0.0,0.0,0.0,0.0,0.0,0.0,0.0,0.0,0.0,0.0,0.0,0.0,0.0,0.0,0.0,0.0,0.0,0.0,0.0,0.0,0.0,0.0,0.0,0.0,0.0,0.0,0.0,0.0,0.0,0.0,0.0,0.0,0.0,0.0,0.0,0.0,0.0,0.0,0.0,0.0,0.0,0.0,0.0,0.0,0.0,0.0,0.0,0.0,0.0,0.0,0.0,0.0,0.0,0.0,0.0,0.0,0.0,0.0,0.0,0.0,0.0,0.0,0.0,0.0,0.0,0.0,0.0,0.0,0.0,0.0,0.0,0.0,0.0,0.0,0.0,0.0,0.0,0.0,0.0,0.0,0.0,0.0,0.0,0.0,0.0,0.0,0.0,0.0,0.0,0.0,0.0,0.0,0.0,0.0,0.0,0.0,0.0,0.0,0.0,0.0,0.0,0.0,0.0,0.0,0.0,0.0,0.0,0.0,0.0,0.0,0.0,0.0,0.0,0.0,0.0,0.0,0.0,0.0,0.0,0.0,0.0,0.0,0.0,0.0,0.0,0.0,0.0,0.0,0.0,0.0,0.0,0.0,0.0,0.0,0.0,0.0,0.0,0.0,0.0,0.0,0.0,0.0,0.0,0.0,0.0,0.0,0.0,0.0,0.0,0.0,0.0,0.0,0.0,0.0,0.0,0.0,0.0,0.0,0.0,0.0,0.0,0.0,0.0,0.0,0.0,0.0,0.0,0.0,0.0,0.0,0.0,0.0,0.0,0.0,0.0,0.0,0.0,0.0,0.0,0.0,0.0,0.0,0.0,0.0,0.0,0.0,0.0,0.0,0.0,0.0,0.0,0.0,0.0,0.0,0.0,0.0,0.0,0.0,0.0,0.0,0.0,0.0,0.0,0.0,0.0,0.0,0.0,0.0,0.0,0.0,0.0,0.0,0.0,0.0,0.0,0.0,0.0,0.0,0.0,0.0,0.0,0.0,0.0,0.0,0.0,0.0,0.0,0.0,0.0,0.0,0.0,0.0,0.0,0.0,0.0,0.0,0.0,0.0,0.0,0.0,0.0,0.0,0.0,0.0,0.0,0.0,0.0,0.0,0.0,0.0,0.0,0.0,0.0,0.0,0.0,0.0,0.0,0.0,0.0,0.0,0.0,0.0,0.0,0.0,0.0,0.0,0.0,0.0,0.0,0.0,0.0,0.0,0.0,0.0,0.0,0.0,0.0,0.0,0.0,0.0,0.0,0.0,0.0,0.0,0.0,0.0,0.0,0.0,0.0,0.0,0.0,0.0,0.0,0.0,0.0,0.0,0.0,0.0,0.0,0.0,0.0,0.0,0.0,0.0,0.0,0.0,0.0,0.0,0.0,0.0,0.0,0.0,0.0,0.0,0.0,0.0,0.0,0.0,0.0,0.0,0.0,0.0,0.0,0.0,0.0,0.0,0.0,0.0,0.0,0.0,0.0,0.0,0.0,0.0,0.0,0.0,0.0,0.0,0.0,0.0,0.0,0.0,0.0,0.0,0.0,0.0,0.0,0.0,0.0,0.0,0.0,0.0,0.0,0.0,0.0,0.0,0.0,0.0,0.0,0.0,0.0,0.0,0.0,0.0,0.0,0.0,0.0,0.0,0.0,0.0,0.0,0.0,0.0,0.0,0.0,0.0,0.0,0.0,0.0,0.0,0.0,0.0,0.0,0.0,0.0,0.0,0.0,0.0,0.0,0.0,0.0,0.0,0.0,0.0,0.0,0.0,0.0,0.0,0.0,0.0,0.0,0.0,0.0,0.0,0.0,0.0,0.0,0.0,0.0,0.0,0.0,0.0,0.0,0.0,0.0,0.0,0.0,0.0,0.0,0.0,0.0,0.0,0.0,0.0,0.0,0.0,0.0,0.0,0.0,0.0,0.0,0.0,0.0,0.0,0.0,0.0,0.0,0.0,0.0,0.0,0.0,0.0,0.0,0.0,0.0,0.0,0.0,0.0,0.0,0.0,0.0,0.0,0.0,0.0,0.0,0.0,0.0,0.0,0.0,0.0,0.0,0.0,0.0,0.0,0.0,0.0,0.0,0.0,0.0,0.0,0.0,0.0,0.0,0.0,0.0,0.0,0.0,0.0,0.0,0.0,0.0,0.0,0.0,0.0,0.0,0.0,0.0,0.0,0.0,0.0,0.0,0.0,0.0,0.0,0.0,0.0,0.0,0.0,0.0,0.0,0.0,0.0,0.0,0.0,0.0,0.0,0.0,0.0,0.0,0.0,0.0,0.0,0.0,0.0,0.0,0.0,0.0,0.0,0.0,0.0,0.0,0.0,0.0,0.0,0.0,0.0,0.0,0.0,0.0,0.0,0.0,0.0,0.0,0.0,0.0,0.0,0.0,0.0,0.0,0.0,0.0,0.0,0.0,0.0,0.0,0.0,0.0,0.0,0.0,0.0,0.0,0.0,0.0,0.0,0.0,0.0,0.0,0.0,0.0,0.0,0.0,0.0,0.0,0.0,0.0,0.0,0.0,0.0,0.0,0.0,0.0,0.0,0.0,0.0,0.0,0.0,0.0,0.0,0.0,0.0,0.0,0.0,0.0,0.0,0.0,0.0,0.0,0.0,0.0,0.0,0.0,0.0,0.0,0.0,0.0,0.0,0.0,0.0,0.0,0.0,0.0,0.0,0.0,0.0,0.0,0.0,0.0,0.0,0.0,0.0,0.0,0.0,0.0,0.0,0.0,0.0,0.0,0.0,0.0,0.0,0.0,0.0,0.0,0.0,0.0,0.0,0.0,0.0,0.0,0.0,0.0,0.0,0.0,0.0,0.0,0.0,0.0,0.0,0.0,0.0,0.0,0.0,0.0,0.0,0.0,0.0,0.0,0.0,0.0,0.0,0.0,0.0,0.0,0.0,0.0,0.0,0.0,0.0,0.0,0.0,0.0,0.0,0.0,0.0,0.0,0.0,0.0,0.0,0.0,0.0,0.0,0.0,0.0,0.0,0.0,0.0,0.0,0.0,0.0,0.0,0.0,0.0,0.0,0.0,0.0,0.0,0.0,0.0,0.0,0.0,0.0,0.0,0.0,0.0,0.0,0.0,0.0,0.0,0.0,0.0,0.0,0.0,0.0,0.0,0.0,0.0,0.0,0.0,0.0,0.0,0.0,0.0,0.0,0.0,0.0,0.0,0.0,0.0,0.0,0.0,0.0,0.0,0.0,0.0,0.0,0.0,0.0,0.0,0.0,0.0,0.0,0.0,0.0,0.0,0.0,0.0,0.0,0.0,0.0,0.0,0.0,0.0,0.0,0.0,0.0,0.0,0.0,0.0,0.0,0.0,0.0,0.0,0.0,0.0,0.0,0.0,0.0,0.0,0.0,0.0,0.0,0.0,0.0,0.0,0.0,0.0,0.0,0.0,0.0,0.0,0.0,0.0,0.0,0.0,0.0,0.0,0.0,0.0,0.0,0.0,0.0,0.0,0.0,0.0,0.0,0.0,0.0,0.0,0.0,0.0,0.0,0.0,0.0,0.0,0.0,0.0,0.0,0.0,0.0,0.0]}],[{"header":{"parameterUnit":"kt","parameterCategory":2,"dx":1,"dy":1,"la1":29.587661999999998,"la2":31.0,"lo1":-88.76705300000003,"lo2":-86.6583820000003,"nx":115,"ny":88,"refTime":"2022-09-24T18:00:00:Z","depth":0,"parameterNumber":2,"parameterNumberName":"V-component_of_WINDS"},"data":[12.8511,12.8511,12.8511,12.8511,12.8511,12.8511,12.8511,12.8511,12.8511,12.8511,12.8511,12.8511,12.8511,12.8511,12.8511,12.8511,12.8511,12.8511,12.8511,12.8511,12.8511,12.8511,12.8511,12.8511,12.8511,12.8511,12.8511,12.8511,12.8511,12.8511,12.8511,12.8511,12.8511,12.8511,12.8511,12.8511,12.8511,12.8511,12.8511,12.8511,12.8511,12.8511,12.8511,12.8511,12.8511,12.8511,12.8511,12.8511,12.8511,12.8511,12.8511,12.8511,12.8511,12.8511,12.8511,12.8511,12.8511,12.8511,12.8511,12.8511,12.8511,12.8511,12.8511,12.8511,12.8511,12.8511,12.8511,12.8511,12.8511,12.8511,12.8511,12.8511,12.8511,12.8511,12.8511,12.8511,12.8511,12.8511,12.8511,12.8511,12.8511,12.8511,12.8511,12.8511,12.8511,12.8511,12.8511,12.8511,12.8511,12.8511,12.8511,12.8511,12.8511,12.8511,12.8511,12.8511,12.8511,12.8511,12.8511,12.8511,12.8511,12.8511,12.8518,12.8518,12.9096,12.9584,13.0024,12.9877,13.042,13.0372,13.1884,13.2519,13.1585,13.1293,13.183,12.8511,12.8511,12.8511,12.8511,12.8511,12.8511,12.8511,12.8511,12.8511,12.8511,12.8511,12.8511,12.8511,12.8511,12.8511,12.8511,12.8511,12.8511,12.8511,12.8511,12.8511,12.8511,12.8511,12.8511,12.8511,12.8511,12.8511,12.8511,12.8511,12.8511,12.8511,12.8511,12.8511,12.8511,12.8511,12.8511,12.8511,12.8511,12.8511,12.8511,12.8511,12.8511,12.8511,12.8511,12.8511,12.8511,12.8511,12.8511,12.8511,12.8511,12.8511,12.8511,12.8511,12.8511,12.8511,12.8511,12.8511,12.8511,12.8511,12.8511,12.8511,12.8511,12.8511,12.8511,12.8511,12.8511,12.8511,12.8511,12.8511,12.8511,12.8511,12.8511,12.8511,12.8511,12.8511,12.8511,12.8511,12.8511,12.8511,12.8511,12.8511,12.8511,12.8511,12.8511,12.8511,12.8511,12.8511,12.8511,12.8511,12.8511,12.8511,12.8511,12.8511,12.8511,12.8511,12.8511,12.8511,12.8511,12.8511,12.8511,12.8511,12.8511,12.8469,12.8518,12.8518,12.8852,12.9292,12.9975,12.9438,12.8908,13.0072,13.0756,13.0024,12.9975,13.0707,12.8511,12.8511,12.8511,12.8511,12.8511,12.8511,12.8511,12.8511,12.8511,12.8511,12.8511,12.8511,12.8511,12.8511,12.8511,12.8511,12.8511,12.8511,12.8511,12.8511,12.8511,12.8511,12.8511,12.8511,12.8511,12.8511,12.8511,12.8511,12.8511,12.8511,12.8511,12.8511,12.8511,12.8511,12.8511,12.8511,12.8511,12.8511,12.8511,12.8511,12.8511,12.8511,12.8511,12.8511,12.8511,12.8511,12.8511,12.8511,12.8511,12.8511,12.8511,12.8511,12.8511,12.8511,12.8511,12.8511,12.8511,12.8511,12.8511,12.8511,12.8511,12.8511,12.8511,12.8511,12.8511,12.8511,12.8511,12.8511,12.8511,12.8511,12.8511,12.8511,12.8511,12.8511,12.8511,12.8511,12.8511,12.8511,12.8511,12.8511,12.8511,12.8511,12.8511,12.8511,12.8511,12.8511,12.8511,12.8511,12.8511,12.8511,12.8511,12.8511,12.8511,12.8511,12.8511,12.8511,12.8511,12.8511,12.8511,12.8511,12.8511,12.8511,12.8511,12.8469,12.8469,12.842,12.8852,12.9724,12.9382,12.8559,12.8803,12.9096,12.8657,12.8413,12.9194,12.8511,12.8511,12.8511,12.8511,12.8511,12.8511,12.8511,12.8511,12.8511,12.8511,12.8511,12.8511,12.8511,12.8511,12.8511,12.8511,12.8511,12.8511,12.8511,12.8511,12.8511,12.8511,12.8511,12.8511,12.8511,12.8511,12.8511,12.8511,12.8511,12.8511,12.8511,12.8511,12.8511,12.8511,12.8511,12.8511,12.842,12.842,12.8023,12.7486,12.7827,12.8071,12.8364,12.8511,12.8511,12.8511,12.8511,12.8511,12.8511,12.8511,12.8511,12.8511,12.8511,12.8511,12.8511,12.8511,12.8511,12.8511,12.8511,12.8511,12.8511,12.8511,12.8511,12.8511,12.8511,12.8511,12.8511,12.8511,12.8511,12.8511,12.8511,12.8511,12.8511,12.8511,12.8511,12.8511,12.8511,12.8511,12.8511,12.8511,12.8511,12.8511,12.8511,12.8511,12.8511,12.8511,12.8511,12.8511,12.8511,12.8511,12.8511,12.8413,12.8462,12.8413,12.8511,12.8511,12.8511,12.8511,12.8364,12.8413,12.8511,12.8511,12.8511,12.842,12.8225,12.8274,12.8559,12.9089,12.8992,12.8608,12.8462,12.8071,12.7632,12.6998,12.7681,12.8511,12.8511,12.8511,12.8511,12.8511,12.8511,12.8511,12.8511,12.8511,12.8511,12.8511,12.8511,12.8511,12.8511,12.8511,12.8511,12.8511,12.8511,12.8511,12.8511,12.8511,12.8511,12.8511,12.8511,12.8511,12.8511,12.8511,12.8511,12.8511,12.8267,12.8218,12.8511,12.8267,12.8071,12.7974,12.7974,12.7876,12.773,12.7046,12.6697,12.7046,12.729,12.7486,12.8315,12.8511,12.8511,12.8511,12.8511,12.8511,12.8511,12.8511,12.8511,12.8511,12.8511,12.8511,12.8511,12.8511,12.8511,12.8511,12.8511,12.8511,12.8511,12.8511,12.8511,12.8511,12.8511,12.8511,12.8511,12.8511,12.8511,12.8511,12.8511,12.8511,12.8511,12.8511,12.8511,12.8511,12.8511,12.8511,12.8511,12.8511,12.8511,12.8511,12.8511,12.8511,12.8511,12.8511,12.8511,12.8511,12.8511,12.8462,12.8315,12.8169,12.8023,12.7974,12.7681,12.8023,12.8218,12.8169,12.8071,12.7632,12.7925,12.8413,12.7876,12.729,12.7583,12.7534,12.69,12.6656,12.7144,12.7437,12.7046,12.6412,12.5729,12.607,12.8511,12.8511,12.8511,12.8511,12.8511,12.8511,12.8511,12.8511,12.8511,12.8511,12.8511,12.8511,12.8511,12.8511,12.8511,12.8511,12.8511,12.8511,12.8511,12.8511,12.8511,12.8462,12.8511,12.8511,12.8413,12.8511,12.8511,12.8315,12.8274,12.7974,12.7095,12.6802,12.6607,12.6558,12.6607,12.6697,12.6648,12.6453,12.6453,12.6648,12.7095,12.7591,12.7974,12.842,12.8511,12.8511,12.8511,12.8511,12.8511,12.8511,12.8511,12.8511,12.842,12.842,12.842,12.8511,12.8511,12.8511,12.8511,12.8511,12.8511,12.8511,12.8511,12.8462,12.8413,12.8364,12.8364,12.8364,12.8413,12.8413,12.8462,12.8511,12.8462,12.8462,12.8462,12.8462,12.8511,12.8511,12.8511,12.8511,12.8511,12.8511,12.8462,12.8511,12.8511,12.8364,12.8315,12.8218,12.812,12.8023,12.7876,12.7632,12.7486,12.7388,12.6746,12.6355,12.6453,12.6599,12.6844,12.6802,12.6558,12.6599,12.6795,12.6599,12.6355,12.6306,12.6363,12.5436,12.4899,12.5916,12.6502,12.6111,12.5525,12.4899,12.4988,12.8511,12.8511,12.8511,12.8511,12.8511,12.8511,12.8511,12.8511,12.8511,12.8511,12.8511,12.8511,12.8511,12.8511,12.8511,12.8511,12.8511,12.8511,12.8462,12.8511,12.8511,12.8315,12.8267,12.8267,12.7932,12.7827,12.773,12.7688,12.7388,12.69,12.5965,12.5476,12.5672,12.5574,12.533,12.4793,12.4549,12.45,12.4801,12.5192,12.5826,12.6314,12.6851,12.7193,12.729,12.7332,12.729,12.7339,12.7339,12.7437,12.7534,12.7876,12.7925,12.8071,12.8364,12.8413,12.8462,12.8462,12.8511,12.8511,12.8511,12.8511,12.7778,12.7827,12.7974,12.7974,12.7925,12.7827,12.7827,12.729,12.7095,12.7193,12.7242,12.7486,12.7778,12.8023,12.8511,12.8511,12.8511,12.8511,12.8511,12.8413,12.7876,12.7827,12.7778,12.7925,12.7925,12.7632,12.7437,12.7193,12.6949,12.6599,12.6453,12.6404,12.581,12.5175,12.5078,12.498,12.5086,12.5135,12.5135,12.5184,12.5224,12.542,12.5721,12.5623,12.5232,12.4549,12.3865,12.4695,12.5232,12.4988,12.4793,12.4646,12.4646,12.8511,12.8511,12.8511,12.8462,12.842,12.8315,12.8315,12.8371,12.8462,12.8462,12.8462,12.8462,12.8511,12.8511,12.842,12.8322,12.8315,12.8176,12.8169,12.8169,12.7925,12.7583,12.7486,12.7632,12.7095,12.6502,12.6355,12.6648,12.5623,12.5428,12.5428,12.5232,12.4891,12.4793,12.4264,12.3581,12.2849,12.2995,12.3346,12.3971,12.4557,12.4655,12.5387,12.5818,12.6062,12.6014,12.6014,12.5965,12.5867,12.581,12.5761,12.6209,12.6648,12.6949,12.7632,12.812,12.8267,12.8169,12.8071,12.7974,12.8071,12.7681,12.6648,12.6453,12.6648,12.6949,12.6949,12.6949,12.69,12.6355,12.5965,12.6111,12.6258,12.6551,12.69,12.7339,12.7925,12.8071,12.8071,12.8071,12.7974,12.7778,12.7144,12.6949,12.6892,12.6656,12.607,12.5875,12.5485,12.5338,12.524,12.4939,12.4744,12.498,12.4882,12.4256,12.3914,12.3328,12.3386,12.3776,12.3825,12.3963,12.4061,12.4354,12.4939,12.4988,12.4313,12.3679,12.3044,12.3044,12.3581,12.3483,12.3483,12.3581,12.3598,12.6851,12.7437,12.7486,12.7827,12.8267,12.6998,12.6453,12.6599,12.7193,12.7486,12.7632,12.8218,12.842,12.8176,12.7827,12.7437,12.7388,12.6851,12.6461,12.6453,12.6502,12.6306,12.616,12.616,12.5916,12.5818,12.581,12.5713,12.498,12.4549,12.4305,12.4061,12.3581,12.3435,12.3142,12.276,12.2077,12.2272,12.2663,12.3239,12.3679,12.4264,12.4842,12.5086,12.5232,12.5232,12.533,12.5379,12.5379,12.5428,12.5428,12.5615,12.5769,12.5916,12.6152,12.6306,12.6502,12.6461,12.6551,12.6551,12.6412,12.6412,12.5916,12.5615,12.5769,12.5818,12.5818,12.5818,12.5916,12.5623,12.5428,12.5525,12.5623,12.5623,12.5867,12.5818,12.6258,12.6258,12.6258,12.6306,12.6258,12.6209,12.5965,12.5965,12.5623,12.4891,12.4207,12.363,12.3093,12.3053,12.2955,12.241,12.2068,12.2205,12.2254,12.2596,12.2458,12.1775,12.2077,12.2614,12.2565,12.2117,12.2654,12.3142,12.3093,12.3044,12.2995,12.3004,12.2525,12.2379,12.2171,12.2025,12.2175,12.225,12.2383,12.6306,12.6941,12.6551,12.6802,12.7193,12.5916,12.5379,12.5476,12.6062,12.6363,12.6599,12.7088,12.7437,12.7242,12.6697,12.6404,12.6306,12.5476,12.5379,12.5428,12.5525,12.5184,12.5086,12.5135,12.4744,12.4158,12.4109,12.3963,12.3515,12.2352,12.2254,12.2605,12.2019,12.1589,12.1589,12.198,12.2077,12.2272,12.2711,12.3288,12.3288,12.3727,12.4109,12.4109,12.4069,12.402,12.402,12.3971,12.3971,12.3971,12.3971,12.4305,12.4793,12.4842,12.5037,12.5379,12.5428,12.5379,12.5281,12.45,12.4313,12.4216,12.4118,12.4256,12.4695,12.4549,12.4305,12.4167,12.3768,12.3182,12.3377,12.3279,12.3719,12.3768,12.3963,12.3963,12.4305,12.4305,12.45,12.4598,12.4891,12.4939,12.4988,12.4988,12.3825,12.2898,12.241,12.1824,12.1238,12.1141,12.0955,12.0311,11.9969,11.9774,11.9969,12.1043,12.1238,12.0506,12.0613,12.1248,12.072,12.0077,12.0565,12.1336,12.1189,12.1043,12.0994,12.0994,12.1257,12.1211,12.0501,12.0157,12.0632,12.0962,12.109,12.6844,12.6795,12.5818,12.542,12.5281,12.5273,12.5135,12.4988,12.5135,12.5232,12.533,12.5574,12.5623,12.5574,12.5525,12.533,12.5281,12.5086,12.4939,12.4752,12.4606,12.4411,12.4354,12.4158,12.367,12.1492,12.1784,12.1824,11.9959,12.0252,12.035,12.0604,12.075,12.0516,12.0613,12.154,12.2077,12.2077,12.2126,12.2272,12.2321,12.2467,12.2614,12.2614,12.2663,12.2711,12.276,12.276,12.276,12.276,12.2663,12.3004,12.363,12.3727,12.4069,12.4793,12.4939,12.5037,12.5086,12.3239,12.2614,12.2565,12.2898,12.2995,12.3386,12.2858,12.2272,12.241,12.1571,12.0457,11.9725,11.9384,12.0252,12.0692,12.1034,12.1287,12.1922,12.2263,12.28,12.3093,12.3532,12.3971,12.3971,12.363,12.2263,12.1385,12.0799,12.0164,11.9618,11.9335,11.9286,11.8895,11.8944,11.87,11.8651,11.9628,12.0116,11.9188,11.9091,11.9735,11.9589,11.9833,11.9784,11.9432,11.9872,12.0506,11.992,11.914,11.9296,11.9481,11.8783,11.8858,11.9289,11.9679,11.984,12.5859,12.5769,12.5476,12.45,12.3102,12.3004,12.3044,12.3093,12.3142,12.3435,12.4354,12.5086,12.5379,12.5135,12.4695,12.4264,12.4069,12.363,12.3239,12.3239,12.3288,12.2858,12.28,12.28,12.2751,12.2126,12.1891,12.1745,12.0565,12.0311,12.0164,12.0018,11.9872,12.0067,12.0506,12.1492,12.2077,12.2077,12.2077,12.2077,12.2077,12.2077,12.2077,12.2077,12.2077,12.2077,12.2077,12.2077,12.2077,12.2077,12.2126,12.2272,12.2467,12.2654,12.28,12.2947,12.3044,12.3004,12.2955,12.237,12.2175,12.2077,12.2077,12.2272,12.2223,12.1638,12.1101,12.0945,12.0067,11.9422,11.9237,11.8739,11.8983,11.8983,11.9188,11.9481,12.0067,12.076,12.1238,12.1873,12.2223,12.2711,12.2711,12.2663,12.1638,12.1189,12.0506,11.9725,11.9081,11.869,11.8359,11.831,11.8407,11.7968,11.7431,11.8798,11.992,11.914,11.9335,11.9442,11.9735,12.0916,12.1199,12.0213,11.9774,12.0018,11.9696,11.9043,11.8489,11.7847,11.8068,11.8364,11.8704,11.8899,11.8858,12.4793,12.4793,12.4744,12.3727,12.2077,12.2077,12.2077,12.2077,12.2077,12.2516,12.3191,12.3816,12.4069,12.3923,12.3337,12.3142,12.3044,12.2321,12.2223,12.2077,12.2077,12.2077,12.2077,12.2126,12.1784,12.1345,12.0906,12.076,12.0369,11.8662,11.8993,11.9666,11.9325,11.9715,12.0506,12.1492,12.198,12.2077,12.2077,12.2077,12.2077,12.2077,12.2077,12.2077,12.2077,12.2077,12.2077,12.2077,12.2077,12.2077,12.2077,12.2126,12.2223,12.2175,12.2223,12.2272,12.2321,12.2272,12.2223,12.2175,12.2077,12.2077,12.2077,12.2126,12.2126,12.115,12.0506,11.9725,11.8944,11.7968,11.7822,11.7762,11.8006,11.786,11.7919,11.8212,11.8749,11.9481,12.0116,12.1043,12.1394,12.1833,12.1794,12.1745,12.1443,12.1092,12.0213,11.9432,11.9032,11.8603,11.8554,11.8505,11.9042,11.8847,11.8944,11.9237,11.9618,11.9823,12.0067,11.9774,11.9579,12.0857,12.1345,12.0711,12.0116,11.955,11.9053,11.8762,11.7983,11.6891,11.6941,11.7479,11.7857,11.8096,11.8002,12.3825,12.3719,12.3679,12.3093,12.2077,12.2077,12.2077,12.2077,12.2077,12.2126,12.2272,12.2223,12.237,12.2223,12.2321,12.2272,12.2175,12.2077,12.2077,12.2077,12.198,12.1833,12.1784,12.1638,12.1394,12.0653,12.0506,11.9296,11.7783,11.7491,11.7431,11.8641,11.8885,11.9618,12.0506,12.1492,12.2028,12.2077,12.2077,12.2077,12.2077,12.1882,12.198,12.198,12.1931,12.1882,12.1931,12.1638,12.1443,12.1443,12.1394,12.1394,12.1345,12.154,12.1687,12.1784,12.1882,12.1931,12.1736,12.1736,12.1931,12.2077,12.2077,12.2077,12.2028,12.1101,12.0213,11.9471,11.8651,11.748,11.6553,11.5967,11.6835,11.7138,11.7675,11.7968,11.8505,11.9091,11.9872,12.036,12.0906,12.1589,12.1784,12.1696,12.1394,12.154,12.0848,12.0555,11.992,11.9384,11.9188,11.914,11.9725,11.9823,12.0018,12.0164,12.0067,12.0213,12.0653,12.036,11.9969,11.9872,12.0565,12.0213,12.0321,11.9082,11.8198,11.7815,11.7175,11.5927,11.538,11.5812,11.6171,11.6373,11.6507,12.4012,12.2516,12.2516,12.237,12.2077,12.2077,12.2077,12.2077,12.2077,12.2077,12.2077,12.2077,12.2077,12.2077,12.2077,12.2077,12.2077,12.2077,12.2077,12.1784,12.1394,12.1052,12.115,12.1052,12.0857,12.0555,12.0604,12.0125,11.8808,11.748,11.6553,11.7588,11.87,11.9579,12.0516,12.1492,12.2077,12.2077,12.2077,12.2077,12.198,12.1394,12.154,12.1394,12.076,12.0067,12.0653,12.036,11.9872,11.9872,11.992,12.0018,12.0116,12.0516,12.0857,12.1004,12.1531,12.154,12.1101,12.0955,12.1385,12.1784,12.2077,12.1784,12.1736,12.1101,12.0213,11.9774,11.8798,11.7832,11.7334,11.7529,11.7236,11.7236,11.7773,11.8212,11.8749,11.9774,12.0516,12.0906,12.1248,12.1687,12.1784,12.1687,12.1736,12.198,12.1931,12.1638,12.115,12.0613,12.0272,11.992,12.0018,11.953,11.9725,12.0018,12.036,12.0604,12.1199,12.1257,12.1081,12.0934,12.0445,12.0505,12.076,11.9499,11.7659,11.7042,11.6369,11.5388,11.4589,11.4585,11.4552,11.4512,11.4706,12.3239,12.2077,12.2077,12.2077,12.2077,12.2077,12.2077,12.2077,12.2077,12.2077,12.2077,12.2077,12.2077,12.2077,12.2077,12.2077,12.2077,12.2077,12.2077,12.1882,12.1589,12.1248,12.1101,12.1199,12.1199,12.115,12.0897,12.036,11.915,11.7675,11.7323,11.8212,11.914,12.0116,12.1296,12.1833,12.2028,12.2077,12.2077,12.2077,12.1931,12.1589,12.1492,12.198,12.1043,12.0604,12.0506,11.9823,11.952,11.8983,11.8944,11.8944,11.9129,11.9432,11.9823,11.9872,12.0457,12.0409,11.9969,11.9872,12.0116,12.0555,12.0653,12.0808,12.0653,12.0067,11.9676,11.9198,11.8554,11.7675,11.6943,11.7578,11.7578,11.7979,11.8613,11.914,11.9872,12.0613,12.1101,12.1394,12.1687,12.1833,12.198,12.1833,12.1833,12.1882,12.1784,12.1589,12.1345,12.1052,12.076,12.0506,11.992,11.952,11.9774,11.9969,12.0457,12.0848,12.1443,12.1422,12.1595,12.1384,12.0752,12.0558,12.0083,11.8893,11.7549,11.6442,11.5445,11.4661,11.3878,11.4058,11.4238,11.4018,11.3691,12.2077,12.2077,12.2077,12.2028,12.1882,12.1833,12.1784,12.1638,12.154,12.1736,12.1443,12.1736,12.1784,12.1882,12.1931,12.2077,12.2077,12.2077,12.2077,12.198,12.1492,12.115,12.154,12.1598,12.0808,12.0516,11.9579,11.8359,11.7735,11.8261,11.8592,11.9032,11.9862,12.0994,12.1736,12.2028,12.2077,12.2077,12.2077,12.2077,12.2028,12.1794,12.1833,12.1931,12.1492,12.1004,12.0506,12.0116,11.9725,11.8944,11.8798,11.87,11.8788,11.8739,11.8739,11.8739,11.8641,11.8603,11.8739,11.8788,11.8895,11.9325,11.9276,11.8993,11.9237,11.9178,11.8885,11.7578,11.8027,11.7881,11.748,11.7578,11.7637,11.8515,11.9589,12.0418,12.0799,12.1394,12.1687,12.1882,12.0897,12.1199,12.1443,12.1638,12.1745,12.1736,12.1638,12.1492,12.1296,12.0906,12.0613,12.0262,11.9725,11.9969,12.0262,12.0311,12.0653,12.0945,12.1062,12.1032,12.0816,12.0385,12.0197,11.9393,11.8594,11.7535,11.5983,11.4917,11.4475,11.3712,11.2842,11.3044,11.3551,11.3504,11.313,12.2077,12.2077,12.2077,12.1589,12.0906,12.0808,12.0409,11.9715,11.9676,11.9676,11.9676,12.0409,12.0848,12.1004,12.154,12.2028,12.2077,12.198,12.1882,12.1589,12.0555,11.9676,11.9335,11.8798,11.8651,11.9091,11.8407,11.8359,11.748,11.7724,11.8212,11.9129,12.0067,12.1052,12.1842,12.2077,12.2077,12.2077,12.2077,12.2077,12.1833,12.1345,12.1199,12.1931,12.0457,12.0067,12.0409,11.9959,11.9335,11.8847,11.8261,11.7637,11.7588,11.7588,11.7588,11.7442,11.6786,11.6943,11.7334,11.7724,11.8066,11.869,11.8847,11.8885,11.8836,11.8641,11.9032,11.9881,12.0125,11.993,11.8847,12.0174,12.0272,12.0125,12.0565,12.1687,12.1492,12.1492,12.1638,12.1101,12.0213,11.992,11.9969,12.0067,12.0272,12.0311,12.036,12.0272,12.0321,12.0213,12.0457,12.0067,11.992,12.0311,12.0067,11.992,11.993,12.0018,11.9919,11.9693,11.9451,11.9178,11.8429,11.7668,11.6837,11.5539,11.4144,11.2859,11.2477,11.2102,11.1626,11.1408,11.1408,11.1408,11.1447,12.2077,12.2077,12.2077,12.1745,12.1248,12.0799,12.0213,11.9676,11.9227,11.8944,11.9129,11.952,11.9725,11.992,12.0409,12.0555,12.0555,12.0604,12.0565,12.0457,11.953,11.8944,11.8895,11.8505,11.8115,11.7968,11.748,11.7138,11.7247,11.7773,11.8749,11.9676,12.075,12.1492,12.198,12.2077,12.2077,12.2077,12.2077,12.2077,12.198,12.1638,12.154,12.1784,12.1101,12.0506,12.0555,11.9872,11.9481,11.8983,11.8359,11.8115,11.8115,11.8163,11.8153,11.8066,11.7724,11.7626,11.7919,11.7442,11.7491,11.8066,11.7529,11.7382,11.7372,11.7469,11.7469,11.8017,11.8798,11.871,11.8505,11.8906,11.9345,11.9198,11.9823,12.036,12.0506,12.0506,12.0457,12.0213,11.9432,11.8944,11.87,11.871,11.8847,11.8944,11.8993,11.9091,11.9188,11.9628,12.036,11.9969,11.9676,11.9481,11.8603,11.8515,11.8438,11.8451,11.8431,11.7924,11.7554,11.7101,11.6513,11.573,11.4449,11.3196,11.2039,11.1541,11.0839,11.024,11.0006,10.9726,10.9492,10.9305,10.9297,12.2077,12.2077,12.2077,12.198,12.1638,12.0701,12.0164,12.0067,11.8749,11.8456,11.8554,11.8651,11.8651,11.8749,11.8798,11.8944,11.9237,11.9286,11.9188,11.9178,11.87,11.8505,11.8359,11.8006,11.8202,11.8017,11.7236,11.6894,11.7675,11.8603,11.9579,12.0506,12.1443,12.198,12.2037,12.1918,12.1759,12.1719,12.1481,12.156,12.168,12.1662,12.175,12.198,12.1882,12.1443,12.0955,12.0711,12.0409,11.9579,11.9286,11.9335,11.9481,11.9374,11.9188,11.9091,11.8885,11.8505,11.8651,11.8017,11.7578,11.7052,11.6748,11.6211,11.5869,11.5858,11.6309,11.6357,11.6455,11.6357,11.6211,11.7675,11.7675,11.7832,11.8651,11.914,11.9081,11.8788,11.8397,11.8359,11.8359,11.8115,11.7863,11.7738,11.773,11.7722,11.7491,11.7346,11.7509,11.8275,11.9112,11.918,11.917,11.8264,11.7397,11.7438,11.7111,11.7201,11.6601,11.6145,11.5631,11.5144,11.4311,11.3341,11.2207,11.164,11.1157,11.0457,11.01,11.024,10.9212,10.8184,10.8604,10.8978,10.8595,12.2077,12.2077,12.2077,12.154,12.0653,11.9725,11.9335,11.8983,11.7079,11.7138,11.7382,11.748,11.7822,11.7735,11.8505,11.8895,11.8847,11.8885,11.8554,11.8456,11.7822,11.7578,11.7334,11.6894,11.6835,11.7431,11.6954,11.7355,11.8418,11.9676,12.0096,12.0535,12.155,12.183,12.1839,12.1481,12.1082,12.1002,12.0482,12.045,12.0922,12.1042,12.1361,12.1719,12.1878,12.1763,12.1745,12.1687,12.1687,12.1589,12.076,12.0808,12.1101,12.0857,12.0311,12.0262,11.9579,11.9335,11.9286,11.8847,11.8261,11.7247,11.6954,11.6602,11.5918,11.5723,11.6016,11.6455,11.6748,11.7041,11.8299,11.8202,11.8261,11.8505,11.8651,11.8944,11.8641,11.7225,11.6553,11.632,11.6509,11.6503,11.6438,11.6424,11.6426,11.6302,11.5763,11.5522,11.5772,11.6252,11.686,11.7062,11.752,11.6978,11.7094,11.7171,11.6139,11.5743,11.485,11.4322,11.3737,11.3414,11.3005,11.1637,11.111,11.1041,11.0785,11.0146,11.0053,11.0427,10.9632,10.8137,10.8044,10.8549,10.8558,12.2077,12.2077,12.2077,12.1784,12.1199,12.0262,11.9774,11.9471,11.8017,11.7675,11.8066,11.8163,11.8115,11.8163,11.8066,11.8066,11.7919,11.748,11.7236,11.709,11.6748,11.6406,11.6211,11.6005,11.5821,11.632,11.6905,11.7126,11.7935,11.918,12.0036,11.9384,12.0708,12.1193,12.0682,12.037,12.0161,12.0081,11.9759,11.9727,12.0081,12.0201,12.0442,12.0682,12.1162,12.168,12.1998,12.2077,12.2077,12.1833,12.1101,12.0955,12.1687,12.1141,12.0857,12.115,12.0808,12.0613,12.0409,12.0116,11.9481,11.9003,11.7783,11.71,11.6564,11.5918,11.6016,11.626,11.6455,11.6553,11.709,11.7236,11.7225,11.7225,11.7176,11.7187,11.7041,11.6309,11.5513,11.5185,11.5072,11.4883,11.4553,11.4579,11.4638,11.4984,11.4445,11.4273,11.4523,11.4869,11.5262,11.5791,11.6158,11.6367,11.6673,11.6334,11.5392,11.4539,11.3622,11.2877,11.2419,11.2073,11.1804,11.1419,11.0909,11.0801,11.0474,11.0053,10.9773,10.9352,10.8698,10.7903,10.7296,10.6969,10.7062,12.2077,12.2077,12.2077,12.2077,12.1931,12.0955,12.0653,12.0711,11.9481,11.8983,11.9227,11.9032,11.8934,11.8885,11.8115,11.7393,11.7198,11.6612,11.5821,11.5761,11.5712,11.5712,11.5712,11.5712,11.5821,11.626,11.6905,11.707,11.7336,11.9033,11.9582,11.8722,11.9985,12.0241,11.9687,11.9525,11.9276,11.9229,11.9034,11.8953,11.9155,11.9229,11.9518,12.0129,12.065,12.1321,12.1878,12.2077,12.1833,12.1345,12.0613,12.036,12.0857,12.0506,12.0409,12.0897,12.1101,12.1199,12.1238,12.0457,12.0116,11.9725,11.8515,11.7539,11.7491,11.6699,11.6113,11.5967,11.5772,11.5809,11.5918,11.5761,11.5907,11.6005,11.5869,11.5783,11.5486,11.5448,11.4996,11.4467,11.4201,11.406,11.3499,11.3585,11.3556,11.3422,11.3393,11.3268,11.3488,11.3889,11.4475,11.5147,11.5374,11.5367,11.5718,11.5917,11.4868,11.3861,11.2666,11.1689,11.1419,11.111,11.1226,11.1071,11.0707,11.0427,11.0146,10.9679,10.8931,10.7903,10.71,10.7062,10.6735,10.5473,10.524,12.2077,12.2077,12.2077,12.2077,12.1931,12.1004,12.1052,12.1394,11.9969,11.9618,12.0067,11.9384,11.9286,11.8944,11.8895,11.8212,11.7247,11.7003,11.6455,11.5869,11.5712,11.5712,11.5712,11.5712,11.6027,11.6596,11.7052,11.7499,11.7809,11.8726,11.9207,11.8929,11.9272,11.9599,11.9155,11.867,11.8387,11.8218,11.7859,11.7859,11.8265,11.8427,11.8953,11.992,12.0442,12.0962,12.152,12.1803,12.112,11.9384,11.9178,11.9198,11.9286,11.9325,11.9325,11.9471,11.9579,11.953,11.9335,11.9432,11.9188,11.9188,11.8895,11.8749,11.8261,11.7382,11.6759,11.6808,11.6162,11.5821,11.5809,11.5674,11.5674,11.5674,11.5588,11.5287,11.4797,11.4618,11.4315,11.3603,11.3461,11.3413,11.3346,11.3361,11.3388,11.2718,11.2589,11.2542,11.2782,11.2812,11.3216,11.3944,11.41,11.427,11.4696,11.5161,11.3989,11.3071,11.1734,11.1149,11.0839,11.0801,11.0801,11.0567,11.0146,10.9866,10.9726,10.9072,10.8222,10.738,10.6772,10.6772,10.6632,10.5193,10.4913,12.2077,12.2077,12.2077,12.2077,12.2028,12.1589,12.1647,12.1833,12.1101,12.1043,12.1248,12.0906,12.0799,12.0662,12.0067,11.9237,11.8212,11.7491,11.665,11.5772,11.5712,11.5712,11.5625,11.5674,11.5606,11.5713,11.6219,11.6013,11.5574,11.7484,11.7504,11.696,11.7933,11.8461,11.8144,11.7656,11.7493,11.7453,11.7249,11.7127,11.7493,11.7534,11.8062,11.8468,11.9155,11.9437,11.9817,12.0214,11.976,11.8402,11.7655,11.7838,11.871,11.8359,11.8299,11.8983,11.8944,11.8895,11.8944,11.8944,11.8944,11.8847,11.8261,11.8066,11.7822,11.6992,11.6699,11.7003,11.626,11.6065,11.6309,11.5967,11.5723,11.5637,11.5211,11.4834,11.4532,11.4088,11.3489,11.284,11.2495,11.2419,11.1928,11.1864,11.1905,11.1921,11.1743,11.1852,11.1968,11.1593,11.1607,11.1864,11.2124,11.2406,11.2821,11.2907,11.2,11.1829,11.1002,11.0955,11.0801,11.0801,11.0801,11.0614,10.9819,10.9305,10.9399,10.9165,10.8408,10.7801,10.6726,10.6258,10.566,10.4632,10.5146,12.1248,12.1248,12.1287,12.1248,12.1248,12.1248,12.1199,12.1248,12.115,12.0955,12.115,12.1248,12.1043,12.115,12.036,11.953,11.8407,11.7539,11.6612,11.5809,11.5712,11.5712,11.5625,11.5437,11.4921,11.4422,11.4848,11.4312,11.2812,11.572,11.6243,11.4472,11.6857,11.7575,11.7127,11.7086,11.7045,11.7045,11.7045,11.7045,11.6998,11.6811,11.6711,11.6868,11.7227,11.7528,11.7802,11.8211,11.7891,11.6598,11.5705,11.6234,11.7751,11.7049,11.6872,11.7648,11.8006,11.8055,11.8017,11.7968,11.8251,11.831,11.7735,11.7344,11.7539,11.6699,11.6553,11.6759,11.6309,11.5967,11.6417,11.6065,11.5723,11.5599,11.5298,11.4769,11.4201,11.3641,11.284,11.1834,11.1689,11.1457,11.111,11.101,11.0972,11.0972,11.0933,11.0972,11.1143,11.0955,11.1033,11.0878,11.0886,11.0941,11.0988,11.0894,11.0847,11.0894,11.0894,11.0894,11.0801,11.0801,11.0801,11.0754,11.0053,10.9773,10.9679,10.9445,10.9259,10.8969,10.8362,10.8137,10.6875,10.5941,10.6642,11.9178,11.9129,11.914,11.9237,11.9286,11.9325,11.9335,11.9237,11.9237,11.9335,11.9286,11.9471,11.9335,11.9227,11.9286,11.8554,11.7529,11.7198,11.6699,11.5918,11.5712,11.5712,11.5637,11.5061,11.4391,11.3603,11.3518,11.3411,11.3052,11.45,11.5229,11.5167,11.6237,11.6998,11.6764,11.6957,11.6864,11.6724,11.6817,11.6817,11.677,11.6022,11.5836,11.6472,11.5924,11.5856,11.6283,11.6304,11.5566,11.4039,11.3708,11.4475,11.5704,11.5219,11.519,11.6065,11.5869,11.5869,11.5907,11.6016,11.6357,11.7236,11.7198,11.7637,11.8066,11.7334,11.6856,11.71,11.626,11.5723,11.5869,11.5723,11.5637,11.5625,11.5298,11.458,11.3603,11.327,11.2457,11.1303,11.0878,11.0839,11.0878,11.0801,11.0801,11.0801,11.0801,11.0801,11.0801,11.0801,11.0801,11.0801,11.0801,11.0941,11.1221,11.1128,11.0941,11.0988,11.1081,11.0941,11.0801,11.0801,11.0801,11.0707,11.038,11.0333,11.0193,10.9819,10.9586,10.9773,11.0146,11.052,11.0006,10.9165,10.9165,11.8944,11.8944,11.8944,11.8944,11.8944,11.8944,11.8944,11.8944,11.8944,11.8944,11.8895,11.8895,11.8944,11.8944,11.8944,11.8261,11.7295,11.7198,11.6661,11.5772,11.5712,11.5712,11.5637,11.5373,11.458,11.3451,11.2725,11.2271,11.1913,11.286,11.3446,11.3777,11.5227,11.5742,11.518,11.5648,11.5695,11.5134,11.5093,11.5087,11.4993,11.4673,11.4646,11.4838,11.4589,11.46,11.4696,11.3557,11.2553,11.2021,11.2271,11.3671,11.5666,11.5057,11.4807,11.5242,11.46,11.4075,11.46,11.4721,11.51,11.6016,11.626,11.6455,11.665,11.6602,11.6564,11.6954,11.626,11.5918,11.632,11.6113,11.5448,11.4985,11.4542,11.368,11.2725,11.2035,11.1419,11.111,11.0801,11.0801,11.0801,11.0801,11.0801,11.0801,11.0801,11.0801,11.0801,11.0801,11.0801,11.0801,11.0801,11.0988,11.1315,11.1221,11.0996,11.1081,11.1128,11.0941,11.0801,11.0801,11.0941,11.0847,11.0988,11.0894,11.1689,11.1081,11.066,11.0707,11.112,11.1081,11.0894,11.066,11.0988,11.7958,11.7958,11.7958,11.7958,11.7919,11.7958,11.7958,11.7909,11.7958,11.7909,11.7958,11.7958,11.7958,11.7871,11.7919,11.748,11.6759,11.671,11.6357,11.5809,11.5712,11.5712,11.5588,11.5362,11.458,11.3298,11.215,11.1342,11.1104,11.1915,11.2343,11.2663,11.4112,11.4572,11.4105,11.4619,11.4673,11.3972,11.3925,11.3925,11.3878,11.3598,11.3411,11.3411,11.313,11.2756,11.2436,11.1081,11.0193,10.9858,11.0684,11.2218,11.4083,11.4101,11.4098,11.4662,11.3477,11.3212,11.4056,11.3996,11.4168,11.4867,11.4844,11.4698,11.4735,11.4942,11.5381,11.5441,11.5772,11.5674,11.6038,11.5632,11.4926,11.4059,11.3352,11.2716,11.2477,11.1766,11.1149,11.0878,11.0801,11.0801,11.0801,11.0801,11.0801,11.0801,11.0801,11.0801,11.0801,11.0801,11.0801,11.0801,11.0801,11.0894,11.1034,11.0988,11.0894,11.0941,11.0941,11.0801,11.0801,11.0847,11.1081,11.1221,11.1455,11.1876,11.2943,11.313,11.285,11.2756,11.2289,11.1735,11.1268,11.1548,11.2195,11.5674,11.5674,11.5674,11.5674,11.5712,11.5674,11.5674,11.5821,11.5772,11.5918,11.6151,11.5907,11.6016,11.5869,11.6102,11.5821,11.5772,11.5723,11.5625,11.5625,11.5577,11.5528,11.5674,11.5072,11.4277,11.3423,11.1689,11.0917,11.0847,11.1689,11.2203,11.2436,11.3364,11.3785,11.3785,11.3785,11.3878,11.3644,11.3598,11.3691,11.3785,11.285,11.2343,11.2249,11.1315,11.038,10.9492,10.9352,10.8838,10.8128,10.882,11.0109,11.1902,11.2274,11.2495,11.3337,11.3269,11.3602,11.4101,11.3453,11.3268,11.3958,11.3233,11.2867,11.3098,11.3574,11.3794,11.349,11.4356,11.5137,11.444,11.4107,11.3678,11.305,11.1937,11.1915,11.2402,11.2285,11.1556,11.076,11.0474,11.0707,11.0754,11.0474,11.0333,11.038,11.052,11.0567,11.0567,11.0707,11.0801,11.0801,11.0801,11.0801,11.0801,11.0801,11.0754,11.0801,11.0801,11.0801,11.0801,11.0427,11.0614,11.1034,11.1175,11.1315,11.2289,11.2756,11.2896,11.3083,11.3411,11.2943,11.2249,11.1829,11.2709,11.3527,11.3527,11.3527,11.3575,11.3527,11.3527,11.3966,11.4563,11.4649,11.4991,11.5614,11.5712,11.5712,11.5712,11.5712,11.5712,11.5614,11.4905,11.4991,11.5577,11.4942,11.4991,11.5501,11.5411,11.4883,11.4012,11.2993,11.1881,11.1002,11.1128,11.1315,11.1361,11.2335,11.2483,11.2016,11.2522,11.2436,11.1915,11.1821,11.1782,11.1821,11.1455,11.1315,11.1034,10.9586,10.8502,10.8222,10.8175,10.8035,10.7754,10.7988,10.913,11.0991,11.1689,11.2342,11.3003,11.1933,11.1472,11.231,11.2252,11.246,11.3397,11.2644,11.2278,11.2687,11.2459,11.2414,11.2599,11.3283,11.3478,11.2817,11.1655,11.0705,11.0307,10.9539,10.9192,10.9399,10.9257,10.9039,10.8905,10.8829,10.8782,10.8651,10.8736,10.8782,10.8689,10.9352,10.9688,10.9866,11.0287,11.0801,11.0801,11.066,11.0614,11.052,11.01,10.996,11.0474,11.066,11.0754,11.0707,11.0053,10.9913,11.0388,11.066,11.0754,11.1081,11.1595,11.1829,11.1922,11.2296,11.2476,11.2055,11.1829,11.1689,11.255,11.255,11.255,11.255,11.255,11.255,11.2904,11.349,11.3539,11.3966,11.4454,11.4552,11.4747,11.5051,11.4698,11.4589,11.4454,11.3831,11.3917,11.4405,11.3868,11.3769,11.4119,11.413,11.357,11.2594,11.2038,11.1204,11.0309,11.024,11.0427,11.0847,11.1455,11.1502,11.1034,11.1455,11.1455,11.0847,11.0388,11.024,11.024,10.9866,10.9717,10.9586,10.8362,10.752,10.7146,10.71,10.6959,10.6585,10.6548,10.7483,10.9475,11.0129,11.0993,11.2067,11.111,11.0749,11.1537,11.1384,11.1593,11.2468,11.1722,11.1351,11.165,11.1307,11.0913,11.1124,11.1368,11.1174,11.047,10.8961,10.8035,10.8207,10.7669,10.7361,10.7567,10.7661,10.7661,10.7661,10.7661,10.7661,10.7801,10.7661,10.7661,10.7754,10.8268,10.8651,10.8791,10.9165,10.9577,10.9632,10.9717,10.9717,10.9679,10.9305,10.9445,11.0053,11.0614,11.0754,11.0801,11.0287,11.0006,11.0567,11.052,11.066,11.1494,11.1915,11.1922,11.1876,11.1315,11.1221,11.038,11.1175,11.0988,11.2404,11.2355,11.2355,11.2258,11.2355,11.2306,11.2392,11.2453,11.2453,11.255,11.2697,11.2648,11.3087,11.3794,11.2904,11.2502,11.2599,11.255,11.2599,11.2697,11.255,11.2087,11.1426,11.1389,11.0663,10.975,10.9574,10.9352,10.9318,10.925,10.9726,11.0567,11.0567,11.0614,11.052,11.052,11.0614,11.0333,10.9586,10.9174,10.9072,10.8128,10.7408,10.7107,10.7173,10.6511,10.584,10.5775,10.5466,10.4679,10.4726,10.565,10.7474,10.7792,10.882,11.0636,11.0831,11.1055,11.1615,11.1023,11.0807,11.1355,11.0641,11.0017,11.0102,10.9938,10.9439,10.8531,10.931,10.9009,10.7299,10.6419,10.6255,10.6926,10.6478,10.6529,10.7333,10.7193,10.752,10.738,10.724,10.7193,10.738,10.7567,10.7333,10.7333,10.752,10.7614,10.7661,10.7754,10.7941,10.7941,10.7894,10.7801,10.7903,10.8651,10.9174,10.9819,11.052,11.0801,11.0801,11.0754,11.066,11.0614,11.0146,11.0419,11.1634,11.1868,11.1315,11.0847,11.0146,10.9913,10.9212,11.0287,11.024,11.0159,11.0159,11.0123,11.0123,11.0159,11.0123,11.0562,11.1209,11.1294,11.1733,11.2502,11.255,11.2221,11.1733,11.1404,11.1782,11.2355,11.1684,11.1733,11.2404,11.1636,11.1321,11.1378,11.1389,11.0874,10.9948,10.9232,10.9048,10.8984,10.8467,10.8268,10.8502,10.8549,10.8549,10.8549,10.8511,10.8549,10.8549,10.8268,10.8128,10.7819,10.6314,10.4309,10.217,10.1908,10.1772,10.1501,10.1464,10.2415,10.4439,10.4585,10.552,10.752,10.7661,10.8642,11.052,11.0801,11.0917,11.111,11.0867,11.0804,11.0902,11.0094,10.9427,10.9113,10.8457,10.7861,10.714,10.6605,10.5994,10.5252,10.5023,10.5008,10.5242,10.5189,10.5099,10.539,10.5463,10.5409,10.5427,10.5226,10.5427,10.5436,10.5419,10.5633,10.568,10.6137,10.6548,10.6632,10.724,10.7661,10.7661,10.7623,10.7912,10.8698,10.908,10.9594,11.0146,11.0474,11.0801,11.0801,11.01,10.9726,11.0193,10.9025,10.8969,10.9764,10.8736,10.7763,10.7661,10.7062,10.6548,10.7623,10.7474,10.7614,11.0598,11.0598,11.0074,10.9635,10.928,10.928,10.9586,11.0172,11.0172,11.0562,11.1281,11.216,11.1916,11.0819,11.0855,11.0904,11.1135,11.0465,11.0562,11.1086,11.0513,11.0118,11.0036,11.006,10.9428,10.844,10.8351,10.7944,10.7375,10.7586,10.7661,10.7661,10.7661,10.7661,10.7661,10.7661,10.7661,10.7661,10.7287,10.5501,10.2768,10.1233,9.9631,9.7933,9.7706,9.8235,9.9564,10.0146,10.1195,10.2966,10.3473,10.3688,10.3568,10.4843,10.6155,10.7456,10.8764,10.8956,10.764,10.7517,10.7747,10.8121,10.8401,10.8981,10.953,10.7912,10.5318,10.2795,10.2399,10.2767,10.3246,10.4122,10.4139,10.3496,10.4076,10.4223,10.3394,10.3189,10.3335,10.3498,10.2216,10.1143,10.1645,10.256,10.3892,10.5625,10.4843,10.5434,10.6633,10.7287,10.7661,10.751,10.637,10.6504,10.819,10.8931,10.9445,11.0053,11.052,11.0801,11.0754,11.0193,10.9913,10.996,10.9632,10.9165,10.8371,10.7716,10.7202,10.6959,10.6174,10.5847,10.5884,10.6352,10.6211,11.1905,11.1844,11.0821,11.0016,10.9187,10.9307,10.944,10.9489,10.9573,10.9524,10.9733,11.1489,11.1782,11.1014,11.1001,11.0562,10.9782,10.9538,10.9586,10.9538,10.9391,10.888,10.8093,10.7973,10.7123,10.5965,10.6585,10.6219,10.4976,10.6492,10.7333,10.738,10.738,10.7333,10.738,10.7333,10.7183,10.6967,10.5738,10.1773,9.5278,9.4852,9.4779,9.4557,9.4518,9.598,9.8599,9.9912,10.0468,10.0697,10.1363,10.0652,9.8785,10.073,10.2672,10.3581,10.6151,10.6408,10.3773,10.3037,10.3446,10.4246,10.6124,10.7688,10.865,10.6365,10.181,9.7252,9.7557,9.9257,10.0537,10.2052,10.2129,10.0592,10.1994,10.2997,10.1101,10.0685,10.1116,10.2204,9.9256,9.6636,9.8425,9.9693,10.2086,10.4414,10.2771,10.2582,10.561,10.6135,10.5734,10.5971,10.4473,10.3903,10.5979,10.7915,10.8526,10.8857,10.9854,11.0707,11.0801,11.0754,11.0801,11.052,11.052,11.01,10.9539,10.9034,10.8558,10.738,10.6959,10.7146,10.7333,10.71,10.6445,10.8178,10.8251,10.8538,10.8548,10.8487,10.9872,11.0429,11.0526,11.1392,11.1294,11.0575,11.0916,11.1538,11.2075,11.216,11.1977,11.1818,11.1818,11.1294,11.0477,11.0429,10.9272,10.7327,10.7207,10.633,10.4987,10.5075,10.5039,10.4669,10.5053,10.524,10.5286,10.5286,10.5286,10.5286,10.524,10.4013,10.1465,9.8788,9.6557,9.4929,9.4852,9.3919,9.2199,9.2004,9.2607,9.3899,9.4225,9.5205,9.7034,9.7357,9.8415,10.0307,10.1148,10.303,10.6202,10.7284,10.7322,10.6521,10.4263,10.2934,10.3196,10.3671,10.2749,9.9943,9.7072,9.492,9.43,9.3985,9.4429,9.5322,9.5913,9.6098,9.6361,9.6813,9.7177,9.7202,9.7142,9.842,10.146,9.929,9.7769,9.9357,9.8546,9.7554,9.7953,9.7713,9.9101,10.2313,10.1221,10.0631,10.1349,10.1512,10.1337,10.1953,10.443,10.6012,10.6434,10.8495,10.963,11.0111,11.0475,11.0638,11.015,11.0351,10.9654,10.9208,10.8453,10.7482,10.6427,10.583,10.5427,10.5473,10.5473,10.5053,10.8424,10.8486,10.8696,10.8792,10.8864,10.9667,11.0123,11.0077,10.9858,10.9138,10.8515,11.0252,11.0981,11.0786,11.1078,11.1224,11.1151,10.9553,10.9836,11.1369,10.9556,10.8469,10.8154,10.8142,10.7095,10.5252,10.5602,10.5383,10.4522,10.3533,10.282,10.2251,10.0871,10.0117,10.0117,10.0117,9.9257,9.748,9.3854,9.1263,8.9872,9.0119,8.9699,8.8389,8.9092,9.017,9.1782,9.2224,9.2907,9.375,9.4282,9.4482,9.4499,9.5864,9.7495,9.9512,10.0964,10.1154,9.9704,9.7933,9.7132,9.7555,9.8185,9.6336,9.1069,9.0275,8.9676,8.8759,8.9607,9.0483,9.1394,9.2352,9.2743,9.2258,9.3149,9.3428,9.3001,9.3074,9.4361,9.649,9.4417,9.3023,9.4766,9.4353,9.3388,9.2092,9.5063,9.7858,10.0371,9.6525,9.4324,9.8211,9.7981,9.7698,9.9185,10.1024,10.1897,10.2095,10.371,10.4733,10.4929,10.4851,10.4812,10.4929,10.4851,10.4531,10.3428,10.3946,10.4172,10.3564,10.3644,10.4606,10.4585,10.4585,10.344,10.9122,10.9233,10.9127,10.8827,10.8368,10.8298,10.8068,10.7615,10.6024,10.52,10.5137,10.8704,10.927,10.7525,10.8077,10.8334,10.815,10.5747,10.6846,11.0559,10.8232,10.7416,10.8117,10.87,10.7371,10.4673,10.5761,10.552,10.3919,10.2477,10.1007,9.9571,9.6911,9.5473,9.5103,9.5064,9.4607,9.3767,9.0187,8.7016,8.4403,8.4929,8.5195,8.5003,8.66,8.8411,9.0221,9.1339,9.138,9.0061,9.078,8.9817,8.6621,8.8949,9.0327,9.0669,9.3059,9.3283,9.062,9.0308,9.0477,9.0848,9.1954,9.0005,8.3967,8.5015,8.4884,8.2241,8.4347,8.6457,8.7564,8.9164,8.95,8.8268,8.9731,9.0295,8.8603,8.882,8.9816,9.1411,8.8216,8.6701,8.8399,8.9421,8.9343,8.8434,9.1301,9.5944,9.5528,9.1406,9.0279,9.4231,9.363,9.3229,9.4993,9.6457,9.6928,9.7012,9.7601,9.8453,9.8492,9.8492,9.8453,9.7865,9.8507,9.8011,9.7038,9.8636,9.9874,9.9492,10.0887,10.251,10.2473,10.2217,10.0736,10.4475,10.4594,10.5895,10.4872,10.2463,10.3063,10.2275,10.0606,10.055,0.0,0.0,10.427,10.3795,10.1822,10.1898,10.1937,10.2129,10.4691,10.4643,10.2624,10.8582,10.7538,10.0805,10.416,10.2992,9.8045,10.0748,10.1593,10.073,10.2915,10.2537,9.9938,9.9182,9.7834,9.5956,9.5801,9.348,8.8948,8.7439,8.6754,8.6827,8.6938,8.6369,8.5005,8.6559,8.6997,8.6117,8.7577,8.7078,8.4161,8.4122,8.479,8.604,8.6038,8.8067,9.239,9.2833,9.2521,9.1959,9.1964,9.0838,8.8343,8.8403,8.6305,8.1134,7.9871,7.9065,7.8474,7.8954,7.9669,8.0475,8.1615,8.235,8.2626,8.3551,8.4363,8.4666,8.4815,8.6308,8.9262,8.7203,8.6008,8.8078,8.6701,8.4843,8.4832,8.6486,8.7585,8.8041,8.6927,8.6259,8.8294,8.7865,8.6903,8.8335,9.0142,9.1761,9.2368,9.4233,9.5828,9.59,9.59,9.59,9.5285,9.6429,9.6034,9.5516,9.6076,9.6799,9.5903,9.6227,9.657,9.644,9.5509,9.4104,10.2449,10.2532,10.3752,10.3356,0.0,10.1014,9.6854,9.0517,9.0684,9.315,9.708,9.8079,9.8523,9.8561,9.7386,9.7416,9.8329,9.8482,9.9128,10.0269,10.2218,10.2142,10.0564,10.269,10.1662,9.8069,10.0082,9.9962,9.7917,9.8242,9.7533,9.5985,9.3962,9.2316,9.1139,9.1139,8.9696,8.6903,8.6068,8.5612,8.5612,8.5992,8.5802,8.5043,8.6638,0.0,0.0,0.0,0.0,0.0,0.0,0.0,0.0,8.267,0.0,8.5786,8.4474,8.3744,8.4111,8.4151,8.4019,8.376,8.3726,8.2149,7.8432,7.8171,7.783,7.6994,7.7298,7.7716,7.8133,7.8513,7.8968,7.931,7.9728,8.007,8.0639,8.1399,8.2779,8.4555,8.4242,8.4076,8.5528,8.4048,8.3147,8.3107,8.3447,8.4137,8.4779,8.4246,8.3788,8.4206,8.3902,8.3826,8.4327,8.5564,8.6428,8.678,8.7912,8.8757,8.8872,8.8833,8.8872,8.8912,8.9156,8.928,8.8914,9.0469,9.1711,9.1373,9.2428,9.2694,8.9099,8.7917,8.7313,9.9622,9.9658,10.052,10.0459,9.976,9.7785,9.2007,8.4,8.2817,8.5786,9.1326,9.1883,9.2915,9.4053,9.2229,9.225,9.3609,9.15,9.2902,9.7128,9.5189,9.6154,9.934,10.0241,9.9437,9.7335,9.8571,9.7717,9.4868,9.3454,9.2505,9.1822,8.8649,8.6794,8.6337,0.0,0.0,0.0,8.5499,8.4967,8.4511,8.5081,8.5233,8.4777,8.6331,0.0,8.5461,8.565,8.4891,8.2994,8.2803,0.0,0.0,0.0,0.0,0.0,0.0,0.0,0.0,0.0,0.0,0.0,7.8512,7.76,7.5741,7.6882,7.6996,7.525,7.6273,7.6956,7.6653,7.6994,7.7298,7.7298,7.7486,7.7526,7.7602,7.8778,7.9614,7.9614,8.0715,8.1512,8.1552,8.1663,8.1777,8.1891,8.2119,8.2309,8.2576,8.2006,8.1701,8.1739,8.1929,8.1967,8.2006,8.1741,8.1744,8.1663,8.1625,8.1666,8.1821,8.1705,8.159,8.1705,8.1739,8.2161,8.2199,8.4438,8.6671,8.6514,8.8566,8.8661,8.2857,8.1551,8.155,9.214,9.2263,9.3265,9.2011,8.9335,8.853,8.889,8.9657,8.4408,8.4608,8.8708,8.7539,8.6021,8.4324,8.3976,8.4014,8.4402,8.748,8.783,8.6343,9.2816,9.323,8.8593,9.2197,9.1892,8.8254,9.1019,9.1884,9.0877,9.3296,9.3068,9.0371,8.9818,8.847,8.638,8.6296,8.5957,8.5157,8.5802,8.641,8.6976,8.709,8.6144,8.4134,8.5575,8.5043,8.2158,8.3297,8.2613,7.9576,7.9387,7.9311,7.9159,7.7526,7.6539,0.0,7.4833,0.0,0.0,0.0,0.0,0.0,0.0,0.0,0.0,7.3805,7.3318,7.0996,7.3539,7.4752,7.3274,7.5131,7.6387,7.6387,7.707,7.7526,7.7526,7.7716,7.7867,7.7867,7.8094,7.8134,7.8323,7.8779,7.9538,8.0297,8.0867,8.0601,7.8931,7.8969,7.9349,7.9197,7.988,8.0373,8.0297,7.9196,7.8589,7.9045,7.8855,7.8209,7.8361,7.8323,7.8247,7.8399,7.9462,8.0335,8.0373,8.182,8.3008,8.3087,8.3551,8.2739,7.9457,7.8438,7.8437,9.3365,9.342,9.3859,8.9385,8.1969,8.1639,8.2361,8.3431,8.0715,8.0555,8.2399,8.3489,8.3281,8.2083,8.0441,7.9956,8.0525,8.2806,8.3349,8.2626,8.671,8.7999,8.7088,8.8922,8.8812,8.7016,8.8824,8.8867,8.7365,8.9147,8.9623,8.8609,8.818,8.6449,8.3678,8.5385,8.6106,8.5726,8.6106,8.622,8.6068,8.565,8.4891,8.383,8.4018,8.3409,8.1967,8.2612,8.212,8.0259,7.9728,7.9272,7.8704,7.4947,7.3315,0.0,0.0,0.0,0.0,0.0,0.0,0.0,0.0,0.0,0.0,0.0,7.0507,7.1337,7.3612,7.3919,7.1375,7.2932,7.3957,7.3536,7.3426,7.3919,7.5286,7.5438,7.5744,7.6691,7.7222,7.7526,7.7564,7.7867,7.8247,7.8627,7.8969,7.8627,7.7222,7.7489,7.8058,7.8095,7.8399,7.8702,7.8665,7.8019,7.7714,7.7981,7.7755,7.7526,7.7526,7.7526,7.7526,7.7564,7.8133,7.8702,7.8665,7.9273,7.9728,7.9728,7.9728,7.9196,7.7867,7.7526,7.764,9.0862,9.0908,9.1331,8.6326,7.8112,7.7367,7.7197,7.7318,7.6673,7.6349,7.6529,7.9048,7.9882,7.9383,7.7117,7.6729,7.7869,7.8588,7.9424,8.0373,8.098,8.274,8.5332,8.5606,8.5805,8.6006,8.6603,8.6036,8.4439,8.4853,8.5309,8.5688,8.5119,8.3564,8.1171,8.3524,8.5005,8.5385,8.5385,8.5003,8.432,8.3752,8.3488,8.3448,8.2764,8.2346,8.2196,8.1967,8.1474,8.0677,7.9348,7.8247,7.7527,7.2594,0.0,0.0,0.0,0.0,0.0,0.0,0.0,0.0,0.0,6.7161,6.5522,0.0,6.8224,0.0,7.2587,7.2552,7.0241,7.0962,0.0,0.0,6.99,7.0127,7.1987,7.2746,7.3656,7.5172,7.6083,7.6691,7.6955,7.7108,7.7032,7.6425,7.6501,7.6387,7.5779,7.6387,7.7031,7.7184,7.726,7.7222,7.7297,7.7222,7.7146,7.6956,7.6918,7.6993,7.6955,7.6955,7.6955,7.6918,7.7107,7.7222,7.726,7.745,7.7448,7.6766,7.6804,7.6956,7.6993,7.6918,7.7031,7.7707,7.7856,7.9445,7.9924,7.9454,7.6879,7.6171,7.659,7.4023,7.2894,7.3004,7.397,7.354,7.2233,7.1924,0.0,7.5321,7.5359,7.6309,7.783,7.7905,7.8471,7.9456,8.0294,8.1057,8.1745,8.1782,8.2086,8.2574,8.2006,8.1322,8.0677,8.0601,8.0449,8.0183,8.0449,8.1284,8.2726,8.2764,8.2726,8.265,8.2574,8.2536,8.2536,8.2421,8.2081,8.136,8.0639,7.9879,7.8893,7.5895,7.4115,7.3998,0.0,0.0,0.0,0.0,0.0,0.0,0.0,0.0,0.0,0.0,0.0,0.0,0.0,0.0,6.6769,6.8332,0.0,6.9938,6.9444,0.0,0.0,0.0,6.7763,6.7921,7.008,7.1865,7.2704,0.0,0.0,7.5131,7.5817,7.5476,7.3198,7.3505,7.396,7.3884,7.464,7.5476,7.6121,7.6273,7.6311,7.6121,7.6197,7.5931,7.5359,7.5245,7.5245,7.5207,7.5245,7.5243,7.5245,7.5815,7.6273,7.6273,7.6841,7.6804,7.4453,7.4678,7.5243,7.5245,7.5283,7.5511,7.5176,7.0316,7.1455,7.2416,7.3013,7.1409,7.1748,7.3365,7.1689,7.0962,7.1034,7.1304,7.0507,6.8984,6.8946,0.0,0.0,0.0,7.2894,7.4564,7.5552,7.6765,7.7981,7.8399,7.874,7.9044,7.9044,7.969,8.0981,8.0715,7.8057,7.3536,0.0,0.0,7.559,7.855,8.0411,8.1019,8.1929,8.2422,8.2422,8.2422,8.1967,8.1057,8.0449,7.9804,7.9044,7.874,7.7678,7.5744,7.3922,7.229,0.0,0.0,0.0,0.0,0.0,0.0,0.0,0.0,0.0,0.0,0.0,6.1305,5.9672,0.0,0.0,0.0,6.2909,6.3091,6.3934,6.5977,0.0,0.0,0.0,0.0,0.0,0.0,0.0,7.0692,7.1228,7.1759,7.2701,7.3463,7.346,7.1979,7.2476,7.2818,7.2325,0.0,7.3577,7.3919,7.3957,7.3957,7.3957,7.3957,7.3881,7.3539,7.3463,7.3498,7.3501,7.3498,7.3536,7.3574,7.3729,7.3957,7.3957,7.4261,7.4109,7.3198,7.3274,7.3498,7.3536,7.3916,7.4299,7.1377,0.0,0.0,0.0,0.0,6.5946,6.6889,6.875,6.818,6.7883,6.785,6.7883,0.0,0.0,0.0,0.0,0.0,0.0,6.9971,7.1797,7.3536,7.498,7.6121,7.6349,7.6577,7.6804,7.6841,7.7335,7.8133,7.7297,7.403,6.8566,0.0,0.0,0.0,0.0,7.8626,7.9386,8.0943,8.1739,8.1778,8.1512,8.0829,7.9727,7.8855,7.8133,7.7564,7.6615,7.5248,7.3391,7.0996,0.0,0.0,0.0,0.0,0.0,0.0,0.0,0.0,0.0,0.0,0.0,0.0,0.0,0.0,0.0,0.0,0.0,0.0,0.0,5.9644,6.2331,6.3129,0.0,0.0,0.0,0.0,0.0,0.0,0.0,0.0,0.0,6.951,7.0388,7.1034,0.0,0.0,7.1979,7.1409,7.2017,7.2514,7.2514,7.2514,0.0,7.2514,7.2514,7.2514,7.2514,7.2514,7.2514,7.2514,7.2514,7.2514,7.2514,7.2514,7.2325,7.1907,7.1793,7.1941,7.2131,7.2135,7.2211,7.2476,7.2898,7.335,0.0,0.0,0.0,0.0,0.0,0.0,0.0,0.0,6.293,6.2968,0.0,6.2968,0.0,0.0,0.0,0.0,6.3934,6.5598,0.0,0.0,7.1717,7.259,7.2666,7.3429,7.4226,7.5056,7.498,7.46,7.3656,7.0692,0.0,0.0,0.0,0.0,0.0,0.0,7.5098,7.76,7.9234,8.0145,8.0145,7.9348,7.8855,7.8741,7.8019,7.7526,7.7412,7.4375,7.2628,7.2438,6.6465,0.0,0.0,0.0,0.0,0.0,0.0,0.0,0.0,0.0,0.0,0.0,0.0,0.0,0.0,0.0,0.0,0.0,0.0,0.0,0.0,5.8847,0.0,0.0,0.0,0.0,0.0,0.0,0.0,0.0,0.0,6.6864,6.5353,6.6598,6.8186,6.9786,0.0,0.0,0.0,0.0,7.2442,7.2476,7.2476,7.2476,7.2476,7.2476,7.2438,7.2476,0.0,0.0,7.2476,7.2476,7.24,7.2476,7.24,7.1983,7.0317,6.9938,7.0236,7.1029,7.1177,7.1561,7.2249,7.2211,7.24,0.0,0.0,0.0,0.0,0.0,0.0,0.0,0.0,0.0,6.2255,6.1732,6.1694,0.0,0.0,0.0,0.0,0.0,0.0,0.0,0.0,6.7161,6.8142,6.7623,6.9591,6.9781,0.0,6.9054,6.8029,0.0,0.0,0.0,0.0,0.0,0.0,0.0,0.0,7.2852,7.4334,7.7031,7.8399,7.8436,7.817,7.7981,7.7943,7.7108,7.5701,7.3574,7.1793,7.0123,0.0,0.0,0.0,0.0,0.0,0.0,0.0,0.0,0.0,0.0,0.0,0.0,0.0,0.0,0.0,0.0,0.0,0.0,0.0,0.0,0.0,0.0,0.0,5.7963,0.0,0.0,0.0,0.0,0.0,0.0,0.0,0.0,0.0,6.2132,6.4437,6.6705,6.8122,6.9553,7.0464,7.0464,0.0,0.0,0.0,0.0,0.0,0.0,0.0,7.0085,7.0118,6.9591,6.9211,6.9179,6.9705,7.0085,7.0085,0.0,0.0,6.7205,6.6712,6.6756,6.7085,6.7649,6.8137,6.8408,6.932,7.0085,0.0,0.0,0.0,0.0,0.0,0.0,0.0,0.0,0.0,5.971,5.9188,0.0,0.0,0.0,0.0,0.0,0.0,0.0,0.0,0.0,0.0,0.0,6.376,6.5756,0.0,0.0,0.0,0.0,0.0,0.0,0.0,0.0,0.0,0.0,0.0,0.0,7.1447,7.259,7.5855,7.7526,7.7526,7.726,7.6956,7.6691,7.5819,7.3957,7.0991,0.0,0.0,0.0,0.0,0.0,0.0,0.0,0.0,0.0,0.0,0.0,0.0,0.0,0.0,0.0,0.0,0.0,0.0,0.0,0.0,0.0,0.0,0.0,0.0,0.0,5.6493,0.0,0.0,0.0,0.0,0.0,0.0,0.0,0.0,0.0,0.0,0.0,6.3992,6.6504,6.7745,6.8864,6.9829,7.0013,7.0013,0.0,0.0,0.0,0.0,0.0,0.0,0.0,0.0,0.0,0.0,0.0,0.0,0.0,0.0,6.7553,6.5315,6.4898,6.4898,6.4898,0.0,0.0,0.0,0.0,0.0,0.0,0.0,0.0,0.0,0.0,0.0,0.0,0.0,0.0,0.0,5.505,0.0,0.0,5.3912,0.0,0.0,0.0,0.0,0.0,0.0,0.0,0.0,0.0,0.0,0.0,0.0,0.0,0.0,0.0,0.0,0.0,0.0,0.0,0.0,0.0,0.0,7.0697,7.24,7.5628,7.7374,7.7336,7.6577,7.5741,7.5018,7.4147,7.2518,7.0051,0.0,0.0,0.0,0.0,0.0,0.0,0.0,0.0,0.0,0.0,0.0,0.0,0.0,0.0,0.0,0.0,0.0,0.0,0.0,0.0,0.0,0.0,0.0,0.0,0.0,0.0,5.3089,5.4808,5.601,0.0,0.0,0.0,0.0,0.0,0.0,0.0,0.0,0.0,6.4735,6.5466,6.6633,6.9459,6.9867,6.9867,6.9976,6.9905,6.9905,6.9976,6.9938,6.9401,0.0,0.0,0.0,0.0,0.0,0.0,0.0,0.0,0.0,0.0,0.0,0.0,0.0,0.0,0.0,0.0,0.0,0.0,0.0,0.0,0.0,0.0,0.0,0.0,0.0,0.0,0.0,0.0,0.0,0.0,0.0,0.0,0.0,0.0,0.0,0.0,0.0,0.0,0.0,0.0,0.0,0.0,0.0,0.0,0.0,0.0,0.0,0.0,0.0,0.0,0.0,0.0,0.0,0.0,6.8224,6.9895,7.259,7.3995,7.4033,7.3729,7.3501,7.3308,7.3008,7.1949,0.0,0.0,0.0,0.0,0.0,0.0,0.0,0.0,0.0,0.0,0.0,0.0,0.0,0.0,0.0,0.0,0.0,0.0,0.0,0.0,0.0,0.0,0.0,0.0,0.0,0.0,0.0,0.0,5.7137,5.6865,5.5562,0.0,0.0,0.0,0.0,0.0,0.0,0.0,0.0,0.0,0.0,6.6661,6.7536,6.7649,6.8225,6.9791,6.8663,6.8225,6.9687,6.9482,6.9022,6.849,0.0,0.0,0.0,0.0,0.0,0.0,0.0,0.0,0.0,0.0,0.0,0.0,0.0,0.0,0.0,0.0,0.0,0.0,0.0,0.0,0.0,0.0,0.0,0.0,0.0,0.0,0.0,0.0,0.0,0.0,0.0,0.0,0.0,0.0,0.0,0.0,0.0,0.0,0.0,0.0,0.0,0.0,0.0,0.0,0.0,0.0,0.0,0.0,0.0,0.0,0.0,0.0,0.0,6.7199,6.8332,7.1072,7.2514,7.2514,7.2514,7.2397,7.2093,7.2055,7.0806,0.0,0.0,0.0,0.0,0.0,0.0,0.0,0.0,0.0,0.0,0.0,0.0,0.0,0.0,0.0,0.0,0.0,0.0,0.0,0.0,0.0,0.0,0.0,0.0,0.0,0.0,0.0,0.0,5.5348,5.5348,5.4289,0.0,0.0,0.0,0.0,0.0,0.0,0.0,0.0,0.0,0.0,6.4337,6.5528,6.5934,0.0,0.0,6.7703,6.7353,6.9227,6.9401,6.8767,6.7254,6.6548,0.0,0.0,0.0,0.0,0.0,0.0,0.0,0.0,0.0,0.0,0.0,0.0,0.0,0.0,0.0,0.0,0.0,0.0,0.0,0.0,0.0,0.0,0.0,0.0,0.0,0.0,0.0,0.0,0.0,0.0,0.0,0.0,0.0,0.0,0.0,0.0,0.0,0.0,0.0,0.0,0.0,0.0,0.0,0.0,0.0,0.0,0.0,0.0,0.0,0.0,0.0,0.0,0.0,6.7541,7.0654,7.2325,7.2325,7.2325,7.1979,7.1291,7.1253,6.9282,0.0,0.0,0.0,0.0,0.0,0.0,0.0,0.0,0.0,0.0,0.0,0.0,0.0,0.0,0.0,0.0,0.0,0.0,0.0,0.0,0.0,0.0,0.0,0.0,0.0,0.0,0.0,0.0,0.0,0.0,0.0,0.0,0.0,0.0,0.0,0.0,0.0,0.0,0.0,0.0,0.0,6.0698,6.3744,6.4635,6.5541,0.0,6.6734,6.6768,6.8215,6.9113,6.8425,6.4691,0.0,0.0,0.0,0.0,0.0,0.0,0.0,0.0,0.0,0.0,0.0,0.0,0.0,0.0,0.0,0.0,0.0,0.0,0.0,0.0,0.0,0.0,0.0,0.0,0.0,0.0,0.0,0.0,0.0,0.0,0.0,0.0,0.0,0.0,0.0,0.0,0.0,0.0,0.0,0.0,0.0,0.0,0.0,0.0,0.0,0.0,0.0,0.0,0.0,0.0,0.0,0.0,0.0,0.0,6.7465,6.952,7.0621,7.0654,7.0583,7.0507,7.035,7.035,0.0,0.0,0.0,0.0,0.0,0.0,0.0,0.0,0.0,0.0,0.0,0.0,0.0,0.0,0.0,0.0,0.0,0.0,0.0,0.0,0.0,0.0,0.0,0.0,0.0,0.0,0.0,4.9621,0.0,0.0,0.0,0.0,0.0,0.0,0.0,0.0,0.0,0.0,0.0,0.0,0.0,0.0,6.1261,6.3781,6.2878,6.2892,0.0,0.0,6.2715,6.4311,6.5652,6.5784,0.0,0.0,0.0,0.0,0.0,0.0,0.0,0.0,0.0,0.0,0.0,0.0,0.0,0.0,0.0,0.0,0.0,0.0,0.0,0.0,0.0,0.0,0.0,0.0,0.0,0.0,0.0,0.0,0.0,0.0,0.0,0.0,0.0,0.0,0.0,0.0,0.0,0.0,0.0,0.0,0.0,0.0,0.0,0.0,0.0,0.0,0.0,0.0,0.0,0.0,0.0,0.0,0.0,0.0,6.545,6.6554,6.8442,6.9444,6.9482,6.9477,6.9292,6.8875,6.8875,6.7186,0.0,0.0,0.0,0.0,0.0,0.0,0.0,0.0,0.0,0.0,0.0,0.0,0.0,0.0,0.0,0.0,0.0,0.0,0.0,0.0,0.0,0.0,0.0,0.0,0.0,0.0,0.0,0.0,0.0,0.0,0.0,0.0,0.0,0.0,0.0,0.0,0.0,0.0,0.0,0.0,0.0,0.0,6.0573,6.0195,0.0,0.0,0.0,6.1245,6.2868,0.0,0.0,0.0,0.0,0.0,0.0,0.0,0.0,0.0,0.0,0.0,0.0,0.0,0.0,0.0,0.0,0.0,0.0,0.0,0.0,0.0,0.0,0.0,0.0,0.0,0.0,0.0,0.0,0.0,0.0,0.0,0.0,0.0,0.0,0.0,0.0,0.0,0.0,0.0,0.0,0.0,0.0,0.0,0.0,0.0,0.0,0.0,0.0,0.0,0.0,0.0,0.0,0.0,0.0,0.0,0.0,0.0,6.5466,6.7664,6.8794,6.8826,6.8712,6.8262,6.7465,6.7351,6.5577,0.0,0.0,0.0,0.0,0.0,0.0,0.0,0.0,0.0,0.0,0.0,0.0,0.0,0.0,0.0,0.0,0.0,0.0,0.0,0.0,0.0,0.0,0.0,0.0,0.0,0.0,0.0,0.0,0.0,0.0,0.0,0.0,0.0,0.0,0.0,0.0,0.0,0.0,0.0,0.0,0.0,5.6974,5.6493,5.7454,5.8399,0.0,0.0,6.0654,6.2128,6.3502,0.0,0.0,0.0,0.0,0.0,0.0,0.0,0.0,0.0,0.0,0.0,0.0,0.0,0.0,0.0,0.0,0.0,0.0,0.0,0.0,0.0,0.0,0.0,0.0,0.0,0.0,0.0,0.0,0.0,0.0,0.0,0.0,0.0,0.0,0.0,0.0,0.0,0.0,0.0,0.0,0.0,0.0,0.0,0.0,0.0,0.0,0.0,0.0,0.0,0.0,0.0,0.0,0.0,0.0,0.0,0.0,6.6125,6.7888,6.8794,6.8794,6.8072,6.7655,6.7427,6.682,6.5225,0.0,0.0,0.0,0.0,0.0,0.0,0.0,0.0,0.0,0.0,0.0,0.0,0.0,0.0,0.0,0.0,0.0,0.0,0.0,0.0,0.0,0.0,0.0,0.0,0.0,0.0,0.0,0.0,0.0,0.0,0.0,0.0,0.0,0.0,0.0,0.0,0.0,0.0,0.0,0.0,0.0,5.6534,5.7693,5.6975,0.0,0.0,0.0,0.0,5.8347,5.8749,0.0,0.0,0.0,0.0,0.0,0.0,0.0,0.0,0.0,0.0,0.0,0.0,0.0,0.0,0.0,0.0,0.0,0.0,0.0,0.0,0.0,0.0,0.0,0.0,0.0,0.0,0.0,0.0,0.0,0.0,0.0,0.0,0.0,0.0,0.0,0.0,0.0,0.0,0.0,0.0,0.0,0.0,0.0,0.0,0.0,0.0,0.0,0.0,0.0,0.0,0.0,0.0,0.0,0.0,0.0,0.0,6.4605,6.6138,6.694,6.6933,6.6478,6.6029,6.5681,6.4914,6.3079,0.0,0.0,0.0,0.0,0.0,0.0,0.0,0.0,0.0,0.0,0.0,0.0,0.0,0.0,0.0,0.0,0.0,0.0,0.0,0.0,0.0,0.0,0.0,0.0,0.0,0.0,0.0,0.0,0.0,0.0,0.0,0.0,0.0,0.0,0.0,0.0,0.0,0.0,0.0,0.0,5.4337,5.5137,5.5629,0.0,0.0,0.0,0.0,0.0,0.0,5.6979,5.7301,0.0,0.0,0.0,0.0,0.0,0.0,0.0,0.0,0.0,0.0,0.0,0.0,0.0,0.0,0.0,0.0,0.0,0.0,0.0,0.0,0.0,0.0,0.0,0.0,0.0,0.0,0.0,0.0,0.0,0.0,0.0,0.0,0.0,0.0,0.0,0.0,0.0,0.0,0.0,0.0,0.0,0.0,0.0,0.0,0.0,0.0,0.0,0.0,0.0,0.0,0.0,0.0,0.0,0.0,0.0,6.2591,6.3987,6.4739,6.4739,6.4625,6.4238,6.3554,6.2816,6.0708,5.732,0.0,0.0,0.0,0.0,0.0,0.0,0.0,0.0,0.0,0.0,0.0,0.0,0.0,0.0,0.0,0.0,0.0,0.0,0.0,0.0,0.0,0.0,0.0,0.0,0.0,0.0,0.0,0.0,0.0,0.0,0.0,0.0,0.0,0.0,0.0,0.0,0.0,0.0,0.0,5.3009,5.3707,0.0,0.0,0.0,0.0,0.0,0.0,0.0,0.0,5.6546,0.0,0.0,0.0,0.0,0.0,0.0,0.0,0.0,0.0,0.0,0.0,0.0,0.0,0.0,0.0,0.0,0.0,0.0,0.0,0.0,0.0,0.0,0.0,0.0,0.0,0.0,0.0,0.0,0.0,0.0,0.0,0.0,0.0,0.0,0.0,0.0,0.0,0.0,0.0,0.0,0.0,0.0,0.0,0.0,0.0,0.0,0.0,0.0,0.0,0.0,0.0,0.0,0.0,0.0,0.0,0.0,6.3216,6.3904,6.3934,6.3281,6.2901,6.2749,6.1922,6.0049,5.7125,0.0,0.0,0.0,0.0,0.0,0.0,0.0,0.0,0.0,0.0,0.0,0.0,0.0,0.0,0.0,0.0,0.0,0.0,0.0,0.0,0.0,0.0,0.0,0.0,0.0,0.0,0.0,0.0,0.0,0.0,0.0,0.0,0.0,0.0,0.0,0.0,0.0,0.0,5.1582,5.2867,0.0,0.0,0.0,0.0,0.0,0.0,0.0,0.0,5.4822,0.0,0.0,0.0,0.0,0.0,0.0,0.0,0.0,0.0,0.0,0.0,0.0,0.0,0.0,0.0,0.0,0.0,0.0,0.0,0.0,0.0,0.0,0.0,0.0,0.0,0.0,0.0,0.0,0.0,0.0,0.0,0.0,0.0,0.0,0.0,0.0,0.0,0.0,0.0,0.0,0.0,0.0,0.0,0.0,0.0,0.0,0.0,0.0,0.0,0.0,0.0,0.0,0.0,0.0,0.0,0.0,0.0,0.0,6.2061,6.2386,6.2103,6.1846,6.1808,6.0344,5.8469,0.0,0.0,0.0,0.0,0.0,0.0,0.0,0.0,0.0,0.0,0.0,0.0,0.0,0.0,0.0,0.0,0.0,0.0,0.0,0.0,0.0,0.0,0.0,0.0,0.0,0.0,0.0,0.0,0.0,0.0,0.0,0.0,0.0,0.0,0.0,0.0,0.0,0.0,0.0,0.0,0.0,0.0,0.0,0.0,0.0,0.0,0.0,0.0,0.0,0.0,0.0,0.0,0.0,0.0,0.0,0.0,0.0,0.0,0.0,0.0,0.0,0.0,0.0,0.0,0.0,0.0,0.0,0.0,0.0,0.0,0.0,0.0,0.0,0.0,0.0,0.0,0.0,0.0,0.0,0.0,0.0,0.0,0.0,0.0,0.0,0.0,0.0,0.0,0.0,0.0,0.0,0.0,0.0,0.0,0.0,0.0,0.0,0.0,0.0,0.0,0.0,0.0,0.0,0.0,0.0,0.0,0.0,0.0,6.0488,6.0982,6.0982,6.0982,6.0944,5.8816,5.7061,0.0,0.0,0.0,0.0,0.0,0.0,0.0,0.0,0.0,0.0,0.0,0.0,0.0,0.0,0.0,0.0,0.0,0.0,0.0,0.0,0.0,0.0,0.0,0.0,0.0,0.0,0.0,0.0,0.0,0.0,0.0,0.0,0.0,0.0,0.0,0.0,0.0,0.0,0.0,0.0,0.0,0.0,0.0,0.0,0.0,0.0,0.0,0.0,5.3055,0.0,0.0,0.0,0.0,0.0,0.0,0.0,0.0,0.0,0.0,0.0,0.0,0.0,0.0,0.0,0.0,0.0,0.0,0.0,0.0,0.0,0.0,0.0,0.0,0.0,0.0,0.0,0.0,0.0,0.0,0.0,0.0,0.0,0.0,0.0,0.0,0.0,0.0,0.0,0.0,0.0,0.0,0.0,0.0,0.0,0.0,0.0,0.0,0.0,0.0,0.0,0.0,0.0,0.0,0.0,0.0,0.0,0.0,0.0,6.0205,6.0185,6.0176,6.0204,6.0138,5.7896,5.6383,0.0,0.0,0.0,0.0,0.0,0.0,0.0,0.0,0.0,0.0,0.0,0.0,0.0,0.0,0.0,0.0,0.0,0.0,0.0,0.0,0.0,0.0,0.0,0.0,0.0,0.0,0.0,0.0,0.0,0.0,0.0,0.0,0.0,0.0,0.0,0.0,0.0,0.0,0.0,0.0,0.0,0.0,0.0,0.0,0.0,0.0,0.0,0.0,0.0,0.0,0.0,0.0,0.0,0.0,0.0,0.0,0.0,0.0,0.0,0.0,0.0,0.0,0.0,0.0,0.0,0.0,0.0,0.0,0.0,0.0,0.0,0.0,0.0,0.0,0.0,0.0,0.0,0.0,0.0,0.0,0.0,0.0,0.0,0.0,0.0,0.0,0.0,0.0,0.0,0.0,0.0,0.0,0.0,0.0,0.0,0.0,0.0,0.0,0.0,0.0,0.0,0.0,0.0,0.0,0.0,0.0,0.0,0.0,5.8709,5.9475,5.9361,5.9124,5.8854,5.6632,5.5369,0.0,0.0,0.0,0.0,0.0,0.0,0.0,0.0,0.0,0.0,0.0,0.0,0.0,0.0,0.0,0.0,0.0,0.0,0.0,0.0,0.0,0.0,0.0,0.0,0.0,0.0,0.0,0.0,0.0,0.0,0.0,0.0,0.0,0.0,0.0,0.0,0.0,0.0,0.0,0.0,0.0,0.0,0.0,0.0,0.0,0.0,0.0,0.0,0.0,0.0,0.0,0.0,0.0,0.0,0.0,0.0,0.0,0.0,0.0,0.0,0.0,0.0,0.0,0.0,0.0,0.0,0.0,0.0,0.0,0.0,0.0,0.0,0.0,0.0,0.0,0.0,0.0,0.0,0.0,0.0,0.0,0.0,0.0,0.0,0.0,0.0,0.0,0.0,0.0,0.0,0.0,0.0,0.0,0.0,0.0,0.0,0.0,0.0,0.0,0.0,0.0,0.0,0.0,0.0,0.0,0.0,0.0,0.0,0.0,5.8467,5.8193,5.7775,5.7262,5.5285,5.4198,0.0,0.0,0.0,0.0,0.0,0.0,0.0,0.0,0.0,0.0,0.0,0.0,0.0,0.0,0.0,0.0,0.0,0.0,0.0,0.0,0.0,0.0,0.0,0.0,0.0,0.0,0.0,0.0,0.0,0.0,0.0,0.0,0.0,0.0,0.0,0.0,0.0,0.0,0.0,0.0,0.0,0.0,0.0,0.0,0.0,0.0,0.0,0.0,0.0,0.0,0.0,0.0,0.0,0.0,0.0,0.0,0.0,0.0,0.0,0.0,0.0,0.0,0.0,0.0,0.0,0.0,0.0,0.0,0.0,0.0,0.0,0.0,0.0,0.0,0.0,0.0,0.0,0.0,0.0,0.0,0.0,0.0,0.0,0.0,0.0,0.0,0.0,0.0,0.0,0.0,0.0,0.0,0.0,0.0,0.0,0.0,0.0,0.0,0.0,0.0,0.0,0.0,0.0,0.0,0.0,0.0,0.0,0.0,0.0,5.7069,5.6581,5.6059,5.5535,5.4095,5.3089,0.0,0.0,0.0,0.0,0.0,0.0,0.0,0.0,0.0,0.0,0.0,0.0,0.0,0.0,0.0,0.0,0.0,0.0,0.0,0.0,0.0,0.0,0.0,0.0,0.0,0.0,0.0,0.0,0.0,0.0,0.0,0.0,0.0,0.0,0.0,0.0,0.0,0.0,0.0,0.0,0.0,0.0,0.0,0.0,0.0,0.0,0.0,0.0,0.0,0.0,0.0,0.0,0.0,0.0,0.0,0.0,0.0,0.0,0.0,0.0,0.0,0.0,0.0,0.0,0.0,0.0,0.0,0.0,0.0,0.0,0.0,0.0,0.0,0.0,0.0,0.0,0.0,0.0,0.0,0.0,0.0,0.0,0.0,0.0,0.0,0.0,0.0,0.0,0.0,0.0,0.0,0.0,0.0,0.0,0.0,0.0,0.0,0.0,0.0,0.0,0.0,0.0,0.0,0.0,0.0,0.0,0.0,0.0,0.0,5.4446,5.4388,5.4481,5.4814,5.3508,5.2831,5.291,0.0,0.0,0.0,0.0,0.0,0.0,0.0,0.0,0.0,0.0,0.0,0.0,0.0,0.0,0.0,0.0,0.0,0.0,0.0,0.0,0.0,0.0,0.0,0.0,0.0,0.0,0.0,0.0,0.0,0.0,0.0,0.0,0.0,0.0,0.0,0.0,0.0,0.0,0.0,0.0,0.0,0.0,0.0,0.0,0.0,0.0,0.0,0.0,0.0,0.0,0.0,0.0,0.0,0.0,0.0,0.0,0.0,0.0,0.0,0.0,0.0,0.0,0.0,0.0,0.0,0.0,0.0,0.0,0.0,0.0,0.0,0.0,0.0,0.0,0.0,0.0,0.0,0.0,0.0,0.0,0.0,0.0,0.0,0.0,0.0,0.0,0.0,0.0,0.0,0.0,0.0,0.0,0.0,0.0,0.0,0.0,0.0,0.0,0.0,0.0,0.0,0.0,0.0,0.0,0.0,0.0,0.0,0.0,5.2401,5.2706,5.3063,5.3455,5.3047,5.2796,0.0,0.0,0.0,0.0,0.0,0.0,0.0,0.0,0.0,0.0,0.0,0.0,0.0,0.0,0.0,0.0,0.0,0.0,0.0,0.0,0.0,0.0,0.0,0.0,0.0,0.0,0.0,0.0,0.0,0.0,0.0,0.0,0.0,0.0,0.0,0.0,0.0,0.0,0.0,0.0,0.0,0.0,0.0,0.0,0.0,0.0,0.0,0.0,0.0,0.0,0.0,0.0,0.0,0.0,0.0,0.0,0.0,0.0,0.0,0.0,0.0,0.0,0.0,0.0,0.0,0.0,0.0,0.0,0.0,0.0,0.0,0.0,0.0,0.0,0.0,0.0,0.0,0.0,0.0,0.0,0.0,0.0,0.0,0.0,0.0,0.0,0.0,0.0,0.0,0.0,0.0,0.0,0.0,0.0,0.0,0.0,0.0,0.0,0.0,0.0,0.0,0.0,0.0,0.0,0.0,0.0,0.0,0.0,5.1648,5.1386,5.1866,5.1964,5.1402,5.2799,5.3001,0.0,0.0,0.0,0.0,0.0,0.0,0.0,0.0,0.0,0.0,0.0,0.0,0.0,0.0,0.0,0.0,0.0,0.0,0.0,0.0,0.0,0.0,0.0,0.0,0.0,0.0,0.0,0.0,0.0,0.0,0.0,0.0,0.0,0.0,0.0,0.0,0.0,0.0,0.0,0.0,0.0,0.0,0.0,0.0,0.0,0.0,0.0,0.0,0.0,0.0,0.0,0.0,0.0,0.0,0.0,0.0,0.0,0.0,0.0,0.0,0.0,0.0,0.0,0.0,0.0,0.0,0.0,0.0,0.0,0.0,0.0,0.0,0.0,0.0,0.0,0.0,0.0,0.0,0.0,0.0,0.0,0.0,0.0,0.0,0.0,0.0,0.0,0.0,0.0,0.0,0.0,0.0,0.0,0.0,0.0,0.0,0.0,0.0,0.0,0.0,0.0,0.0,0.0,0.0,0.0,0.0,0.0,0.0,0.0,5.1586,0.0,5.1881,0.0,5.23,5.2014,0.0,0.0,0.0,0.0,0.0,0.0,0.0,0.0,0.0,0.0,0.0,0.0,0.0,0.0,0.0,0.0,0.0,0.0,0.0,0.0,0.0,0.0,0.0,0.0,0.0,0.0,0.0,0.0,0.0,0.0,0.0,0.0,0.0,0.0,0.0,0.0,0.0,0.0,0.0,0.0,0.0,0.0,0.0,0.0,0.0,0.0,0.0,0.0,0.0,0.0,0.0,0.0,0.0,0.0,0.0,0.0,0.0,0.0,0.0,0.0,0.0,0.0,0.0,0.0,0.0,0.0,0.0,0.0,0.0,0.0,0.0,0.0,0.0,0.0,0.0,0.0,0.0,0.0,0.0,0.0,0.0,0.0,0.0,0.0,0.0,0.0,0.0,0.0,0.0,0.0,0.0,0.0,0.0,0.0,0.0,0.0,0.0,0.0,0.0,0.0,0.0,0.0,0.0,0.0,0.0,0.0,0.0,0.0,0.0,5.0895,5.0636,5.1283,5.2759,5.2214,5.2035,0.0,0.0,0.0,0.0,0.0,0.0,0.0,0.0,0.0,0.0,0.0,0.0,0.0,0.0,0.0,0.0,0.0,0.0,0.0,0.0,0.0,0.0,0.0,0.0,0.0,0.0,0.0,0.0,0.0,0.0,0.0,0.0,0.0,0.0,0.0,0.0,0.0,0.0,0.0,0.0,0.0,0.0,0.0,0.0,0.0,0.0,0.0,0.0,0.0,0.0,0.0,0.0,0.0,0.0,0.0,0.0,0.0,0.0,0.0,0.0,0.0,0.0,0.0,0.0,0.0,0.0,0.0,0.0,0.0,0.0,0.0,0.0,0.0,0.0,0.0,0.0,0.0,0.0,0.0,0.0,0.0,0.0,0.0,0.0,0.0,0.0,0.0,0.0,0.0,0.0,0.0,0.0,0.0,0.0,0.0,0.0,0.0,0.0,0.0,0.0,0.0,0.0,0.0,0.0,0.0,0.0,0.0,0.0,0.0,0.0,5.0269,5.0305,4.9626,5.234,5.2875,0.0,0.0,0.0,0.0,0.0,0.0,0.0,0.0,0.0,0.0,0.0,0.0,0.0,0.0,0.0,0.0,0.0,0.0,0.0,0.0,0.0,0.0,0.0,0.0,0.0,0.0,0.0,0.0,0.0,0.0,0.0,0.0,0.0,0.0,0.0,0.0,0.0,0.0,0.0,0.0,0.0,0.0,0.0,0.0,0.0,0.0,0.0,0.0,0.0,0.0,0.0,0.0,0.0,0.0,0.0,0.0,0.0,0.0,0.0,0.0,0.0,0.0,0.0,0.0,0.0,0.0,0.0,0.0,0.0,0.0,0.0,0.0,0.0,0.0,0.0,0.0,0.0,0.0,0.0,0.0,0.0,0.0,0.0,0.0,0.0,0.0,0.0,0.0,0.0,0.0,0.0,0.0,0.0,0.0,0.0,0.0,0.0,0.0,0.0,0.0,0.0,0.0,0.0,0.0,0.0,0.0,0.0,0.0,0.0,0.0,5.1849,0.0,5.035,5.1054,5.1742,5.2206,0.0,0.0,0.0,0.0,0.0,0.0,0.0,0.0,0.0,0.0,0.0,0.0,0.0,0.0,0.0,0.0,0.0,0.0,0.0,0.0,0.0,0.0,0.0,0.0,0.0,0.0,0.0,0.0,0.0,0.0,0.0,0.0,0.0,0.0,0.0,0.0,0.0,0.0,0.0,0.0,0.0,0.0,0.0,0.0,0.0,0.0,0.0,0.0,0.0,0.0,0.0,0.0,0.0,0.0,0.0,0.0,0.0,0.0,0.0,0.0,0.0,0.0,0.0,0.0,0.0,0.0,0.0,0.0,0.0,0.0,0.0,0.0,0.0,0.0,0.0,0.0,0.0,0.0,0.0,0.0,0.0,0.0,0.0,0.0,0.0,0.0,0.0,0.0,0.0,0.0,0.0,0.0,0.0,0.0,0.0,0.0,0.0,0.0,0.0,0.0,0.0,0.0,0.0,0.0,0.0,0.0,0.0,0.0,0.0,0.0,0.0,5.0555,5.0555,5.0814,0.0,0.0,0.0,0.0,0.0,0.0,0.0,0.0,0.0,0.0,0.0,0.0,0.0,0.0,0.0,0.0,0.0,0.0,0.0,0.0,0.0,0.0,0.0,0.0,0.0,0.0,0.0,0.0,0.0,0.0,0.0,0.0,0.0,0.0,0.0,0.0,0.0,0.0,0.0,0.0,0.0,0.0,0.0,0.0,0.0,0.0,0.0,0.0,0.0,0.0,0.0,0.0,0.0,0.0,0.0,0.0,0.0,0.0,0.0,0.0,0.0,0.0,0.0,0.0,0.0,0.0,0.0,0.0,0.0,0.0,0.0,0.0,0.0,0.0,0.0,0.0,0.0,0.0,0.0,0.0,0.0,0.0,0.0,0.0,0.0,0.0,0.0,0.0,0.0,0.0,0.0,0.0,0.0,0.0,0.0,0.0,0.0,0.0,0.0,0.0,0.0,0.0,0.0,0.0,0.0,0.0,0.0,0.0,0.0,0.0,0.0,5.1314,5.0662,5.0519,0.0,4.9698,0.0,0.0,0.0,0.0,0.0,0.0,0.0,0.0,0.0,0.0,0.0,0.0,0.0,0.0,0.0,0.0,0.0,0.0,0.0,0.0,0.0,0.0,0.0,0.0,0.0,0.0,0.0,0.0,0.0,0.0,0.0,0.0,0.0,0.0,0.0,0.0,0.0,0.0,0.0,0.0,0.0,0.0,0.0,0.0,0.0,0.0,0.0,0.0,0.0,0.0,0.0,0.0,0.0,0.0,0.0,0.0,0.0,0.0,0.0,0.0,0.0,0.0,0.0,0.0,0.0,0.0,0.0,0.0,0.0,0.0,0.0,0.0,0.0,0.0,0.0,0.0,0.0,0.0,0.0,0.0,0.0,0.0,0.0,0.0,0.0,0.0,0.0,0.0,0.0,0.0,0.0,0.0,0.0,0.0,0.0,0.0,0.0,0.0,0.0,0.0,0.0,0.0,0.0,0.0,0.0,0.0,0.0,0.0,0.0,0.0,0.0,0.0,5.0279,5.0136,5.1109,0.0,0.0,0.0,0.0,0.0,0.0,0.0,0.0,0.0,0.0,0.0,0.0,0.0,0.0,0.0,0.0,0.0,0.0,0.0,0.0,0.0,0.0,0.0,0.0,0.0,0.0,0.0,0.0,0.0,0.0,0.0,0.0,0.0,0.0,0.0,0.0,0.0,0.0,0.0,0.0,0.0,0.0,0.0,0.0,0.0,0.0,0.0,0.0,0.0,0.0,0.0,0.0,0.0,0.0,0.0,0.0,0.0,0.0,0.0,0.0,0.0,0.0,0.0,0.0,0.0,0.0,0.0,0.0,0.0,0.0,0.0,0.0,0.0,0.0,0.0,0.0,0.0,0.0,0.0,0.0,0.0,0.0,0.0,0.0,0.0,0.0,0.0,0.0,0.0,0.0,0.0,0.0,0.0,0.0,0.0,0.0,0.0,0.0,0.0,0.0,0.0,0.0,0.0,0.0,0.0,0.0,0.0,0.0,0.0,0.0,5.0416,5.0121,4.9631,4.9612,5.0079,0.0,0.0,0.0,0.0,0.0,0.0,0.0,0.0,0.0,0.0,0.0,0.0,0.0,0.0,0.0,0.0,0.0,0.0,0.0,0.0,0.0,0.0,0.0,0.0,0.0,0.0,0.0,0.0,0.0,0.0,0.0,0.0,0.0,0.0,0.0,0.0,0.0,0.0,0.0,0.0,0.0,0.0,0.0,0.0,0.0,0.0,0.0,0.0,0.0,0.0,0.0,0.0,0.0,0.0,0.0,0.0,0.0,0.0,0.0,0.0,0.0,0.0,0.0,0.0,0.0,0.0,0.0,0.0,0.0,0.0,0.0,0.0,0.0,0.0,0.0,0.0,0.0,0.0,0.0,0.0,0.0,0.0,0.0,0.0,0.0,0.0,0.0,0.0,0.0,0.0,0.0,0.0,0.0,0.0,0.0,0.0,0.0,0.0,0.0,0.0,0.0,0.0,0.0,0.0,0.0,0.0,0.0,0.0,0.0,0.0,0.0,0.0,0.0,0.0,4.7492,0.0,0.0,0.0,0.0,0.0,0.0,0.0,0.0,0.0,0.0,0.0,0.0,0.0,0.0,0.0,0.0,0.0,0.0,0.0,0.0,0.0,0.0,0.0,0.0,0.0,0.0,0.0,0.0,0.0,0.0,0.0,0.0,0.0,0.0,0.0,0.0,0.0,0.0,0.0,0.0,0.0,0.0,0.0,0.0,0.0,0.0,0.0,0.0,0.0,0.0,0.0,0.0,0.0,0.0,0.0,0.0,0.0,0.0,0.0,0.0,0.0,0.0,0.0,0.0,0.0,0.0,0.0,0.0,0.0,0.0,0.0,0.0,0.0,0.0,0.0,0.0,0.0,0.0,0.0,0.0,0.0,0.0,0.0,0.0,0.0,0.0,0.0,0.0,0.0,0.0,0.0,0.0,0.0,0.0,0.0,0.0,0.0,0.0,0.0,0.0,0.0,0.0,0.0,0.0,0.0,0.0,0.0,0.0,0.0,0.0,0.0,0.0,0.0,0.0,0.0,0.0,0.0,0.0,0.0,0.0,0.0,0.0,0.0,0.0,0.0,0.0,0.0,0.0,0.0,0.0,0.0,0.0,0.0,0.0,0.0,0.0,0.0,0.0,0.0,0.0,0.0,0.0,0.0,0.0,0.0,0.0,0.0,0.0,0.0,0.0,0.0,0.0,0.0,0.0,0.0,0.0,0.0,0.0,0.0,0.0,0.0,0.0,0.0,0.0,0.0,0.0,0.0,0.0,0.0,0.0,0.0,0.0,0.0,0.0,0.0,0.0,0.0,0.0,0.0,0.0,0.0,0.0,0.0,0.0,0.0,0.0,0.0,0.0,0.0,0.0,0.0,0.0,0.0,0.0,0.0,0.0,0.0,0.0,0.0,0.0,0.0,0.0,0.0,0.0,0.0,0.0,0.0,0.0,0.0,0.0,0.0,0.0,0.0,0.0,0.0,0.0,0.0,0.0,0.0,0.0,0.0,0.0,0.0,0.0,0.0,0.0,0.0,0.0,0.0,0.0,0.0,0.0,0.0,0.0,0.0,0.0,0.0,0.0,0.0,0.0,0.0,0.0,0.0,0.0,0.0,0.0,0.0,0.0,0.0,0.0,0.0,0.0,0.0,0.0,0.0,0.0,0.0,0.0,0.0,0.0,0.0,0.0,0.0,0.0,0.0,0.0,0.0,0.0,0.0,0.0,0.0,0.0,0.0,0.0,0.0,0.0,0.0,0.0,0.0,0.0,0.0,0.0,0.0,0.0,0.0,0.0,0.0,0.0,0.0,0.0,0.0,0.0,0.0,0.0,0.0,0.0,0.0,0.0,0.0,0.0,0.0,0.0,0.0,0.0,0.0,0.0,0.0,0.0,0.0,0.0,0.0,0.0,0.0,0.0,0.0,0.0,0.0,0.0,0.0,0.0,0.0,0.0,0.0,0.0,0.0,0.0,0.0,0.0,0.0,0.0,0.0,0.0,0.0,0.0,0.0,0.0,0.0,0.0,0.0,0.0,0.0,0.0,0.0,0.0,0.0,0.0,0.0,0.0,0.0,0.0,0.0,0.0,0.0,0.0,0.0,0.0,0.0,0.0,0.0,0.0,0.0,0.0,0.0,0.0,0.0,0.0,0.0,0.0,0.0,0.0,0.0,0.0,0.0,0.0,0.0,0.0,0.0,0.0,0.0,0.0,0.0,0.0,0.0,0.0,0.0,0.0,0.0,0.0,0.0,0.0,0.0,0.0,0.0,0.0,0.0,0.0,0.0,0.0,0.0,0.0,0.0,0.0,0.0,0.0,0.0,0.0,0.0,0.0,0.0,0.0,0.0,0.0,0.0,0.0,0.0,0.0,0.0,0.0,0.0,0.0,0.0,0.0,0.0,0.0,0.0,0.0,0.0,0.0,0.0,0.0,0.0,0.0,0.0,0.0,0.0,0.0,0.0,0.0,0.0,0.0,0.0,0.0,0.0,0.0,0.0,0.0,0.0,0.0,0.0,0.0,0.0,0.0,0.0,0.0,0.0,0.0,0.0,0.0,0.0,0.0,0.0,0.0,0.0,0.0,0.0,0.0,0.0,0.0,0.0,0.0,0.0,0.0,0.0,0.0,0.0,0.0,0.0,0.0,0.0,0.0,0.0,0.0,0.0,0.0,0.0,0.0,0.0,0.0,0.0,0.0,0.0,0.0,0.0,0.0,0.0,0.0,0.0,0.0,0.0,0.0,0.0,0.0,0.0,0.0,0.0,0.0,0.0,0.0,0.0,0.0,0.0,0.0,0.0,0.0,0.0,0.0,0.0,0.0,0.0,0.0,0.0,0.0,0.0,0.0,0.0,0.0,0.0,0.0,0.0,0.0,0.0,0.0,0.0,0.0,0.0,0.0,0.0,0.0,0.0,0.0,0.0,0.0,0.0,0.0,0.0,0.0,0.0,0.0,0.0,0.0,0.0,0.0,0.0,0.0,0.0,0.0,0.0,0.0,0.0,0.0,0.0,0.0,0.0,0.0,0.0,0.0,0.0,0.0,0.0,0.0,0.0,0.0,0.0,0.0,0.0,0.0,0.0,0.0,0.0,0.0,0.0,0.0,0.0,0.0,0.0,0.0,0.0,0.0,0.0,0.0,0.0,0.0,0.0,0.0,0.0,0.0,0.0,0.0,0.0,0.0,0.0,0.0,0.0,0.0,0.0,0.0,0.0,0.0,0.0,0.0,0.0,0.0,0.0,0.0,0.0,0.0,0.0,0.0,0.0,0.0,0.0,0.0,0.0,0.0,0.0,0.0,0.0,0.0,0.0,0.0,0.0,0.0,0.0,0.0,0.0,0.0,0.0,0.0,0.0,0.0,0.0,0.0,0.0,0.0,0.0,0.0,0.0,0.0,0.0,0.0,0.0,0.0,0.0,0.0,0.0,0.0,0.0,0.0,0.0,0.0,0.0,0.0,0.0,0.0,0.0,0.0,0.0,0.0,0.0,0.0,0.0,0.0,0.0,0.0,0.0,0.0,0.0,0.0,0.0,0.0,0.0,0.0,0.0,0.0,0.0,0.0,0.0,0.0,0.0,0.0,0.0,0.0,0.0,0.0,0.0,0.0,0.0,0.0,0.0,0.0,0.0,0.0,0.0,0.0,0.0,0.0,0.0,0.0,0.0,0.0,0.0,0.0,0.0,0.0,0.0,0.0,0.0,0.0,0.0,0.0,0.0,0.0,0.0,0.0,0.0,0.0,0.0,0.0,0.0,0.0,0.0,0.0,0.0,0.0,0.0,0.0,0.0,0.0,0.0,0.0,0.0,0.0,0.0,0.0,0.0,0.0,0.0,0.0,0.0,0.0,0.0,0.0,0.0,0.0,0.0,0.0,0.0,0.0,0.0,0.0,0.0,0.0,0.0,0.0,0.0,0.0,0.0,0.0,0.0,0.0,0.0,0.0,0.0,0.0,0.0,0.0,0.0,0.0,0.0,0.0,0.0,0.0,0.0,0.0,0.0,0.0,0.0,0.0,0.0,0.0,0.0,0.0,0.0,0.0,0.0,0.0,0.0,0.0,0.0,0.0,0.0,0.0,0.0,0.0,0.0,0.0,0.0,0.0,0.0,0.0,0.0,0.0,0.0,0.0,0.0,0.0,0.0,0.0,0.0,0.0,0.0,0.0,0.0,0.0,0.0,0.0,0.0,0.0,0.0,0.0,0.0,0.0,0.0,0.0,0.0,0.0,0.0,0.0,0.0,0.0,0.0,0.0,0.0,0.0,0.0,0.0,0.0,0.0,0.0,0.0,0.0,0.0,0.0,0.0,0.0,0.0,0.0,0.0,0.0,0.0,0.0,0.0,0.0,0.0,0.0,0.0,0.0,0.0,0.0,0.0,0.0,0.0,0.0,0.0,0.0,0.0,0.0,0.0,0.0,0.0,0.0,0.0,0.0,0.0,0.0,0.0,0.0,0.0,0.0,0.0,0.0,0.0,0.0,0.0,0.0,0.0,0.0,0.0,0.0,0.0,0.0,0.0,0.0,0.0,0.0,0.0,0.0,0.0,0.0,0.0,0.0,0.0,0.0,0.0,0.0,0.0,0.0,0.0,0.0,0.0,0.0,0.0,0.0,0.0,0.0,0.0,0.0,0.0,0.0,0.0,0.0,0.0,0.0,0.0,0.0,0.0,0.0,0.0,0.0,0.0,0.0,0.0,0.0,0.0,0.0,0.0,0.0,0.0,0.0,0.0,0.0,0.0,0.0,0.0,0.0,0.0,0.0,0.0,0.0,0.0,0.0,0.0,0.0,0.0,0.0,0.0,0.0,0.0,0.0,0.0,0.0,0.0,0.0,0.0,0.0,0.0,0.0,0.0,0.0,0.0,0.0,0.0,0.0,0.0,0.0,0.0,0.0,0.0]}]]]